     2              OBSERVATION DATA    GPS                 RINEX VERSION / TYPE
ASHTORIN CICESE 05 - JUL - 01 12:53                         PGM / RUN BY / DATE
                                                            COMMENT
BAJA CALIFORNIA-SONORA 2001                                 COMMENT
Original Marker Name: GUAD                                  COMMENT
Campaign Name: Northern Baja 2001                           COMMENT
4-Character Station Name: GUAD                              COMMENT
6-Character Antenna Code: DMRCHT                            COMMENT
Vertical Measurement Point: BCR                             COMMENT
Vertical Offset to Rinex Ref. Point: 0.0348                 COMMENT
Radial Measurement Point: ECF                               COMMENT
Radial Offset to Rinex Ref. Point: 0.1897                   COMMENT
Antenna Height from Field Measurement: 1.3601 m             COMMENT
Additional Antenna Identification Info.:                    COMMENT
Turborogue and Ashtech Choke Ring                           COMMENT
Original XYZ: -2648787.0841 -4921531.4623 3062791.5979      COMMENT
New XYZ position is based on association with SCEC monument COMMENT
D5S5Z3N7+0011. Position of that monument is believed to be  COMMENT
valid to within 1 m horizontally; vertical accuracy         COMMENT
should be no worse than 3-times this value.                 COMMENT
                                                            COMMENT
Revised Rinex header created by UCSD GPS archive for        COMMENT
GSAC on 30-Nov-2001 (2001:334) 23:58:31 GMT                 COMMENT
For assistance contact dagnew@ucsd.edu                      COMMENT
or anderson@python.ucsd.edu                                 COMMENT
                                                            COMMENT
ISLA GUADALUPE (MELPOMENE BAY)                              MARKER NAME
30622                                                       MARKER NUMBER
JGG CICESE (ENSENADA)                                       OBSERVER / AGENCY
773 ASHTECH Z-XII3 CC001D0                                  REC # / TYPE / VERS
002 DORNE-MARGOL. TYPE T                                    ANT # / TYPE
 -2648786.5996 -4921527.4371  3062786.3360                  APPROX POSITION XYZ
        1.3120        0.0000        0.0000                  ANTENNA: DELTA H/E/N
     1     1     0                                          WAVELENGTH FACT L1/2
     7    L1    L2    C1    P1    P2    D1    D2            # / TYPES OF OBSERV
    30                                                      INTERVAL
  2001     1    20     0     0   30.000000                  TIME OF FIRST OBS
  2001     1    20    23    59   30.000000                  TIME OF LAST OBS
                                                            END OF HEADER
 01  1 20  0  0 30.0000000  0  9  4  9  6  2 24  5  7 30 10          0.000000000
 -19001389.679 9 -14792997.64348  21671133.271    21671133.0774   21671140.0694
        -0.000          -0.000
 -17983601.674 9 -13673135.38348  21760599.733    21760599.3114   21760606.5984
        -0.000          -0.000
  -4964391.934 8  -3626742.76445  25008581.637    25008581.1524   25008595.0434
        -0.000          -0.000
  11013409.595 8   8597278.24245  24671243.000    24671242.3244   24671254.1264
        -0.000          -0.000
 -24342431.284 9 -18301066.08949  20389705.485    20389705.0514   20389712.2454
        -0.000          -0.000
 -23563099.808 9 -18337959.49848  21236208.276    21236207.4794   21236214.6474
        -0.000          -0.000
  -1071711.039 9   -814098.31445  24369795.708    24369794.8804   24369805.7334
        -0.000          -0.000
  -9966387.287 9  -7732654.26846  23584151.136    23584151.0124   23584160.6404
        -0.000          -0.000
  -9326860.349 9  -6441975.99146  23700585.969    23700584.9574   23700596.5434
        -0.000          -0.000
 01  1 20  0  1  0.0000000  0  9  4  9  6  2 24  5  7 30 10         -0.000000029
 -18921272.100 9 -14730568.39548  21686379.038    21686378.9524   21686385.9314
        -0.000          -0.000
 -17923683.249 9 -13626445.70848  21772001.845    21772001.4274   21772008.7274
        -0.000          -0.000
  -5026522.279 8  -3675155.72345  24996758.361    24996757.8064   24996771.7144
        -0.000          -0.000
  11105223.732 8   8668821.58545  24688714.416    24688713.5784   24688726.2094
        -0.000          -0.000
 -24328234.315 9 -18290003.50749  20392407.093    20392406.6414   20392413.8344
        -0.000          -0.000
 -23627212.201 9 -18387917.15348  21224008.059    21224007.2364   21224014.4354
        -0.000          -0.000
  -1011320.287 8   -767040.47745  24381288.130    24381287.0894   24381297.4364
        -0.000          -0.000
 -10061416.764 9  -7806703.03346  23566067.611    23566067.4714   23566077.0414
        -0.000          -0.000
  -9420859.458 9  -6515221.66246  23682698.331    23682697.1924   23682708.6244
        -0.000          -0.000
 01  1 20  0  1 30.0000000  0  9  4  9  6  2 24  5  7 30 10         -0.000000029
 -18840842.407 9 -14667895.93648  21701684.352    21701684.2664   21701691.2744
        -0.000          -0.000
 -17863370.887 9 -13579449.06448  21783478.970    21783478.5124   21783485.8294
        -0.000          -0.000
  -5088602.720 8  -3723529.85145  24984944.730    24984944.1634   24984957.5164
        -0.000          -0.000
  11197249.928 8   8740530.36745  24706226.640    24706226.0864   24706237.6724
        -0.000          -0.000
 -24313524.313 9 -18278541.15549  20395206.298    20395205.8434   20395213.0184
        -0.000          -0.000
 -23691066.647 9 -18437673.81748  21211856.921    21211856.0884   21211863.2644
        -0.000          -0.000
   -950940.784 9   -719991.53445  24392778.010    24392777.1994   24392787.2564
        -0.000          -0.000
 -10156399.814 9  -7880715.63546  23547992.884    23547992.7044   23548002.0894
        -0.000          -0.000
  -9514844.639 9  -6588456.50146  23664813.200    23664812.1524   23664823.5724
        -0.000          -0.000
 01  1 20  0  2  0.0000000  0  9  4  9  6  2 24  5  7 30 10         -0.000000029
 -18760103.875 9 -14604982.82848  21717048.381    21717048.3204   21717055.3164
        -0.000          -0.000
 -17802667.589 9 -13532147.79648  21795030.443    21795029.9454   21795037.2664
        -0.000          -0.000
  -5150634.096 9  -3771865.70145  24973140.438    24973139.9054   24973153.1744
        -0.000          -0.000
  11289486.022 8   8812402.68645  24723778.829    24723777.9754   24723790.1854
        -0.000          -0.000
 -24298302.677 9 -18266680.12349  20398102.879    20398102.4184   20398109.5904
        -0.000          -0.000
 -23754661.566 9 -18487228.24748  21199755.179    21199754.3664   21199761.5474
        -0.000          -0.000
   -890572.527 9   -672951.39145  24404265.922    24404264.9584   24404275.2964
        -0.000          -0.000
 -10251334.812 9  -7954690.78546  23529927.082    23529926.9514   23529936.3094
        -0.000          -0.000
  -9608813.303 9  -6661678.46346  23646931.191    23646930.1224   23646941.4454
        -0.000          -0.000
 01  1 20  0  2 30.0000000  0  9  4  9  6  2 24  5  7 30 10         -0.000000029
 -18679058.247 9 -14541830.43348  21732470.855    21732470.7434   21732477.7994
        -0.000          -0.000
 -17741575.141 9 -13484543.30048  21806655.968    21806655.4864   21806662.8144
        -0.000          -0.000
  -5212616.014 8  -3820163.02245  24961345.462    24961344.9314   24961358.5314
        -0.000          -0.000
  11381931.918 8   8884438.36145  24741370.178    24741369.5464   24741381.9524
        -0.000          -0.000
 -24282570.606 9 -18254421.35649  20401096.582    20401096.1254   20401103.3124
        -0.000          -0.000
 -23817993.801 9 -18536577.99448  21187703.407    21187702.5894   21187709.7344
        -0.000          -0.000
   -830214.449 8   -625919.07845  24415751.873    24415750.8314   24415761.1914
        -0.000          -0.000
 -10346219.061 9  -8028626.39546  23511871.025    23511870.9604   23511880.1904
        -0.000          -0.000
  -9702761.488 9  -6734884.48546  23629053.177    23629052.1084   23629063.3664
        -0.000          -0.000
 01  1 20  0  3  0.0000000  0  9  4  9  6  2 24  5  7 30 10         -0.000000029
 -18597708.602 9 -14478441.12848  21747951.213    21747951.0964   21747958.1924
        -0.000          -0.000
 -17680096.275 9 -13436637.69548  21818354.977    21818354.4884   21818361.8394
        -0.000          -0.000
  -5274549.263 8  -3868422.39045  24949559.668    24949559.0514   24949572.9964
        -0.000          -0.000
  11474585.640 8   8956636.10445  24759001.795    24759001.0114   24759013.4894
        -0.000          -0.000
 -24266329.218 9 -18241765.71449  20404187.216    20404186.7364   20404193.9224
        -0.000          -0.000
 -23881061.495 9 -18585721.60448  21175701.982    21175701.1674   21175708.2924
        -0.000          -0.000
   -769866.316 8   -578894.61545  24427235.317    24427234.4784   24427245.0024
        -0.000          -0.000
 -10441051.149 9  -8102521.34646  23493825.077    23493824.9734   23493834.2024
        -0.000          -0.000
  -9796686.324 9  -6808072.36946  23611179.781    23611178.6434   23611189.6254
        -0.000          -0.000
 01  1 20  0  3 30.0000000  0  9  4  9  6  2 24  5  7 30 10         -0.000000029
 -18516057.748 9 -14414817.12148  21763488.836    21763488.7304   21763495.8684
        -0.000          -0.000
 -17618233.256 9 -13388432.75448  21830127.096    21830126.6284   21830133.9824
        -0.000          -0.000
  -5336434.254 8  -3916644.11245  24937783.003    24937782.4824   24937796.6394
        -0.000          -0.000
  11567446.280 8   9028994.93845  24776672.436    24776671.5674   24776684.5104
        -0.000          -0.000
 -24249579.924 9 -18228714.30049  20407374.481    20407374.0194   20407381.2054
        -0.000          -0.000
 -23943862.472 9 -18634657.38548  21163751.327    21163750.5014   21163757.5974
        -0.000          -0.000
   -709527.771 9   -531877.66445  24438717.322    24438716.4484   24438726.9434
        -0.000          -0.000
 -10535828.970 9  -8176373.99746  23475789.236    23475789.2004   23475798.4224
        -0.000          -0.000
  -9890584.586 9  -6881239.52946  23593311.108    23593309.9924   23593321.1594
        -0.000          -0.000
 01  1 20  0  4  0.0000000  0  9  4  9  6  2 24  5  7 30 10         -0.000000029
 -18434109.146 9 -14350961.08748  21779083.219    21779083.0554   21779090.1284
        -0.000          -0.000
 -17555989.637 9 -13339931.24348  21841971.636    21841971.1584   21841978.5034
        -0.000          -0.000
  -5398272.259 8  -3964829.26545  24926015.452    24926014.9404   24926029.2684
        -0.000          -0.000
  11660511.316 8   9101513.16545  24794381.914    24794381.1264   24794394.4514
        -0.000          -0.000
 -24232324.815 9 -18215268.74749  20410658.030    20410657.5364   20410664.7234
        -0.000          -0.000
 -24006395.503 9 -18683384.37648  21151851.601    21151850.8084   21151857.9194
        -0.000          -0.000
   -649199.407 9   -484868.42345  24450197.639    24450196.7694   24450206.4484
        -0.000          -0.000
 -10630551.471 9  -8250183.56346  23457763.963    23457763.9684   23457773.1304
        -0.000          -0.000
  -9984454.174 9  -6954384.39146  23575448.056    23575446.9584   23575457.9164
        -0.000          -0.000
 01  1 20  0  4 30.0000000  0  9  4  9  6  2 24  5  7 30 10         -0.000000028
 -18351864.740 9 -14286874.55648  21794733.926    21794733.7404   21794740.8364
        -0.000          -0.000
 -17493366.990 9 -13291134.39248  21853888.348    21853887.8784   21853895.2324
        -0.000          -0.000
  -5460062.765 9  -4012977.41645  24914257.083    24914256.3994   24914270.7074
        -0.000          -0.000
  11753780.363 8   9174190.30345  24812130.750    24812129.9904   24812143.2554
        -0.000          -0.000
 -24214564.302 9 -18201429.37249  20414037.714    20414037.2264   20414044.3964
        -0.000          -0.000
 -24068657.177 9 -18731899.91848  21140003.587    21140002.7614   21140009.8814
        -0.000          -0.000
   -588879.771 9   -437866.12345  24461676.158    24461675.1954   24461685.1064
        -0.000          -0.000
 -10725215.725 9  -8323947.77546  23439749.850    23439749.8194   23439758.8844
        -0.000          -0.000
 -10078290.946 9  -7027503.65946  23557591.382    23557590.2314   23557601.2134
        -0.000          -0.000
 01  1 20  0  5  0.0000000  0  9  4  9  6  2 24  5  7 30 10         -0.000000028
 -18269327.277 9 -14222559.67248  21810440.241    21810440.1474   21810447.1364
        -0.000          -0.000
 -17430368.036 9 -13242044.31148  21865876.636    21865876.1694   21865883.5514
        -0.000          -0.000
  -5521806.477 8  -4061089.07845  24902507.464    24902506.9044   24902520.9824
        -0.000          -0.000
  11847252.105 8   9247025.36845  24829917.741    24829917.4244   24829930.1834
        -0.000          -0.000
 -24196300.499 9 -18187197.82149  20417513.190    20417512.7104   20417519.8614
        -0.000          -0.000
 -24130645.468 9 -18780202.43948  21128207.603    21128206.7574   21128213.8614
        -0.000          -0.000
   -528568.828 8   -390870.54145  24473152.883    24473151.8614   24473161.9554
        -0.000          -0.000
 -10819819.792 9  -8397665.06046  23421747.197    23421747.1524   23421756.0954
        -0.000          -0.000
 -10172091.854 9  -7100595.04846  23539741.398    23539740.3484   23539751.0394
        -0.000          -0.000
 01  1 20  0  5 30.0000000  0  9  4  9  6  2 24  5  7 30 10         -0.000000029
 -18186499.628 9 -14158018.67148  21826201.819    21826201.6854   21826208.7104
        -0.000          -0.000
 -17366995.458 9 -13192663.10348  21877936.020    21877935.5304   21877942.9134
        -0.000          -0.000
  -5583503.821 9  -4109164.59545  24890766.670    24890765.8724   24890780.2874
        -0.000          -0.000
  11940924.877 8   9320017.11145  24847742.961    24847742.9364   24847755.5494
        -0.000          -0.000
 -24177534.376 9 -18172574.85049  20421084.229    20421083.7484   20421090.8924
        -0.000          -0.000
 -24192358.367 9 -18828290.35948  21116463.938    21116463.1174   21116470.2454
        -0.000          -0.000
   -468265.946 9   -343881.39945  24484627.709    24484626.9144   24484637.2914
        -0.000          -0.000
 -10914362.122 9  -8471334.24846  23403756.215    23403756.0774   23403765.1324
        -0.000          -0.000
 -10265853.995 9  -7173656.17846  23521898.595    23521897.6404   23521908.4284
        -0.000          -0.000
 01  1 20  0  6  0.0000000  0  9  4  9  6  2 24  5  7 30 10         -0.000000028
 -18103384.306 9 -14093253.50748  21842018.117    21842018.0554   21842025.1344
        -0.000          -0.000
 -17303251.385 9 -13142992.41048  21890066.139    21890065.6534   21890073.0024
        -0.000          -0.000
  -5645154.974 8  -4157204.12045  24879034.584    24879033.8244   24879047.8384
        -0.000          -0.000
  12034797.511 8   9393164.63845  24865606.443    24865606.1494   24865618.3454
        -0.000          -0.000
 -24158267.917 9 -18157562.00649  20424750.493    20424750.0204   20424757.1844
        -0.000          -0.000
 -24253793.348 9 -18876161.72648  21104773.230    21104772.3704   21104779.4734
        -0.000          -0.000
   -407970.719 9   -296898.15645  24496101.686    24496100.7114   24496111.4154
        -0.000          -0.000
 -11008840.132 9  -8544953.34146  23385777.418    23385777.2744   23385786.4034
        -0.000          -0.000
 -10359573.913 9  -7246684.42146  23504064.093    23504063.0954   23504073.8424
        -0.000          -0.000
 01  1 20  0  6 30.0000000  0  9  4  9  6  2 24  5  7 30 10         -0.000000027
 -18019985.422 9 -14028267.39148  21857888.373    21857888.2794   21857895.3994
        -0.000          -0.000
 -17239139.953 9 -13093035.47348  21902266.144    21902265.6874   21902273.0244
        -0.000          -0.000
  -5706761.991 9  -4205209.21945  24867310.781    24867310.0214   24867324.2084
        -0.000          -0.000
  12128867.196 8   9466465.67245  24883507.291    24883506.9184   24883519.5134
        -0.000          -0.000
 -24138503.278 9 -18142160.97249  20428511.513    20428511.0664   20428518.2364
        -0.000          -0.000
 -24314949.694 9 -18923815.97848  21093135.516    21093134.6674   21093141.8054
        -0.000          -0.000
   -347684.334 9   -249921.70145  24507574.241    24507573.4494   24507583.6284
        -0.000          -0.000
 -11103253.686 9  -8618522.20046  23367810.952    23367810.8914   23367819.9204
        -0.000          -0.000
 -10453250.004 9  -7319678.52446  23486238.044    23486236.8684   23486247.6314
        -0.000          -0.000
 01  1 20  0  7  0.0000000  0  9  4  9  6  2 24  5  7 30 10         -0.000000010
 -17936308.648 9 -13963064.73448  21873811.596    21873811.4564   21873818.5504
        -0.000          -0.000
 -17174666.673 9 -13042796.57348  21914534.952    21914534.5034   21914541.8694
        -0.000          -0.000
  -5768328.102 8  -4253182.49145  24855594.984    24855594.2604   24855608.0824
        -0.000          -0.000
  12223129.630 8   9539916.84645  24901444.788    24901444.4484   24901456.6384
        -0.000          -0.000
 -24118244.664 9 -18126375.02149  20432366.575    20432366.1274   20432373.3134
        -0.000          -0.000
 -24375827.987 9 -18971253.56348  21081550.711    21081549.9074   21081557.0104
        -0.000          -0.000
   -287408.870 8   -202953.82145  24519044.180    24519043.3294   24519053.5804
        -0.000          -0.000
 -11197603.227 9  -8692041.18246  23349856.797    23349856.6914   23349865.6964
        -0.000          -0.000
 -10546882.012 9  -7392638.28546  23468420.235    23468419.1224   23468429.8064
        -0.000          -0.000
 01  1 20  0  7 30.0000000  0  9  4  9  6  2 24  5  7 30 10         -0.000000014
 -17852355.602 9 -13897646.79548  21889787.392    21889787.2164   21889794.3444
        -0.000          -0.000
 -17109833.157 9 -12992276.97548  21926872.357    21926871.9124   21926879.3054
        -0.000          -0.000
  -5829852.697 8  -4301123.40545  24843887.155    24843886.3664   24843899.8364
        -0.000          -0.000
  12317584.544 8   9613518.12645  24919419.377    24919418.8844   24919430.9254
        -0.000          -0.000
 -24097492.845 9 -18110204.75949  20436315.514    20436315.0734   20436322.2364
        -0.000          -0.000
 -24436425.030 9 -19018471.99348  21070019.448    21070018.6204   21070025.7164
        -0.000          -0.000
   -227143.285 8   -155993.56045  24530512.220    24530511.2114   24530521.2734
        -0.000          -0.000
 -11291885.913 9  -8765508.05246  23331915.284    23331915.1214   23331924.1144
        -0.000          -0.000
 -10640465.584 9  -7465560.31546  23450611.538    23450610.4514   23450621.1344
        -0.000          -0.000
 01  1 20  0  8  0.0000000  0  9  4  9  6  2 24  5  7 30 10         -0.000000017
 -17768122.909 9 -13832010.94748  21905816.368    21905816.2294   21905823.3024
        -0.000          -0.000
 -17044635.885 9 -12941473.92948  21939278.953    21939278.5434   21939285.9164
        -0.000          -0.000
  -5891330.181 8  -4349027.59945  24832188.273    24832187.4954   24832200.6874
        -0.000          -0.000
  12412236.666 9   9687272.87245  24937431.332    24937430.5844   24937442.9654
        -0.000          -0.000
 -24076243.528 9 -18093646.82849  20440359.137    20440358.6844   20440365.8404
        -0.000          -0.000
 -24496732.104 9 -19065464.47048  21058543.334    21058542.5254   21058549.5894
        -0.000          -0.000
   -166880.493 8   -109035.60845  24541979.243    24541978.3094   24541988.8634
        -0.000          -0.000
 -11386093.228 9  -8838916.20346  23313988.149    23313988.0324   23313996.9564
        -0.000          -0.000
 -10733991.384 9  -7538437.34646  23432814.028    23432812.9524   23432823.4754
        -0.000          -0.000
 01  1 20  0  8 30.0000000  0  9  4  9  6  2 24  5  7 30 10         -0.000000019
 -17683615.065 9 -13766160.69748  21921897.677    21921897.5964   21921904.5894
        -0.000          -0.000
 -16979079.163 9 -12890390.78748  21951754.045    21951753.6374   21951760.9784
        -0.000          -0.000
  -5952762.894 8  -4396896.89745  24820497.695    24820496.9794   24820510.0654
        -0.000          -0.000
  12507084.776 8   9761180.90244  24955480.335    24955479.8504   24955490.7774
        -0.000          -0.000
 -24054499.537 9 -18076703.43549  20444496.861    20444496.3904   20444503.5524
        -0.000          -0.000
 -24556749.303 9 -19112231.07348  21047122.441    21047121.6314   21047128.6644
        -0.000          -0.000
   -106622.431 9    -62081.39845  24553445.793    24553444.9624   24553456.2284
        -0.000          -0.000
 -11480225.455 9  -8912265.87446  23296075.467    23296075.3124   23296084.0294
        -0.000          -0.000
 -10827458.277 9  -7611268.46746  23415027.756    23415026.6054   23415037.1094
        -0.000          -0.000
 01  1 20  0  9  0.0000000  0  9  4  9  6  2 24  5  7 30 10         -0.000000019
 -17598835.139 9 -13700098.45148  21938030.733    21938030.6674   21938037.7084
        -0.000          -0.000
 -16913166.054 9 -12839029.94348  21964296.874    21964296.4644   21964303.8144
        -0.000          -0.000
  -6014151.595 8  -4444731.89045  24808815.289    24808814.6554   24808828.0104
        -0.000          -0.000
  12602122.732 9   9835236.65045  24973565.578    24973565.0204   24973576.3504
        -0.000          -0.000
 -24032263.122 9 -18059376.34049  20448728.274    20448727.8204   20448734.9774
        -0.000          -0.000
 -24616474.788 9 -19158770.36048  21035756.976    21035756.1694   21035763.2454
        -0.000          -0.000
    -46368.886 9    -15130.49045  24564912.103    24564911.2544   24564921.9264
        -0.000          -0.000
 -11574280.754 9  -8985555.57346  23278177.186    23278177.0044   23278185.7444
        -0.000          -0.000
 -10920863.340 9  -7684051.43646  23397253.128    23397251.9804   23397262.3974
        -0.000          -0.000
 01  1 20  0  9 30.0000000  0  9  4  9  6  2 24  5  7 30 10         -0.000000022
 -17513786.725 9 -13633826.98448  21954214.936    21954214.8134   21954221.8284
        -0.000          -0.000
 -16846899.821 9 -12787393.94348  21976906.943    21976906.5444   21976913.8624
        -0.000          -0.000
  -6075497.387 8  -4492533.46445  24797141.119    24797140.7074   24797154.0904
        -0.000          -0.000
  12697351.026 8   9909440.54645  24991686.394    24991686.1554   24991696.9474
        -0.000          -0.000
 -24009536.455 9 -18041667.23249  20453052.996    20453052.5264   20453059.6854
        -0.000          -0.000
 -24675906.720 9 -19205080.90848  21024447.448    21024446.6294   21024453.6624
        -0.000          -0.000
     13879.876 9     31816.50345  24576376.883    24576375.9774   24576387.1484
        -0.000          -0.000
 -11668257.632 9  -9058784.14846  23260293.670    23260293.5444   23260302.4354
        -0.000          -0.000
 -11014204.020 9  -7756784.25846  23379490.903    23379489.7364   23379499.9544
        -0.000          -0.000
 01  1 20  0 10  0.0000000  0  9  4  9  6  2 24  5  7 30 10         -0.000000022
 -17428471.529 9 -13567347.64348  21970449.878    21970449.7444   21970456.8104
        -0.000          -0.000
 -16780282.457 9 -12735484.32748  21989583.839    21989583.4384   21989590.7314
        -0.000          -0.000
  -6136800.050 8  -4540301.47045  24785475.234    24785474.8334   24785488.3554
        -0.000          -0.000
  12792768.411 8   9983791.73145  25009843.879    25009843.3354   25009854.6434
        -0.000          -0.000
 -23986320.271 9 -18023576.68449  20457470.842    20457470.3884   20457477.5524
        -0.000          -0.000
 -24735041.972 9 -19251160.27848  21013194.340    21013193.5294   21013200.5674
        -0.000          -0.000
     74125.179 9     78760.87345  24587841.457    24587840.6504   24587851.2254
        -0.000          -0.000
 -11762153.325 9  -9131949.51746  23242425.964    23242425.8434   23242434.5514
        -0.000          -0.000
 -11107476.204 9  -7829463.66846  23361741.615    23361740.3944   23361750.5204
        -0.000          -0.000
 01  1 20  0 10 30.0000000  0  9  4  9  6  2 24  5  7 30 10         -0.000000021
 -17342893.380 9 -13500663.38648  21986734.943    21986734.7814   21986741.7954
        -0.000          -0.000
 -16713317.542 9 -12683303.89748  22002326.865    22002326.4464   22002333.7544
        -0.000          -0.000
  -6198060.729 9  -4588036.78845  24773817.543    24773817.2334   24773830.5794
        -0.000          -0.000
  12888373.111 8  10058289.00145  25028036.824    25028035.7644   25028047.7144
        -0.000          -0.000
 -23962617.137 9 -18005106.69949  20461981.413    20461980.9554   20461988.0894
        -0.000          -0.000
 -24793879.473 9 -19297007.63748  21001997.882    21001997.1004   21002004.1224
        -0.000          -0.000
    134366.483 9    125702.21945  24599304.507    24599303.7864   24599314.4004
        -0.000          -0.000
 -11855966.630 9  -9205050.67046  23224573.794    23224573.6134   23224582.3294
        -0.000          -0.000
 -11200677.829 9  -7902088.12446  23344005.799    23344004.5624   23344014.6874
        -0.000          -0.000
 01  1 20  0 11  0.0000000  0  9  4  9  6  2 24  5  7 30 10         -0.000000021
 -17257056.604 9 -13433777.61748  22003069.079    22003069.0424   22003076.0034
        -0.000          -0.000
 -16646009.374 9 -12630855.99648  22015135.201    22015134.7794   22015142.1074
        -0.000          -0.000
  -6259281.784 9  -4635741.27045  24762167.489    24762167.1984   24762180.1714
        -0.000          -0.000
  12984161.285 8  10132929.27745  25046264.792    25046262.8224   25046274.1504
        -0.000          -0.000
 -23938430.482 9 -17986259.94449  20466583.993    20466583.5294   20466590.6444
        -0.000          -0.000
 -24852418.647 9 -19342622.52549  20990858.223    20990857.4124   20990864.4174
        -0.000          -0.000
    194602.280 9    172639.17145  24610767.408    24610766.7294   24610777.1224
        -0.000          -0.000
 -11949697.215 9  -9278087.30946  23206737.093    23206736.9704   23206745.7734
        -0.000          -0.000
 -11293807.430 9  -7974656.46946  23326283.796    23326282.5114   23326292.4914
        -0.000          -0.000
 01  1 20  0 11 30.0000000  0  9  4  9  6  2 24  5  7 30 10         -0.000000021
 -17170962.386 9 -13366691.24948  22019452.308    22019452.2204   22019459.3084
        -0.000          -0.000
 -16578359.097 9 -12578141.51648  22028008.680    22028008.2474   22028015.5864
        -0.000          -0.000
  -6320461.968 9  -4683413.91845  24750525.046    24750524.7194   24750537.4564
        -0.000          -0.000
  13080133.280 8  10207712.67145  25064526.895    25064525.2304   25064537.4344
        -0.000          -0.000
 -23913760.554 9 -17967036.61749  20471278.491    20471278.0294   20471285.1544
        -0.000          -0.000
 -24910655.885 9 -19388002.14449  20979775.999    20979775.1744   20979782.1794
        -0.000          -0.000
    254834.966 8    219573.85145  24622229.636    24622228.8384   24622238.3914
        -0.000          -0.000
 -12043341.395 9  -9351056.72046  23188917.227    23188917.1564   23188925.6914
        -0.000          -0.000
 -11386860.294 9  -8047165.02246  23308576.288    23308574.9704   23308584.9984
        -0.000          -0.000
 01  1 20  0 12  0.0000000  0  9  4  9  6  2 24  5  7 30 10         -0.000000021
 -17084613.615 9 -13299406.52347  22035883.883    22035883.7954   22035890.9234
        -0.000          -0.000
 -16510369.708 9 -12525162.78948  22040946.654    22040946.2304   22040953.5524
        -0.000          -0.000
  -6381602.056 8  -4731055.33945  24738890.243    24738890.0444   24738902.2934
        -0.000          -0.000
  13176287.382 8  10282637.95945  25082824.142    25082823.1234   25082835.3504
        -0.000          -0.000
 -23888608.565 9 -17947437.65349  20476064.792    20476064.3264   20476071.4184
        -0.000          -0.000
 -24968589.043 9 -19433144.81749  20968751.646    20968750.8264   20968757.8204
        -0.000          -0.000
    315064.541 8    266505.94845  24633690.876    24633690.1014   24633700.2324
        -0.000          -0.000
 -12136897.445 9  -9423957.41446  23171114.122    23171113.9534   23171122.4594
        -0.000          -0.000
 -11479833.305 9  -8119611.39646  23290883.845    23290882.6584   23290892.5344
        -0.000          -0.000
 01  1 20  0 12 30.0000000  0  9  4  9  6  2 24  5  7 30 10         -0.000000021
 -16998013.073 9 -13231925.61347  22052363.532    22052363.3964   22052370.5314
        -0.000          -0.000
 -16442043.955 9 -12471921.96148  22053948.642    22053948.1994   22053955.5154
        -0.000          -0.000
  -6442702.380 9  -4778665.76445  24727262.924    24727262.7934   24727275.0624
        -0.000          -0.000
  13272622.296 8  10357704.38244  25101156.471    25101155.1504   25101167.2044
        -0.000          -0.000
 -23862976.885 9 -17927464.90749  20480942.300    20480941.8394   20480948.9494
        -0.000          -0.000
 -25026216.042 9 -19478048.92649  20957785.544    20957784.7384   20957791.6984
        -0.000          -0.000
    375291.498 9    313435.95645  24645151.329    24645150.4764   24645160.8874
        -0.000          -0.000
 -12230363.146 9  -9496787.65046  23153327.865    23153327.7354   23153336.4534
        -0.000          -0.000
 -11572723.088 9  -8191992.91246  23273207.406    23273206.3154   23273216.1244
        -0.000          -0.000
 01  1 20  0 13  0.0000000  0  9  4  9  6  2 24  5  7 30 10         -0.000000021
 -16911163.606 9 -13164250.73147  22068890.459    22068890.2964   22068897.4384
        -0.000          -0.000
 -16373384.745 9 -12418421.30048  22067014.104    22067013.6444   22067020.9324
        -0.000          -0.000
  -6503763.808 9  -4826245.90745  24715643.120    24715642.8774   24715655.1744
        -0.000          -0.000
  13369136.016 9  10432909.84345  25119522.465    25119521.0774   25119533.4324
        -0.000          -0.000
 -23836867.709 9 -17907120.08949  20485910.692    20485910.2404   20485917.3364
        -0.000          -0.000
 -25083534.998 9 -19522713.00449  20946878.023    20946877.2394   20946884.1774
        -0.000          -0.000
    435515.904 8    360364.10545  24656611.539    24656610.6044   24656621.1214
        -0.000          -0.000
 -12323736.546 9  -9569546.07346  23135559.581    23135559.4264   23135567.8724
        -0.000          -0.000
 -11665526.915 9  -8264307.45746  23255547.280    23255546.2404   23255555.9374
        -0.000          -0.000
 01  1 20  0 13 30.0000000  0  9  4  9  6  2 24  5  7 30 10         -0.000000021
 -16824068.576 9 -13096384.49247  22085464.170    22085464.0514   22085471.0694
        -0.000          -0.000
 -16304395.013 9 -12364663.08448  22080142.435    22080141.9764   22080149.3084
        -0.000          -0.000
  -6564787.212 9  -4873796.38445  24704030.478    24704030.2764   24704042.6524
        -0.000          -0.000
  13465826.562 8  10508253.35445  25137922.161    25137921.1874   25137932.7784
        -0.000          -0.000
 -23810282.558 9 -17886404.37849  20490969.658    20490969.2074   20490976.2964
        -0.000          -0.000
 -25140544.069 9 -19567135.61749  20936029.543    20936028.7394   20936035.6834
        -0.000          -0.000
    495737.774 9    407290.19345  24668071.420    24668070.6194   24668081.1694
        -0.000          -0.000
 -12417016.376 9  -9642231.53846  23117808.931    23117808.7454   23117817.1054
        -0.000          -0.000
 -11758241.896 9  -8336552.75446  23237904.090    23237903.0154   23237912.7424
        -0.000          -0.000
 01  1 20  0 14  0.0000000  0  9  4  9  6  2 24  5  7 30 10         -0.000000021
 -16736729.445 9 -13028328.06447  22102084.297    22102084.0864   22102091.1914
        -0.000          -0.000
 -16235076.418 9 -12310648.61148  22093333.305    22093332.8544   22093340.2224
        -0.000          -0.000
  -6625771.795 9  -4921316.62145  24692425.304    24692424.8604   24692437.5034
        -0.000          -0.000
  13562694.890 7  10583735.40245  25156355.185    25156354.7174   25156367.4184
        -0.000          -0.000
 -23783221.966 9 -17865318.19449  20496119.092    20496118.6424   20496125.7314
        -0.000          -0.000
 -25197239.815 9 -19611314.08049  20925240.644    20925239.8384   20925246.7684
        -0.000          -0.000
    555958.593 8    454215.64345  24679531.584    24679530.7684   24679539.9174
        -0.000          -0.000
 -12510199.177 9  -9714841.33246  23100076.530    23100076.4504   23100084.9914
        -0.000          -0.000
 -11850863.767 9  -8408725.51446  23220278.542    23220277.5174   23220287.1764
        -0.000          -0.000
 01  1 20  0 14 30.0000000  0  9  4  9  6  2 24  5  7 30 10         -0.000000020
 -16649149.296 9 -12960083.80747  22118750.125    22118749.9784   22118757.1294
        -0.000          -0.000
 -16165432.239 9 -12256380.44048  22106586.144    22106585.6894   22106593.0724
        -0.000          -0.000
  -6686718.649 9  -4968807.45845  24680827.473    24680826.9294   24680839.5854
        -0.000          -0.000
  13659736.751 8  10659352.44645  25174821.656    25174821.4124   25174834.3694
        -0.000          -0.000
 -23755689.054 9 -17843863.97149  20501358.464    20501357.9854   20501365.0874
        -0.000          -0.000
 -25253620.535 9 -19655247.06449  20914511.734    20914510.9264   20914517.9044
        -0.000          -0.000
    616178.576 9    501140.22845  24690990.882    24690989.9024   24691000.0894
        -0.000          -0.000
 -12603283.160 9  -9787374.17147  23082363.297    23082363.2034   23082371.6794
        -0.000          -0.000
 -11943389.762 9  -8480823.57746  23202671.262    23202670.2464   23202679.9124
        -0.000          -0.000
 01  1 20  0 15  0.0000000  0  9  4  9  6  2 24  5  7 30 10         -0.000000020
 -16561332.050 9 -12891654.81247  22135461.208    22135461.0794   22135468.2344
        -0.000          -0.000
 -16095466.224 9 -12201861.48148  22119900.228    22119899.8024   22119907.1704
        -0.000          -0.000
  -6747628.989 9  -5016269.82545  24669236.409    24669235.9434   24669248.6514
        -0.000          -0.000
  13756950.235 8  10735103.24344  25193321.198    25193320.5644   25193332.9494
        -0.000          -0.000
 -23727685.582 9 -17822043.07749  20506687.304    20506686.8464   20506693.9544
        -0.000          -0.000
 -25309685.122 9 -19698933.72049  20903842.944    20903842.1414   20903849.0664
        -0.000          -0.000
    676397.115 8    548063.78845  24702450.282    24702449.2814   24702459.5404
        -0.000          -0.000
 -12696267.241 9  -9859829.19146  23064668.921    23064668.8234   23064677.0394
        -0.000          -0.000
 -12035817.559 9  -8552845.13946  23185082.880    23185081.7724   23185091.3744
        -0.000          -0.000
 01  1 20  0 15 30.0000000  0  9  4  9  6  2 24  5  7 30 10         -0.000000020
 -16473279.905 9 -12823042.76547  22152216.958    22152216.8104   22152224.0184
        -0.000          -0.000
 -16025180.940 9 -12147093.74048  22133275.082    22133274.6534   22133282.0334
        -0.000          -0.000
  -6808503.185 9  -5063704.03045  24657652.248    24657651.8234   24657664.3964
        -0.000          -0.000
  13854335.564 8  10810987.62544  25211853.341    25211849.1394   25211863.6244
        -0.000          -0.000
 -23699213.209 9 -17799856.80649  20512105.404    20512104.9654   20512112.0584
        -0.000          -0.000
 -25365430.951 9 -19742371.98849  20893234.839    20893234.0454   20893240.9434
        -0.000          -0.000
    736615.042 9    594986.86745  24713909.180    24713908.3774   24713918.5414
        -0.000          -0.000
 -12789148.761 9  -9932204.27746  23046994.124    23046994.0084   23047002.0774
        -0.000          -0.000
 -12128143.391 9  -8624787.23946  23167513.771    23167512.5954   23167522.2144
        -0.000          -0.000
 01  1 20  0 16  0.0000000  0  9  4  9  6  2 24  5  7 30 10         -0.000000020
 -16384994.025 9 -12754248.59947  22169017.250    22169017.0894   22169024.1934
        -0.000          -0.000
 -15954577.296 9 -12092077.93648  22146710.522    22146710.1024   22146717.4684
        -0.000          -0.000
  -6869339.926 9  -5111109.06545  24646075.360    24646074.9074   24646087.3104
        -0.000          -0.000
  13951891.942 8  10887005.62844  25230417.468    25230414.5364   25230427.1494
        -0.000          -0.000
 -23670272.363 9 -17777305.48949  20517612.669    20517612.2034   20517619.3054
        -0.000          -0.000
 -25420854.196 9 -19785558.89849  20882688.119    20882687.3164   20882694.2064
        -0.000          -0.000
    796834.397 8    641911.06245  24725368.903    24725368.0164   24725378.3124
        -0.000          -0.000
 -12881924.162 9 -10004496.65447  23029339.539    23029339.4604   23029347.4394
        -0.000          -0.000
 -12220362.636 9  -8696646.29746  23149964.866    23149963.7444   23149973.2194
        -0.000          -0.000
 01  1 20  0 16 30.0000000  0  9  4  9  6  2 24  5  7 30 10         -0.000000020
 -16296479.505 9 -12685276.27847  22185861.039    22185860.8484   22185868.0404
        -0.000          -0.000
 -15883660.793 9 -12036818.34248  22160205.534    22160205.0894   22160212.4514
        -0.000          -0.000
  -6930142.496 9  -5158487.45845  24634504.877    24634504.4184   24634516.5624
        -0.000          -0.000
  14049615.550 8  10963153.89044  25249013.068    25249011.3304   25249022.7364
        -0.000          -0.000
 -23640867.014 9 -17754392.22449  20523208.278    20523207.8094   20523214.9324
        -0.000          -0.000
 -25475955.468 9 -19828494.91649  20872202.643    20872201.8554   20872208.7424
        -0.000          -0.000
    857052.799 9    688834.40245  24736827.738    24736826.8104   24736837.3364
        -0.000          -0.000
 -12974594.082 9 -10076706.83946  23011704.886    23011704.7494   23011712.7554
        -0.000          -0.000
 -12312474.671 9  -8768421.81046  23132436.535    23132435.4394   23132444.9494
        -0.000          -0.000
 01  1 20  0 17  0.0000000  0  9  4  9  6  2 24  5  7 30 10         -0.000000020
 -16207737.097 9 -12616126.36047  22202748.156    22202747.9874   22202755.1144
        -0.000          -0.000
 -15812432.087 9 -11981315.47448  22173759.868    22173759.4264   22173766.8024
        -0.000          -0.000
  -6990909.016 9  -5205837.74745  24622941.282    24622940.7434   24622952.8014
        -0.000          -0.000
  14147506.912 9  11039432.79245  25267641.138    25267639.8874   25267650.4464
        -0.000          -0.000
 -23610997.161 9 -17731117.00249  20528892.292    20528891.8444   20528898.9604
        -0.000          -0.000
 -25530730.340 9 -19871176.59249  20861779.315    20861778.5214   20861785.3504
        -0.000          -0.000
    917273.182 8    735759.55145  24748287.470    24748286.7374   24748296.3404
        -0.000          -0.000
 -13067154.021 9 -10148831.33946  22994091.051    22994090.9734   22994099.0444
        -0.000          -0.000
 -12404474.257 9  -8840109.71646  23114929.480    23114928.4194   23114937.8124
        -0.000          -0.000
 01  1 20  0 17 30.0000000  0  9  4  9  6  2 24  5  7 30 10         -0.000000020
 -16118769.456 9 -12546800.96147  22219678.147    22219677.9484   22219685.1544
        -0.000          -0.000
 -15740893.943 9 -11925571.48148  22187373.148    22187372.7224   22187380.0814
        -0.000          -0.000
  -7051640.207 9  -5253160.51345  24611384.286    24611383.7444   24611395.8174
        -0.000          -0.000
  14245564.455 8  11115841.20945  25286300.743    25286299.6684   25286310.4864
        -0.000          -0.000
 -23580664.741 9 -17707481.33949  20534664.363    20534663.9184   20534671.0544
        -0.000          -0.000
 -25585176.451 9 -19913602.09649  20851418.590    20851417.7644   20851424.5834
        -0.000          -0.000
    977495.736 8    782686.15745  24759747.058    24759746.2064   24759756.3644
        -0.000          -0.000
 -13159601.820 9 -10220868.43847  22976498.742    22976498.6614   22976506.8114
        -0.000          -0.000
 -12496358.069 9  -8911707.38946  23097444.446    23097443.4334   23097452.7904
        -0.000          -0.000
 01  1 20  0 18  0.0000000  0  9  4  9  6  2 24  5  7 30 10         -0.000000020
 -16029580.488 9 -12477303.09147  22236650.216    22236650.0784   22236657.3034
        -0.000          -0.000
 -15669050.238 9 -11869589.39948  22201044.546    22201044.0974   22201051.4704
        -0.000          -0.000
  -7112337.562 9  -5300456.90845  24599833.757    24599833.3304   24599845.2424
        -0.000          -0.000
  14343785.799 8  11192377.22845  25304991.659    25304990.8334   25305001.9764
        -0.000          -0.000
 -23549872.708 9 -17683487.54149  20540523.897    20540523.4414   20540530.5524
        -0.000          -0.000
 -25639292.924 9 -19955770.74049  20841120.525    20841119.7234   20841126.5084
        -0.000          -0.000
   1037719.796 9    829613.96145  24771207.182    24771206.3504   24771216.7974
        -0.000          -0.000
 -13251936.332 9 -10292817.29546  22958927.963    22958927.8354   22958935.9474
        -0.000          -0.000
 -12588123.761 9  -8983213.04646  23079981.918    23079980.9524   23079990.2714
        -0.000          -0.000
 01  1 20  0 18 30.0000000  0  9  4  9  6  2 24  5  7 30 10         -0.000000020
 -15940172.239 9 -12407634.36047  22253664.004    22253663.9094   22253671.1034
        -0.000          -0.000
 -15596903.281 9 -11813371.01048  22214773.684    22214773.1934   22214780.6274
        -0.000          -0.000
  -7173001.254 8  -5347727.07045  24588289.574    24588289.0624   24588301.1574
        -0.000          -0.000
  14442168.713 9  11269039.07653  25323713.966    25323708.3244          0.0005
        -0.000          -0.000
 -23518622.383 9 -17659136.62849  20546470.618    20546470.1554   20546477.2454
        -0.000          -0.000
 -25693077.192 9 -19997680.51749  20830885.675    20830884.8684   20830891.6574
        -0.000          -0.000
   1097946.350 9    876543.74845  24782668.164    24782667.2864   24782677.5694
        -0.000          -0.000
 -13344155.068 9 -10364675.91146  22941379.096    22941379.0634   22941387.1574
        -0.000          -0.000
 -12679767.822 9  -9054623.90646  23062542.462    23062541.5254   23062550.8094
        -0.000          -0.000
 01  1 20  0 19  0.0000000  0  9  4  9  6  2 24  5  7 30 10         -0.000000020
 -15850547.459 9 -12337796.91047  22270719.015    22270718.9324   22270726.1804
        -0.000          -0.000
 -15524455.836 9 -11756918.48248  22228559.934    22228559.4684   22228566.9254
        -0.000          -0.000
  -7233631.473 8  -5394971.12645  24576751.661    24576751.2304   24576763.3554
        -0.000          -0.000
  14540713.83917  11345826.99944  25342466.372    25342461.1265   25342479.1414
        -0.000          -0.000
 -23486915.371 9 -17634429.85949  20552504.290    20552503.8084   20552510.9084
        -0.000          -0.000
 -25746526.817 9 -20039329.53849  20820714.532    20820713.7204   20820720.5244
        -0.000          -0.000
   1158176.185 8    923476.10345  24794129.656    24794128.6524   24794138.8164
        -0.000          -0.000
 -13436255.608 9 -10436442.46447  22923853.103    22923852.9774   22923860.9824
        -0.000          -0.000
 -12771286.860 9  -9125937.33346  23045127.074    23045125.9214   23045135.2654
        -0.000          -0.000
 01  1 20  0 19 30.0000000  0  9  4  9  6  2 24  5  7 30 10         -0.000000020
 -15760710.014 9 -12267793.74647  22287814.603    22287814.4474   22287821.7424
        -0.000          -0.000
 -15451712.141 9 -11700235.10948  22242402.638    22242402.1654   22242409.6554
        -0.000          -0.000
  -7294230.026 8  -5442190.54345  24565219.828    24565219.5124   24565231.5584
        -0.000          -0.000
  14639418.227 8  11422739.53144  25361248.972    25361245.3924   25361260.9614
        -0.000          -0.000
 -23454755.101 9 -17609369.90049  20558624.182    20558623.7114   20558630.7894
        -0.000          -0.000
 -25799641.152 9 -20080717.28849  20810607.151    20810606.3374   20810613.1274
        -0.000          -0.000
   1218408.351 8    970410.28445  24805590.843    24805589.9204   24805600.3384
        -0.000          -0.000
 -13528237.243 9 -10508116.31846  22906349.347    22906349.2254   22906357.2994
        -0.000          -0.000
 -12862678.894 9  -9197151.80946  23027735.678    23027734.5824   23027743.9694
        -0.000          -0.000
 01  1 20  0 20  0.0000000  0  8  4  9  6 24  5  7 30 10            -0.000000020
 -15670660.295 9 -12197625.14247  22304950.567    22304950.4644   22304957.6174
        -0.000          -0.000
 -15378672.407 9 -11643321.05548  22256301.649    22256301.1734   22256308.6954
        -0.000          -0.000
  -7354794.963 8  -5489383.76645  24553694.553    24553694.1124   24553706.1094
        -0.000          -0.000
 -23422141.045 9 -17583956.33949  20564830.420    20564829.9254   20564837.0084
        -0.000          -0.000
 -25852415.716 9 -20121840.28449  20800564.458    20800563.6694   20800570.4434
        -0.000          -0.000
   1278645.035 8   1017348.08945  24817053.730    24817052.6924   24817062.7234
        -0.000          -0.000
 -13620095.416 9 -10579693.99447  22888869.109    22888869.0964   22888877.1804
        -0.000          -0.000
 -12953938.615 9  -9268263.19546  23010369.375    23010368.2744   23010377.7104
        -0.000          -0.000
 01  1 20  0 20 30.0000000  0  8  4  9  6 24  5  7 30 10            -0.000000020
 -15580402.838 9 -12127294.70447  22322125.970    22322125.9044   22322133.1554
        -0.000          -0.000
 -15305341.498 9 -11586180.11348  22270256.098    22270255.6234   22270263.1104
        -0.000          -0.000
  -7415328.827 9  -5536552.80145  24542175.270    24542174.7264   24542186.6534
        -0.000          -0.000
 -23389077.251 9 -17558192.33449  20571122.247    20571121.7594   20571128.8514
        -0.000          -0.000
 -25904850.144 9 -20162698.23549  20790586.503    20790585.6974   20790592.4834
        -0.000          -0.000
   1338885.612 9   1064288.65445  24828516.904    24828515.6164   24828527.0064
        -0.000          -0.000
 -13711829.659 9 -10651175.10647  22871412.790    22871412.7014   22871420.6104
        -0.000          -0.000
 -13045064.464 9  -9339270.25546  22993028.777    22993027.5484   22993036.9884
        -0.000          -0.000
 01  1 20  0 21  0.0000000  0  8  4  9  6 24  5  7 30 10            -0.000000020
 -15489939.904 9 -12056804.14347  22339340.545    22339340.4364   22339347.7574
        -0.000          -0.000
 -15231721.799 9 -11528814.14348  22284265.456    22284265.0144   22284272.4524
        -0.000          -0.000
  -7475831.456 9  -5583697.51645  24530661.962    24530661.4164   24530672.9954
        -0.000          -0.000
 -23355564.834 9 -17532078.75549  20577499.425    20577498.9344   20577506.0184
        -0.000          -0.000
 -25956941.719 9 -20203289.02949  20780673.762    20780672.9704   20780679.7344
        -0.000          -0.000
   1399130.782 8   1111233.10945  24839981.361    24839979.8624   24839989.9984
        -0.000          -0.000
 -13803437.234 9 -10722557.50046  22853980.049    22853979.9804   22853988.0044
        -0.000          -0.000
 -13136052.598 9  -9410169.99946  22975714.263    22975712.9754   22975722.3554
        -0.000          -0.000
 01  1 20  0 21 30.0000000  0  8  4  9  6 24  5  7 30 10            -0.000000019
 -15399273.180 9 -11986154.76047  22356593.961    22356593.8124   22356600.9934
        -0.000          -0.000
 -15157815.432 9 -11471224.79648  22298329.375    22298328.8984   22298336.3584
        -0.000          -0.000
  -7536302.226 9  -5630817.41945  24519154.766    24519154.2534   24519165.4124
        -0.000          -0.000
 -23321605.354 9 -17505616.81349  20583961.687    20583961.2004   20583968.2964
        -0.000          -0.000
 -26008687.547 9 -20243610.41349  20770826.846    20770826.0464   20770832.7784
        -0.000          -0.000
   1459381.621 9   1158181.74245  24851446.777    24851445.4614   24851456.2134
        -0.000          -0.000
 -13894914.845 9 -10793838.68347  22836572.575    22836572.5194   22836580.3214
        -0.000          -0.000
 -13226898.908 9  -9480959.23346  22958426.609    22958425.4134   22958434.7464
        -0.000          -0.000
 01  1 20  0 22  0.0000000  0  8  4  9  6 24  5  7 30 10            -0.000000019
 -15308406.169 9 -11915349.33347  22373885.367    22373885.2724   22373892.5204
        -0.000          -0.000
 -15083625.860 9 -11413414.77148  22312447.155    22312446.6954   22312454.1854
        -0.000          -0.000
  -7596742.480 9  -5677913.57145  24507653.342    24507652.8454   24507663.7954
        -0.000          -0.000
 -23287201.150 9 -17478808.34049  20590508.547    20590508.0884   20590515.1844
        -0.000          -0.000
 -26060086.085 9 -20283661.17949  20761046.014    20761045.1884   20761051.8994
        -0.000          -0.000
   1519638.356 8   1205135.06745  24862913.208    24862911.6384   24862923.0824
        -0.000          -0.000
 -13986261.623 9 -10865017.80147  22819189.752    22819189.5454   22819197.6544
        -0.000          -0.000
 -13317600.879 9  -9551635.97747  22941166.613    22941165.3624   22941174.7274
        -0.000          -0.000
 01  1 20  0 22 30.0000000  0  8  4  9  6 24  5  7 30 10            -0.000000019
 -15217342.521 9 -11844390.67047  22391214.232    22391214.0954   22391221.3844
        -0.000          -0.000
 -15009157.084 9 -11355387.19248  22326618.097    22326617.6544   22326625.1654
        -0.000          -0.000
  -7657153.893 9  -5724987.22045  24496157.383    24496156.8944   24496167.6674
        -0.000          -0.000
 -23252355.534 9 -17451655.90749  20597139.434    20597138.9974   20597146.0844
        -0.000          -0.000
 -26111136.398 9 -20323440.60249  20751331.408    20751330.6034   20751337.3234
        -0.000          -0.000
   1579899.732 8   1252092.04045  24874380.537    24874379.2454   24874390.3254
        -0.000          -0.000
 -14077476.034 9 -10936093.91147  22801832.061    22801832.0294   22801839.8364
        -0.000          -0.000
 -13408156.172 9  -9622198.44747  22923934.383    22923933.1824   22923942.4364
        -0.000          -0.000
 01  1 20  0 23  0.0000000  0  8  4  9  6 24  5  7 30 10            -0.000000019
 -15126082.576 9 -11773279.04147  22408580.526    22408580.2934   22408587.6004
        -0.000          -0.000
 -14934409.535 9 -11297142.38048  22340842.086    22340841.6574   22340849.1524
        -0.000          -0.000
  -7717534.473 9  -5772036.86845  24484667.108    24484666.5884   24484677.5954
        -0.000          -0.000
 -23217067.556 9 -17424158.77849  20603854.540    20603854.0694   20603861.1194
        -0.000          -0.000
 -26161834.011 9 -20362945.19649  20741683.934    20741683.1124   20741689.8334
        -0.000          -0.000
   1640169.246 9   1299055.28545  24885849.531    24885848.1074   24885858.7094
        -0.000          -0.000
 -14168553.612 9 -11007063.33347  22784500.618    22784500.4394   22784508.2924
        -0.000          -0.000
 -13498559.315 9  -9692642.34347  22906731.071    22906729.9414   22906739.2394
        -0.000          -0.000
 01  1 20  0 23 30.0000000  0  8  4  9  6 24  5  7 30 10            -0.000000019
 -15034630.255 9 -11702017.50247  22425983.337    22425983.1454   22425990.3984
        -0.000          -0.000
 -14859387.260 9 -11238683.49648  22355118.441    22355117.9644   22355125.4904
        -0.000          -0.000
  -7777886.272 8  -5819064.06045  24473182.180    24473181.6704   24473192.8894
        -0.000          -0.000
 -23181340.925 9 -17396319.83749  20610653.120    20610652.6324   20610659.7054
        -0.000          -0.000
 -26212178.054 9 -20402174.28249  20732103.736    20732102.9244   20732109.6394
        -0.000          -0.000
   1700445.569 8   1346024.10245  24897320.006    24897318.7254   24897328.1974
        -0.000          -0.000
 -14259493.135 9 -11077925.11647  22767194.971    22767194.9694   22767203.1144
        -0.000          -0.000
 -13588808.518 9  -9762966.26547  22889557.105    22889556.0114   22889565.3364
        -0.000          -0.000
 01  1 20  0 24  0.0000000  0  8  4  9  6 24  5  7 30 10            -0.000000019
 -14942987.302 9 -11630607.44147  22443422.434    22443422.2424   22443429.5184
        -0.000          -0.000
 -14784092.345 9 -11180012.16748  22369446.613    22369446.1154   22369453.6904
        -0.000          -0.000
  -7838208.672 8  -5866068.34145  24461702.730    24461702.2664   24461713.9104
        -0.000          -0.000
 -23145176.823 9 -17368140.01749  20617534.905    20617534.4284   20617541.4924
        -0.000          -0.000
 -26262165.476 9 -20441125.48049  20722591.423    20722590.6194   20722597.3164
        -0.000          -0.000
   1760730.505 9   1392999.06945  24908791.420    24908790.3724   24908801.5764
        -0.000          -0.000
 -14350291.562 9 -11148677.14247  22749916.916    22749916.7404   22749924.2504
        -0.000          -0.000
 -13678899.634 9  -9833166.99947  22872413.256    22872412.1884   22872421.4124
        -0.000          -0.000
 01  1 20  0 24 30.0000000  0  8  4  9  6 24  5  7 30 10            -0.000000020
 -14851158.166 9 -11559052.28047  22460896.979    22460896.7254   22460904.0304
        -0.000          -0.000
 -14708529.404 9 -11121131.99148  22383825.787    22383825.2604   22383832.8654
        -0.000          -0.000
  -7898504.058 9  -5913051.58545  24450228.623    24450228.3004   24450240.0064
        -0.000          -0.000
 -23108578.985 9 -17339622.21649  20624499.215    20624498.7574   20624505.8134
        -0.000          -0.000
 -26311796.115 9 -20479798.66949  20713147.000    20713146.2074   20713152.8884
        -0.000          -0.000
   1821022.019 8   1439979.11054  24920264.929    24920264.0304          0.0005
        -0.000          -0.000
 -14440948.624 9 -11219318.83247  22732665.148    22732664.9744   22732672.9164
        -0.000          -0.000
 -13768831.032 9  -9903243.27147  22855299.768    22855298.7764   22855307.8764
        -0.000          -0.000
 01  1 20  0 25  0.0000000  0  8  4  9  6 24  5  7 30 10            -0.000000019
 -14759144.201 9 -11487353.09847  22478406.751    22478406.5234   22478413.7244
        -0.000          -0.000
 -14632699.965 9 -11062044.14948  22398255.630    22398255.1504   22398262.7434
        -0.000          -0.000
  -7958771.302 9  -5960012.93945  24438760.195    24438759.8684   24438771.3924
        -0.000          -0.000
 -23071548.314 9 -17310767.14249  20631545.896    20631545.4284   20631552.5154
        -0.000          -0.000
 -26361066.418 9 -20518191.07349  20703771.145    20703770.3284   20703777.0124
        -0.000          -0.000
   1881322.822 9   1486966.13045  24931739.275    24931738.7364   24931753.2294
        -0.000          -0.000
 -14531460.570 9 -11289847.48447  22715441.275    22715441.1574   22715449.2754
        -0.000          -0.000
 -13858597.934 9  -9973191.35747  22838217.660    22838216.6114   22838225.6564
        -0.000          -0.000
 01  1 20  0 25 30.0000000  0  8  4  9  6 24  5  7 30 10            -0.000000019
 -14666948.273 9 -11415512.13447  22495950.962    22495950.8374   22495958.0114
        -0.000          -0.000
 -14556607.272 9 -11002751.17048  22412735.612    22412735.1364   22412742.7124
        -0.000          -0.000
  -8019011.476 9  -6006953.19946  24427297.000    24427296.6254   24427307.8334
        -0.000          -0.000
 -23034086.909 9 -17281576.43149  20638674.548    20638674.0734   20638681.1774
        -0.000          -0.000
 -26409974.749 9 -20556301.42649  20694464.204    20694463.4014   20694470.0254
        -0.000          -0.000
   1941632.314 8   1533960.59845  24943215.856    24943214.9974   24943228.1884
        -0.000          -0.000
 -14621825.679 9 -11360261.77447  22698245.147    22698245.0034   22698252.8874
        -0.000          -0.000
 -13948197.700 9 -10043009.20047  22821167.322    22821166.2354   22821175.2474
        -0.000          -0.000
 01  1 20  0 26  0.0000000  0  8  4  9  6 24  5  7 30 10            -0.000000018
 -14574572.899 9 -11343531.34047  22513529.497    22513529.2884   22513536.4464
        -0.000          -0.000
 -14480254.148 9 -10943255.26248  22427265.177    22427264.7184   22427272.2574
        -0.000          -0.000
  -8079224.781 9  -6053872.54246  24415838.903    24415838.4964   24415849.4634
        -0.000          -0.000
 -22996196.636 9 -17252051.53849  20645884.848    20645884.3824   20645891.4484
        -0.000          -0.000
 -26458518.687 9 -20594127.83449  20685226.532    20685225.7264   20685232.3654
        -0.000          -0.000
   2001951.476 9   1580962.83245  24954694.322    24954692.8024   24954705.3684
        -0.000          -0.000
 -14712041.009 9 -11430559.34547  22681077.722    22681077.6674   22681085.4454
        -0.000          -0.000
 -14037626.736 9 -10112694.01447  22804149.464    22804148.3874   22804157.3914
        -0.000          -0.000
 01  1 20  0 26 30.0000000  0  8  4  9  6 24  5  7 30 10            -0.000000018
 -14482021.719 9 -11271413.55247  22531141.326    22531141.1464   22531148.3464
        -0.000          -0.000
 -14403644.309 9 -10883559.31648  22441843.563    22441843.0964   22441850.6284
        -0.000          -0.000
  -8139412.629 9  -6100772.03446  24404385.569    24404385.1154   24404395.7564
        -0.000          -0.000
 -22957880.993 9 -17222195.18849  20653176.063    20653175.5944   20653182.6584
        -0.000          -0.000
 -26506697.122 9 -20631669.43549  20676058.471    20676057.6534   20676064.2934
        -0.000          -0.000
   2062279.908 8   1627972.05045  24966174.397    24966173.2584   24966185.0104
        -0.000          -0.000
 -14802105.669 9 -11500739.43447  22663938.879    22663938.7734   22663946.8064
        -0.000          -0.000
 -14126882.694 9 -10182243.96647  22787164.597    22787163.4554   22787172.4044
        -0.000          -0.000
 01  1 20  0 27  0.0000000  0  8  4  9  6 24  5  7 30 10            -0.000000018
 -14389295.089 9 -11199159.04747  22548786.662    22548786.4604   22548793.6644
        -0.000          -0.000
 -14326778.621 9 -10823664.00547  22456470.620    22456470.1694   22456477.7564
        -0.000          -0.000
  -8199573.324 9  -6147650.36546  24392937.304    24392936.9214   24392947.4544
        -0.000          -0.000
 -22919139.783 9 -17192007.21849  20660548.292    20660547.8204   20660554.8524
        -0.000          -0.000
 -26554505.897 9 -20668922.99249  20666960.721    20666959.9124   20666966.5174
        -0.000          -0.000
   2122619.929 9   1674990.22445  24977656.744    24977655.6984   24977667.3754
        -0.000          -0.000
 -14892015.016 9 -11570798.64047  22646829.598    22646829.5864   22646837.0504
        -0.000          -0.000
 -14215960.327 9 -10251654.97047  22770213.575    22770212.4504   22770221.2944
        -0.000          -0.000
 01  1 20  0 27 30.0000000  0  8  4  9  6 24  5  7 30 10            -0.000000018
 -14296397.510 9 -11126771.35447  22566464.410    22566464.2024   22566471.5004
        -0.000          -0.000
 -14249662.107 9 -10763573.24848  22471145.470    22471145.0104   22471152.5884
        -0.000          -0.000
  -8259709.372 9  -6194509.45646  24381493.510    24381493.1544   24381503.7554
        -0.000          -0.000
 -22879976.628 9 -17161490.46349  20668000.756    20668000.3114   20668007.3514
        -0.000          -0.000
 -26601944.911 9 -20705888.41749  20657933.300    20657932.5114   20657939.1684
        -0.000          -0.000
   2182970.188 7   1722016.45345  24989141.143    24989140.0414   24989151.1944
        -0.000          -0.000
 -14981768.693 9 -11640736.42747  22629749.957    22629749.8614   22629757.6004
        -0.000          -0.000
 -14304858.357 9 -10320926.00847  22753296.730    22753295.6314   22753304.3924
        -0.000          -0.000
 01  1 20  0 28  0.0000000  0  8  4  9  6 24  5  7 30 10            -0.000000019
 -14203330.321 9 -11054251.47947  22584174.393    22584174.3414   22584181.4994
        -0.000          -0.000
 -14172296.223 9 -10703288.17047  22485867.780    22485867.2984   22485874.8334
        -0.000          -0.000
  -8319819.609 9  -6241348.43346  24370054.619    24370054.2034   24370065.0194
        -0.000          -0.000
 -22840392.282 9 -17130645.50649  20675533.405    20675532.9564   20675539.9914
        -0.000          -0.000
 -26649010.565 9 -20742562.91649  20648976.963    20648976.1614   20648982.8054
        -0.000          -0.000
   2243333.036 9   1769052.36745  25000627.539    25000626.6154   25000637.3154
        -0.000          -0.000
 -15071362.891 9 -11710549.94947  22612700.550    22612700.6234   22612708.5084
        -0.000          -0.000
 -14393571.866 9 -10390053.28447  22736414.963    22736413.8694   22736422.6244
        -0.000          -0.000
 01  1 20  0 28 30.0000000  0  8  4  9  6 24  5  7 30 10            -0.000000018
 -14110096.650 9 -10981601.88447  22601916.344    22601916.1894   22601923.3434
        -0.000          -0.000
 -14094684.296 9 -10642811.37247  22500636.880    22500636.4044   22500643.8724
        -0.000          -0.000
  -8379905.190 9  -6288168.20046  24358620.436    24358620.1294   24358631.1654
        -0.000          -0.000
 -22800389.521 9 -17099474.51449  20683145.665    20683145.1874   20683152.2304
        -0.000          -0.000
 -26695701.488 9 -20778945.41849  20640091.961    20640091.1624   20640097.8004
        -0.000          -0.000
   2303707.641 8   1816097.71745  25012116.790    25012115.7334   25012126.1784
        -0.000          -0.000
 -15160796.340 9 -11780238.34847  22595682.124    22595682.0354   22595689.3904
        -0.000          -0.000
 -14482098.227 9 -10459034.74647  22719568.845    22719567.7514   22719576.4604
        -0.000          -0.000
 01  1 20  0 29  0.0000000  0  8  4  9  6 24  5  7 30 10            -0.000000018
 -14016699.389 9 -10908824.83447  22619689.144    22619689.0554   22619696.2384
        -0.000          -0.000
 -14016829.454 9 -10582145.29347  22515452.232    22515451.7374   22515459.1784
        -0.000          -0.000
  -8439966.800 9  -6334969.26946  24347191.007    24347190.6704   24347201.7904
        -0.000          -0.000
 -22759971.096 9 -17067979.62249  20690837.057    20690836.5824   20690843.6114
        -0.000          -0.000
 -26742015.943 9 -20815034.56549  20631278.569    20631277.7744   20631284.4154
        -0.000          -0.000
   2364094.829 8   1863152.53545  25023607.860    25023606.8794   25023617.9454
        -0.000          -0.000
 -15250066.728 9 -11849799.53347  22578694.309    22578694.3154   22578701.9854
        -0.000          -0.000
 -14570434.434 9 -10527868.03147  22702758.875    22702757.7774   22702766.4554
        -0.000          -0.000
 01  1 20  0 29 30.0000000  0  8  4  9  6 24  5  7 30 10            -0.000000018
 -13923141.170 9 -10835922.34047  22637492.784    22637492.6704   22637499.8234
        -0.000          -0.000
 -13938734.674 9 -10521292.24547  22530313.163    22530312.6894   22530320.0974
        -0.000          -0.000
  -8500004.953 9  -6381752.04846  24335766.149    24335765.8694   24335776.9094
        -0.000          -0.000
 -22719139.038 9 -17036162.42249  20698607.115    20698606.6634   20698613.6564
        -0.000          -0.000
 -26787951.729 9 -20850828.65149  20622537.265    20622536.4554   20622543.0904
        -0.000          -0.000
   2424494.718 9   1910217.38145  25035101.598    25035100.5694   25035111.4084
        -0.000          -0.000
 -15339171.527 9 -11919231.74047  22561738.308    22561738.1954   22561745.9074
        -0.000          -0.000
 -14658577.219 9 -10596550.60347  22685985.651    22685984.5904   22685993.3314
        -0.000          -0.000
 01  1 20  0 30  0.0000000  0  8  4  9  6 24  5  7 30 10            -0.000000017
 -13829423.860 9 -10762895.89647  22655326.593    22655326.4744   22655333.5344
        -0.000          -0.000
 -13860402.418 9 -10460254.15147  22545219.320    22545218.8304   22545226.2534
        -0.000          -0.000
  -8560019.614 9  -6428516.51746  24324345.808    24324345.4064   24324356.4624
        -0.000          -0.000
 -22677894.852 9 -17004024.08549  20706455.629    20706455.1594   20706462.1704
        -0.000          -0.000
 -26833506.185 9 -20886325.59649  20613868.551    20613867.7064   20613874.3204
        -0.000          -0.000
   2484908.297 8   1957293.16745  25046598.060    25046597.1634   25046607.2104
        -0.000          -0.000
 -15428108.061 9 -11988532.87347  22544813.910    22544813.8604   22544821.4044
        -0.000          -0.000
 -14746522.919 9 -10665079.61447  22669250.016    22669248.9564   22669257.6384
        -0.000          -0.000
 01  1 20  0 30 30.0000000  0  8  4  9  6 24  5  7 30 10            -0.000000017
 -13735550.798 9 -10689748.07347  22673190.115    22673189.9484   22673197.0064
        -0.000          -0.000
 -13781836.432 9 -10399033.94147  22560169.903    22560169.4304   22560176.8974
        -0.000          -0.000
  -8620011.930 9  -6475263.59246  24312929.527    24312929.1494   24312940.0814
        -0.000          -0.000
 -22636241.363 9 -16971566.80849  20714382.015    20714381.5224   20714388.5144
        -0.000          -0.000
 -26878678.058 9 -20921524.42549  20605272.613    20605271.7674   20605278.3884
        -0.000          -0.000
   2545335.742 8   2004379.47545  25058096.893    25058095.8914   25058106.4154
        -0.000          -0.000
 -15516874.609 9 -12057701.50747  22527922.343    22527922.2244   22527929.8304
        -0.000          -0.000
 -14834268.741 9 -10733452.87947  22652552.386    22652551.3554   22652559.9574
        -0.000          -0.000
 01  1 20  0 31  0.0000000  0  8  4  9  6 24  5  7 30 10            -0.000000017
 -13641523.754 9 -10616480.28247  22691082.779    22691082.6894   22691089.8324
        -0.000          -0.000
 -13703038.638 9 -10337633.09547  22575164.644    22575164.1794   22575171.6564
        -0.000          -0.000
  -8679981.774 9  -6521993.15146  24301517.523    24301517.0614   24301527.8194
        -0.000          -0.000
 -22594179.983 9 -16938791.69949  20722386.018    20722385.5314   20722392.5384
        -0.000          -0.000
 -26923464.736 9 -20956423.10649  20596749.924    20596749.0874   20596755.6734
        -0.000          -0.000
   2605777.902 8   2051477.27545  25069598.456    25069597.4394   25069608.1224
        -0.000          -0.000
 -15605468.255 9 -12126735.40247  22511063.255    22511063.2354   22511070.8404
        -0.000          -0.000
 -14921810.717 9 -10801667.31147  22635893.569    22635892.5684   22635901.2044
        -0.000          -0.000
 01  1 20  0 31 30.0000000  0  8  4  9  6 24  5  7 30 10            -0.000000016
 -13547345.095 9 -10543094.33747  22709004.492    22709004.3544   22709011.4864
        -0.000          -0.000
 -13624011.605 9 -10276053.62247  22590203.012    22590202.5384   22590210.0294
        -0.000          -0.000
  -8739929.168 8  -6568705.21345  24290109.553    24290109.2084   24290119.7054
        -0.000          -0.000
 -22551712.670 9 -16905700.27749  20730467.262    20730466.7774   20730473.7894
        -0.000          -0.000
 -26967863.653 9 -20991019.63549  20588301.069    20588300.2464   20588306.8414
        -0.000          -0.000
   2666235.781 8   2098587.37845  25081103.123    25081102.1044   25081112.6054
        -0.000          -0.000
 -15693885.927 9 -12195632.25047  22494238.081    22494237.9734   22494245.2134
        -0.000          -0.000
 -15009145.323 9 -10869720.16347  22619274.347    22619273.3134   22619281.9164
        -0.000          -0.000
 01  1 20  0 32  0.0000000  0  8  4  9  6 24  5  7 30 10            -0.000000018
 -13453019.751 9 -10469594.09147  22726953.939    22726953.8374   22726961.0054
        -0.000          -0.000
 -13544761.005 9 -10214299.93347  22605283.931    22605283.4484   22605290.9584
        -0.000          -0.000
  -8799856.904 9  -6615401.97845  24278705.365    24278704.9534   24278715.3714
        -0.000          -0.000
 -22508844.054 9 -16872296.15249  20738624.874    20738624.3994   20738631.4104
        -0.000          -0.000
 -27011875.232 9 -21025314.34149  20579925.896    20579925.0744   20579931.6684
        -0.000          -0.000
   2726707.303 8   2145708.11645  25092610.341    25092609.4474   25092619.5214
        -0.000          -0.000
 -15782128.125 9 -12264392.24447  22477445.828    22477445.8184   22477453.3954
        -0.000          -0.000
 -15096271.811 9 -10937610.86447  22602694.572    22602693.6114   22602702.1454
        -0.000          -0.000
 01  1 20  0 32 30.0000000  0  8  4  9  6 24  5  7 30 10            -0.000000017
 -13358546.871 9 -10395978.87547  22744931.552    22744931.4614   22744938.4694
        -0.000          -0.000
 -13465286.275 9 -10152371.61247  22620407.455    22620406.9884   22620414.5424
        -0.000          -0.000
  -8859762.202 9  -6662081.23445  24267305.552    24267305.1044   24267315.4064
        -0.000          -0.000
 -22465572.901 9 -16838578.36949  20746859.068    20746858.6194   20746865.6254
        -0.000          -0.000
 -27055494.061 9 -21059303.00949  20571625.496    20571624.6714   20571631.2854
        -0.000          -0.000
   2787196.578 7   2192842.69554  25104121.022    25104120.1324          0.0005
        -0.000          -0.000
 -15870188.946 9 -12333011.02047  22460688.568    22460688.4894   22460695.7864
        -0.000          -0.000
 -15183183.219 9 -11005333.96647  22586155.877    22586154.8704   22586163.3624
        -0.000          -0.000
 01  1 20  0 33  0.0000000  0  8  4  9  6 24  5  7 30 10            -0.000000017
 -13263930.929 9 -10322252.20947  22762936.618    22762936.4574   22762943.5214
        -0.000          -0.000
 -13385592.094 9 -10090272.28847  22635572.800    22635572.3194   22635579.9084
        -0.000          -0.000
  -8919647.224 9  -6708744.70745  24255909.595    24255909.2144   24255919.5574
        -0.000          -0.000
 -22421903.119 9 -16804549.96149  20755169.167    20755168.6964   20755175.6994
        -0.000          -0.000
 -27098720.170 9 -21092985.66149  20563399.817    20563398.9854   20563405.5844
        -0.000          -0.000
   2847702.04217   2239989.88454         0.000           0.0005          0.0005
        -0.000          -0.000
 -15958068.105 9 -12401488.16347  22443965.461    22443965.3564   22443972.7984
        -0.000          -0.000
 -15269878.665 9 -11072888.77547  22569658.200    22569657.1914   22569665.6964
        -0.000          -0.000
 01  1 20  0 33 30.0000000  0  8  4  9  6 24  5  7 30 10            -0.000000017
 -13169173.852 9 -10248415.54247  22780968.247    22780968.0844   22780975.1484
        -0.000          -0.000
 -13305681.230 9 -10028004.11647  22650779.301    22650778.8624   22650786.4594
        -0.000          -0.000
  -8979511.968 9  -6755392.37846  24244517.742    24244517.2604   24244527.6114
        -0.000          -0.000
 -22377836.490 9 -16770212.32149  20763554.725    20763554.2714   20763561.2754
        -0.000          -0.000
 -27141551.010 9 -21126360.30849  20555249.326    20555248.5184   20555255.0934
        -0.000          -0.000
   2908225.65416   2287151.26353         0.000           0.0005          0.0005
        -0.000          -0.000
 -16045762.455 9 -12469821.31947  22427277.741    22427277.6984   22427285.1894
        -0.000          -0.000
 -15356354.034 9 -11140272.10947  22553202.441    22553201.4044   22553209.9114
        -0.000          -0.000
 01  1 20  0 34  0.0000000  0  8  4  9  6 24  5  7 30 10            -0.000000016
 -13074278.284 9 -10174470.97747  22799026.098    22799026.0034   22799033.2064
        -0.000          -0.000
 -13225556.554 9  -9965569.33847  22666026.615    22666026.1064   22666033.6754
        -0.000          -0.000
  -9039356.857 9  -6802024.58746  24233129.682    24233129.2034   24233139.4244
        -0.000          -0.000
 -22333375.543 9 -16735567.42749  20772015.361    20772014.8934   20772021.8984
        -0.000          -0.000
 -27183984.650 9 -21159425.45449  20547174.428    20547173.6184   20547180.1944
        -0.000          -0.000
   2968766.39416  20405175.96242         0.000           0.0005          0.0004
        -0.000          -0.000
 -16133269.929 9 -12538008.88047  22410625.617    22410625.5274   22410632.8574
        -0.000          -0.000
 -15442606.085 9 -11207481.43347  22536789.214    22536788.1464   22536796.6114
        -0.000          -0.000
 01  1 20  0 34 30.0000000  0  7  4  9  6 24  5 30 10               -0.000000016
 -12979247.044 9 -10100420.65447  22817110.080    22817110.0144   22817117.0434
        -0.000          -0.000
 -13145221.229 9  -9902970.42047  22681313.898    22681313.4334   22681321.0034
        -0.000          -0.000
  -9099182.808 9  -6848642.03046  24221745.178    24221744.7554   24221754.8944
        -0.000          -0.000
 -22288522.738 9 -16700617.17949  20780550.572    20780550.0854   20780557.0844
        -0.000          -0.000
 -27226019.582 9 -21192179.91249  20539175.443    20539174.6154   20539181.1774
        -0.000          -0.000
 -16220588.310 9 -12606049.08547  22394009.340    22394009.3104   22394016.5764
        -0.000          -0.000
 -15528632.045 9 -11274514.57747  22520418.922    22520417.8794   22520426.3544
        -0.000          -0.000
 01  1 20  0 35  0.0000000  0  7  4  9  6 24  5 30 10               -0.000000016
 -12884081.890 9 -10026266.04247  22835219.392    22835219.2674   22835226.5114
        -0.000          -0.000
 -13064677.424 9  -9840209.04347  22696640.893    22696640.4134   22696647.9734
        -0.000          -0.000
  -9158989.620 9  -6895244.57646  24210364.267    24210363.7144   24210374.0164
        -0.000          -0.000
 -22243279.891 9 -16665363.00749  20789159.954    20789159.4744   20789166.4934
        -0.000          -0.000
 -27267653.007 9 -21224621.51149  20531252.864    20531252.0204   20531258.5874
        -0.000          -0.000
 -16307714.579 9 -12673939.58347  22377429.769    22377429.6884   22377436.9644
        -0.000          -0.000
 -15614427.813 9 -11341368.34547  22504092.446    22504091.4124   22504099.8714
        -0.000          -0.000
 01  1 20  0 35 30.0000000  0  7  4  9  6 24  5 30 10               -0.000000016
 -12788785.720 9  -9952009.31847  22853353.602    22853353.4634   22853360.7534
        -0.000          -0.000
 -12983928.469 9  -9777287.81147  22712006.930    22712006.4454   22712013.9494
        -0.000          -0.000
  -9218777.863 9  -6941832.67246  24198986.745    24198986.2014   24198996.5344
        -0.000          -0.000
 -22197648.841 9 -16629806.33049  20797843.270    20797842.8034   20797849.8034
        -0.000          -0.000
 -27308883.062 9 -21256748.79249  20523407.034    20523406.1924   20523412.7244
        -0.000          -0.000
 -16394646.443 9 -12741678.61147  22360886.999    22360887.0004   22360894.2344
        -0.000          -0.000
 -15699990.489 9 -11408040.48847  22487810.376    22487809.3334   22487817.7444
        -0.000          -0.000
 01  1 20  0 36  0.0000000  0  7  4  9  6 24  5 30 10               -0.000000016
 -12693360.538 9  -9877652.05447  22871512.353    22871512.2314   22871519.5334
        -0.000          -0.000
 -12902976.887 9  -9714208.68847  22727411.562    22727411.0514   22727418.5714
        -0.000          -0.000
  -9278547.682 9  -6988406.41746  24187612.751    24187612.2854   24187622.5214
        -0.000          -0.000
 -22151631.623 9 -16593948.74949  20806600.090    20806599.6014   20806606.5954
        -0.000          -0.000
 -27349707.685 9 -21288560.15549  20515638.357    20515637.5104   20515644.0524
        -0.000          -0.000
 -16481381.009 9 -12809263.89547  22344381.936    22344381.8874   22344389.0774
        -0.000          -0.000
 -15785316.136 9 -11474527.92847  22471573.421    22471572.3644   22471580.7494
        -0.000          -0.000
 01  1 20  0 36 30.0000000  0  7  4  9  6 24  5 30 10               -0.000000016
 -12597809.661 9  -9803196.84347  22889695.124    22889694.9654   22889702.3384
        -0.000          -0.000
 -12821826.668 9  -9650974.78747  22742853.977    22742853.4604   22742860.9654
        -0.000          -0.000
  -9338300.012 9  -7034966.55446  24176242.019    24176241.5574   24176251.7644
        -0.000          -0.000
 -22105231.359 9 -16557792.68649  20815429.753    20815429.2684   20815436.2674
        -0.000          -0.000
 -27390125.722 9 -21320054.69649  20507947.038    20507946.1844   20507952.7004
        -0.000          -0.000
 -16567916.839 9 -12876694.31047  22327914.622    22327914.6064   22327921.8414
        -0.000          -0.000
 -15870402.569 9 -11540828.95547  22455381.901    22455380.8634   22455389.2524
        -0.000          -0.000
 01  1 20  0 37  0.0000000  0  7  4  9  6 24  5 30 10               -0.000000016
 -12502134.662 9  -9728644.93747  22907901.433    22907901.3004   22907908.7854
        -0.000          -0.000
 -12740479.925 9  -9587587.74347  22758333.783    22758333.2344   22758340.8054
        -0.000          -0.000
  -9398034.594 9  -7081512.83346  24164874.781    24164874.3154   24164884.4544
        -0.000          -0.000
 -22058449.774 9 -16521339.49249  20824331.963    20824331.4954   20824338.4734
        -0.000          -0.000
 -27430134.418 9 -21351230.27149  20500333.630    20500332.7654   20500339.2754
        -0.000          -0.000
 -16654250.905 9 -12943967.53847  22311485.828    22311485.7104   22311492.8204
        -0.000          -0.000
 -15955245.873 9 -11606940.52347  22439236.712    22439235.6414   22439243.9874
        -0.000          -0.000
 01  1 20  0 37 30.0000000  0  7  4  9  6 24  5 30 10               -0.000000015
 -12406338.702 9  -9653998.76247  22926130.927    22926130.7704   22926138.2034
        -0.000          -0.000
 -12658940.103 9  -9524050.24947  22773850.267    22773849.7424   22773857.3724
        -0.000          -0.000
  -9457752.442 9  -7128046.09646  24153510.794    24153510.2734   24153520.4414
        -0.000          -0.000
 -22011289.804 9 -16484591.45549  20833306.214    20833305.7234   20833312.7014
        -0.000          -0.000
 -27469732.376 9 -21382085.78749  20492798.362    20492797.5024   20492803.9934
        -0.000          -0.000
 -16740381.360 9 -13011082.06347  22295095.534    22295095.5464   22295102.7484
        -0.000          -0.000
 -16039843.151 9 -11672860.39147  22423138.357    22423137.2854   22423145.6154
        -0.000          -0.000
 01  1 20  0 38  0.0000000  0  7  4  9  6 24  5 30 10               -0.000000015
 -12310424.520 9  -9579260.43647  22944382.856    22944382.6454   22944390.0104
        -0.000          -0.000
 -12577210.573 9  -9460364.93347  22789402.816    22789402.3354   22789410.0034
        -0.000          -0.000
  -9517454.625 9  -7174567.15146  24142149.778    24142149.2584   24142159.4154
        -0.000          -0.000
 -21963753.853 9 -16447550.44549  20842352.033    20842351.5304   20842358.4694
        -0.000          -0.000
 -27508918.074 9 -21412620.06549  20485341.520    20485340.6644   20485347.1444
        -0.000          -0.000
 -16826305.968 9 -13078036.23647  22278744.728    22278744.6374   22278751.6684
        -0.000          -0.000
 -16124191.833 9 -11738586.53047  22407087.294    22407086.2074   22407094.4974
        -0.000          -0.000
 01  1 20  0 38 30.0000000  0  7  4  9  6 24  5 30 10               -0.000000015
 -12214393.483 9  -9504431.08146  22962656.869    22962656.6834   22962664.1094
        -0.000          -0.000
 -12495292.939 9  -9396533.03047  22804991.235    22804990.7534   22804998.4514
        -0.000          -0.000
  -9577140.178 9  -7221075.23646  24130791.829    24130791.2614   24130801.5144
        -0.000          -0.000
 -21915843.128 9 -16410217.39949  20851469.110    20851468.6094   20851475.5374
        -0.000          -0.000
 -27547688.363 9 -21442830.64749  20477963.751    20477962.9014   20477969.3874
        -0.000          -0.000
 -16912021.209 9 -13144827.23847  22262433.423    22262433.4384   22262440.5034
        -0.000          -0.000
 -16208287.091 9 -11804115.20147  22391084.430    22391083.3164   22391091.5984
        -0.000          -0.000
 01  1 20  0 39  0.0000000  0  7  4  9  6 24  5 30 10               -0.000000014
 -12118247.745 9  -9429512.33147  22980952.931    22980952.7374   22980960.0564
        -0.000          -0.000
 -12413189.737 9  -9332556.53947  22820615.017    22820614.5174   22820622.1964
        -0.000          -0.000
  -9636809.267 9  -7267570.51546  24119437.061    24119436.5724   24119446.7564
        -0.000          -0.000
 -21867559.399 9 -16372593.70549  20860657.198    20860656.6884   20860663.6424
        -0.000          -0.000
 -27586040.968 9 -21472715.76149  20470665.453    20470664.6244   20470671.0804
        -0.000          -0.000
 -16997524.433 9 -13211453.02747  22246162.776    22246162.6534   22246169.7934
        -0.000          -0.000
 -16292125.338 9 -11869443.59947  22375130.407    22375129.3304   22375137.6344
        -0.000          -0.000
 01  1 20  0 39 30.0000000  0  7  4  9  6 24  5 30 10               -0.000000015
 -12021992.497 9  -9354508.29647  22999269.573    22999269.3574   22999276.9694
        -0.000          -0.000
 -12330906.830 9  -9268440.02347  22836272.953    22836272.4674   22836280.1734
        -0.000          -0.000
  -9696465.112 9  -7314055.47346  24108084.843    24108084.3814   24108094.4184
        -0.000          -0.000
 -21818907.603 9 -16334683.20449  20869915.265    20869914.7794   20869921.7484
        -0.000          -0.000
 -27623976.691 9 -21502276.03449  20463446.518    20463445.6914   20463452.1274
        -0.000          -0.000
 -17082816.049 9 -13277913.95547  22229932.123    22229932.1384   22229939.0904
        -0.000          -0.000
 -16375706.474 9 -11934571.65647  22359225.401    22359224.3014   22359232.6104
        -0.000          -0.000
 01  1 20  0 40  0.0000000  0  7  4  9  6 24  5 30 10               -0.000000015
 -11925626.667 9  -9279418.04846  23017607.378    23017607.2324   23017614.7274
        -0.000          -0.000
 -12248443.775 9  -9204183.14147  22851965.119    22851964.6544   22851972.4014
        -0.000          -0.000
  -9756104.531 9  -7360527.62146  24096735.693    24096735.1984   24096745.2434
        -0.000          -0.000
 -21769887.024 9 -16296485.34549  20879243.547    20879243.0614   20879250.0534
        -0.000          -0.000
 -27661490.288 9 -21531507.37649  20456307.905    20456307.0734   20456313.4864
        -0.000          -0.000
 -17167889.802 9 -13344205.09147  22213743.158    22213743.0464   22213750.0984
        -0.000          -0.000
 -16459023.143 9 -11999493.64647  22343370.699    22343369.5774   22343377.8554
        -0.000          -0.000
 01  1 20  0 40 30.0000000  0  7  4  9  6 24  5 30 10               -0.000000015
 -11829153.996 9  -9204244.52746  23035965.586    23035965.4334   23035972.7724
        -0.000          -0.000
 -12165804.943 9  -9139789.27747  22867690.811    22867690.3274   22867698.0694
        -0.000          -0.000
  -9815729.193 9  -7406988.26246  24085389.277    24085388.8134   24085398.8054
        -0.000          -0.000
 -21720501.214 9 -16258002.88849  20888641.323    20888640.8654   20888647.8394
        -0.000          -0.000
 -27698581.241 9 -21560409.38349  20449249.697    20449248.8704   20449255.2844
        -0.000          -0.000
 -17252744.773 9 -13410325.76447  22197595.602    22197595.5444   22197602.6364
        -0.000          -0.000
 -16542074.060 9 -12064208.55647  22327566.597    22327565.4494   22327573.7274
        -0.000          -0.000
 01  1 20  0 41  0.0000000  0  7  4  9  6 24  5 30 10               -0.000000015
 -11732577.232 9  -9128989.93047  23054343.553    23054343.4304   23054350.8644
        -0.000          -0.000
 -12082993.698 9  -9075261.07547  22883449.252    22883448.7984   22883456.5674
        -0.000          -0.000
  -9875339.962 9  -7453438.06746  24074045.549    24074045.1354   24074055.0484
        -0.000          -0.000
 -21670752.780 9 -16219237.87449  20898108.138    20898107.6914   20898114.6484
        -0.000          -0.000
 -27735248.250 9 -21588981.04349  20442272.152    20442271.3304   20442277.7424
        -0.000          -0.000
 -17337378.948 9 -13476274.39347  22181490.221    22181490.0944   22181497.1604
        -0.000          -0.000
 -16624855.987 9 -12128713.86347  22311813.682    22311812.4944   22311820.7554
        -0.000          -0.000
 01  1 20  0 41 30.0000000  0  7  4  9  6 24  5 30 10               -0.000000015
 -11635898.329 9  -9053655.75146  23072740.880    23072740.7544   23072748.3004
        -0.000          -0.000
 -12000012.314 9  -9010600.30447  22899239.989    22899239.6064   22899247.4054
        -0.000          -0.000
  -9934936.795 9  -7499877.00446  24062704.574    24062704.0674   24062714.0944
        -0.000          -0.000
 -21620643.198 9 -16180191.45049  20907643.632    20907643.1804   20907650.1604
        -0.000          -0.000
 -27771488.946 9 -21617220.51249  20435375.737    20435374.9244   20435381.3214
        -0.000          -0.000
 -17421789.438 9 -13542048.71747  22165427.393    22165427.3244   22165434.3454
        -0.000          -0.000
 -16707365.192 9 -12193006.67447  22296112.581    22296111.4634   22296119.6454
        -0.000          -0.000
 01  1 20  0 42  0.0000000  0  7  4  9  6 24  5 30 10               -0.000000014
 -11539119.805 9  -8978243.92946  23091157.199    23091157.1344   23091164.6214
        -0.000          -0.000
 -11916863.939 9  -8945809.40547  22915062.629    22915062.2034   22915069.9984
        -0.000          -0.000
  -9994520.119 9  -7546305.41346  24051366.087    24051365.5664   24051375.6864
        -0.000          -0.000
 -21570175.231 9 -16140865.76049  20917247.375    20917246.9114   20917253.8674
        -0.000          -0.000
 -27807301.611 9 -21645126.45449  20428560.780    20428559.9524   20428566.3684
        -0.000          -0.000
 -17505973.716 9 -13607646.77947  22149407.643    22149407.5054   22149414.4964
        -0.000          -0.000
 -16789598.657 9 -12257084.63147  22280463.995    22280462.8474   22280471.0144
        -0.000          -0.000
 01  1 20  0 42 30.0000000  0  7  4  9  6 24  5 30 10               -0.000000014
 -11442244.681 9  -8902756.78946  23109592.238    23109592.1024   23109599.2824
        -0.000          -0.000
 -11833552.195 9  -8880891.21247  22930916.359    22930915.9574   22930923.7084
        -0.000          -0.000
 -10054091.060 9  -7592724.16246  24040030.020    24040029.4744   24040039.5674
        -0.000          -0.000
 -21519351.848 9 -16101263.11849  20926918.786    20926918.3264   20926925.2624
        -0.000          -0.000
 -27842684.892 9 -21672697.81049  20421827.552    20421826.7244   20421833.1434
        -0.000          -0.000
 -17589930.152 9 -13673067.30547  22133431.119    22133431.0444   22133437.9784
        -0.000          -0.000
 -16871553.863 9 -12320945.76347  22264868.334    22264867.2134   22264875.3714
        -0.000          -0.000
 01  1 20  0 43  0.0000000  0  7  4  9  6 24  5 30 10               -0.000000014
 -11345274.530 9  -8827195.65146  23128045.150    23128044.9484   23128052.1284
        -0.000          -0.000
 -11750079.522 9  -8815847.60947  22946800.750    22946800.3604   22946808.0784
        -0.000          -0.000
 -10113649.389 9  -7639133.05546  24028696.207    24028695.6714   24028705.8174
        -0.000          -0.000
 -21468174.889 9 -16061384.96849  20936657.421    20936656.9644   20936663.8744
        -0.000          -0.000
 -27877636.477 9 -21699932.78049  20415176.442    20415175.6084   20415182.0124
        -0.000          -0.000
 -17673655.422 9 -13738307.68547  22117498.693    22117498.5554   22117505.5354
        -0.000          -0.000
 -16953227.113 9 -12384587.19547  22249326.334    22249325.2424   22249333.3554
        -0.000          -0.000
 01  1 20  0 43 30.0000000  0  7  4  9  6 24  5 30 10               -0.000000014
 -11248211.473 9  -8751562.10446  23146515.614    23146515.4314   23146522.5694
        -0.000          -0.000
 -11666448.380 9  -8750680.52547  22962715.294    22962714.8834   22962722.5764
        -0.000          -0.000
 -10173195.163 9  -7685532.17546  24017364.842    24017364.2454   24017374.4964
        -0.000          -0.000
 -21416646.245 9 -16021232.77349  20946462.999    20946462.4964   20946469.4444
        -0.000          -0.000
 -27912154.115 9 -21726829.61149  20408607.945    20408607.0954   20408613.4784
        -0.000          -0.000
 -17757146.793 9 -13803365.83047  22101610.667    22101610.6134   22101617.4904
        -0.000          -0.000
 -17034614.770 9 -12448006.09647  22233838.723    22233837.6654   22233845.7424
        -0.000          -0.000
 01  1 20  0 44  0.0000000  0  7  4  9  6 24  5 30 10               -0.000000014
 -11151058.898 9  -8675858.81646  23165003.112    23165002.9224   23165010.1594
        -0.000          -0.000
 -11582662.391 9  -8685392.77647  22978659.317    22978658.8654   22978666.5614
        -0.000          -0.000
 -10232729.323 9  -7731922.23546  24006035.817    24006035.2184   24006045.2354
        -0.000          -0.000
 -21364769.343 9 -15980809.20749  20956334.848    20956334.3624   20956341.2874
        -0.000          -0.000
 -27946236.905 9 -21753387.60149  20402122.182    20402121.3554   20402127.6974
        -0.000          -0.000
 -17840402.639 9 -13868240.42047  22085767.565    22085767.4924   22085774.4654
        -0.000          -0.000
 -17115714.222 9 -12511200.41747  22218405.929    22218404.8494   22218412.9474
        -0.000          -0.000
 01  1 20  0 44 30.0000000  0  7  4  9  6 24  5 30 10               -0.000000013
 -11053818.419 9  -8600087.03246  23183507.379    23183507.1324   23183514.4574
        -0.000          -0.000
 -11498724.102 9  -8619986.36147  22994632.240    22994631.7884   22994639.5374
        -0.000          -0.000
 -10292251.958 9  -7778303.32046  23994708.938    23994708.3194   23994718.2684
        -0.000          -0.000
 -21312545.916 9 -15940115.62049  20966272.617    20966272.1624   20966279.0694
        -0.000          -0.000
 -27979882.574 9 -21779604.97549  20395719.604    20395718.7684   20395725.0944
        -0.000          -0.000
 -17923419.878 9 -13932929.10447  22069969.836    22069969.7584   22069976.6574
        -0.000          -0.000
 -17196521.833 9 -12574167.33347  22203028.679    22203027.6044   22203035.6924
        -0.000          -0.000
 01  1 20  0 45  0.0000000  0  7  4  9  6 24  5 30 10               -0.000000013
 -10956491.547 9  -8524247.88646  23202028.005    23202027.7714   23202035.0744
        -0.000          -0.000
 -11414635.684 9  -8554462.95747  23010633.756    23010633.3004   23010641.1154
        -0.000          -0.000
 -10351762.510 9  -7824674.99046  23983384.391    23983383.8194   23983393.6224
        -0.000          -0.000
 -21259976.931 9 -15899152.76949  20976276.174    20976275.6974   20976282.5994
        -0.000          -0.000
 -28013088.479 9 -21805479.67949  20389400.733    20389399.9024   20389406.2264
        -0.000          -0.000
 -18006195.424 9 -13997429.44347  22054218.187    22054218.0824   22054225.0154
        -0.000          -0.000
 -17277033.281 9 -12636903.45847  22187707.783    22187706.7004   22187714.8164
        -0.000          -0.000
 01  1 20  0 45 30.0000000  0  7  4  9  6 24  5 30 10               -0.000000014
 -10859082.845 9  -8448345.03446  23220564.113    23220563.9284   23220571.3494
        -0.000          -0.000
 -11330402.419 9  -8488826.68147  23026662.751    23026662.3344   23026670.2284
        -0.000          -0.000
 -10411263.581 9  -7871039.26446  23972061.633    23972061.1374   23972070.7924
        -0.000          -0.000
 -21207067.326 9 -15857924.49549  20986344.525    20986344.0364   20986350.9254
        -0.000          -0.000
 -28045855.119 9 -21831012.08949  20383165.397    20383164.5794   20383170.8934
        -0.000          -0.000
 -18088728.834 9 -14061741.11247  22038512.541    22038512.4354   22038519.2704
        -0.000          -0.000
 -17357247.988 9 -12699408.36747  22172443.388    22172442.3184   22172450.4064
        -0.000          -0.000
 01  1 20  0 46  0.0000000  0  7  4  9  6 24  5 30 10               -0.000000013
 -10761592.549 9  -8372378.58246  23239115.953    23239115.8554   23239123.2514
        -0.000          -0.000
 -11246024.853 9  -8423077.97047  23042719.274    23042718.8584   23042726.8074
        -0.000          -0.000
 -10470753.424 9  -7917394.80146  23960741.066    23960740.6054   23960750.1384
        -0.000          -0.000
 -21153817.133 9 -15816430.83249  20996477.680    20996477.2114   20996484.0984
        -0.000          -0.000
 -28078178.544 9 -21856199.14549  20377014.435    20377013.5974   20377019.9214
        -0.000          -0.000
 -18171015.576 9 -14125860.58047  22022853.865    22022853.7854   22022860.5284
        -0.000          -0.000
 -17437160.630 9 -12761677.88947  22157236.432    22157235.3654   22157243.4804
        -0.000          -0.000
 01  1 20  0 46 30.0000000  0  7  4  9  6 24  5 30 10               -0.000000013
 -10664023.690 9  -8296350.88946  23257682.784    23257682.5524   23257689.8404
        -0.000          -0.000
 -11161506.519 9  -8357219.57147  23058802.647    23058802.2134   23058810.1584
        -0.000          -0.000
 -10530233.101 9  -7963742.43046  23949422.354    23949421.9414   23949431.3444
        -0.000          -0.000
 -21100229.861 9 -15774674.50149  21006675.039    21006674.5424   21006681.4184
        -0.000          -0.000
 -28110057.701 9 -21881040.01949  20370947.993    20370947.1474   20370953.4744
        -0.000          -0.000
 -18253053.683 9 -14189786.28447  22007242.477    22007242.3434   22007249.1544
        -0.000          -0.000
 -17516768.332 9 -12823709.79547  22142087.572    22142086.4924   22142094.5824
        -0.000          -0.000
 01  1 20  0 47  0.0000000  0  7  4  9  6 24  5 30 10               -0.000000013
 -10566378.520 9  -8220263.75646  23276263.947    23276263.7674   23276270.9924
        -0.000          -0.000
 -11076850.504 9  -8291253.87747  23074912.154    23074911.7114   23074919.6834
        -0.000          -0.000
 -10589702.903 9  -8010082.35746  23938105.535    23938105.0754   23938114.6044
        -0.000          -0.000
 -21046307.384 9 -15732656.97749  21016936.136    21016935.6584   21016942.5414
        -0.000          -0.000
 -28141490.948 9 -21905533.42949  20364966.456    20364965.5984   20364971.9034
        -0.000          -0.000
 -18334841.047 9 -14253516.61847  21991678.741    21991678.6484   21991685.4194
        -0.000          -0.000
 -17596068.187 9 -12885501.81747  22126997.238    22126996.1894   22127004.2754
        -0.000          -0.000
 01  1 20  0 47 30.0000000  0  7  4  9  6 24  5 30 10               -0.000000013
 -10468659.361 9  -8144118.96146  23294859.279    23294859.1044   23294866.3844
        -0.000          -0.000
 -10992060.216 9  -8225183.56147  23091047.263    23091046.8214   23091054.7404
        -0.000          -0.000
 -10649163.288 9  -8056414.94746  23926790.463    23926789.9984   23926799.5924
        -0.000          -0.000
 -20992052.413 9 -15690380.36449  21027260.494    21027260.0214   21027266.9084
        -0.000          -0.000
 -28172476.419 9 -21929677.92149  20359070.036    20359069.1904   20359075.5304
        -0.000          -0.000
 -18416375.170 9 -14317049.62248  21976163.332    21976163.1994   21976169.9634
        -0.000          -0.000
 -17675057.100 9 -12947051.53347  22111966.051    22111965.0354   22111973.1444
        -0.000          -0.000
 01  1 20  0 48  0.0000000  0  7  4  9  6 24  5 30 10               -0.000000013
 -10370868.139 9  -8067918.02646  23313468.284    23313468.1424   23313475.5704
        -0.000          -0.000
 -10907137.772 9  -8159010.27747  23107207.501    23107207.0734   23107214.9834
        -0.000          -0.000
 -10708614.170 9  -8102740.13946  23915477.096    23915476.6914   23915486.4564
        -0.000          -0.000
 -20937466.449 9 -15647845.83949  21037647.820    21037647.3704   21037654.2434
        -0.000          -0.000
 -28203011.902 9 -21953471.77849  20353259.290    20353258.4724   20353264.8004
        -0.000          -0.000
 -18497652.921 9 -14380382.85147  21960696.527    21960696.3874   21960703.2024
        -0.000          -0.000
 -17753731.186 9 -13008355.93147  22096994.815    22096993.7804   22097001.8714
        -0.000          -0.000
 01  1 20  0 48 30.0000000  0  7  4  9  6 24  5 30 10               -0.000000013
 -10273007.113 9  -7991662.68646  23332090.637    23332090.3814   23332097.9524
        -0.000          -0.000
 -10822086.472 9  -8092736.57547  23123392.306    23123391.8094   23123399.7524
        -0.000          -0.000
 -10768056.156 9  -8149058.41646  23904165.382    23904164.9824   23904174.9094
        -0.000          -0.000
 -20882552.924 9 -15605056.07249  21048097.553    21048097.0564   21048103.9474
        -0.000          -0.000
 -28233096.116 9 -21976913.99649  20347534.432    20347533.6164   20347539.9204
        -0.000          -0.000
 -18578671.669 9 -14443514.27048  21945279.156    21945279.0894   21945285.8124
        -0.000          -0.000
 -17832087.530 9 -13069412.73447  22082084.071    22082083.0324   22082091.1004
        -0.000          -0.000
 01  1 20  0 49  0.0000000  0  7  4  9  6 24  5 30 10               -0.000000013
 -10175078.670 9  -7915354.84946  23350725.567    23350725.3794   23350733.0904
        -0.000          -0.000
 -10736909.237 9  -8026364.74347  23139601.064    23139600.5974   23139608.4714
        -0.000          -0.000
 -10827489.774 9  -8195370.17946  23892855.313    23892854.9114   23892864.8364
        -0.000          -0.000
 -20827313.342 9 -15562012.22549  21058609.272    21058608.7794   21058615.6554
        -0.000          -0.000
 -28262727.330 9 -22000003.22549  20341895.750    20341894.9394   20341901.2454
        -0.000          -0.000
 -18659429.339 9 -14506442.24147  21929911.335    21929911.2294   21929917.9084
        -0.000          -0.000
 -17910123.103 9 -13130219.58647  22067234.350    22067233.2834   22067241.3034
        -0.000          -0.000
 01  1 20  0 49 30.0000000  0  7  4  9  6 24  5 30 10               -0.000000013
 -10077084.732 9  -7838995.91046  23369373.186    23369373.0594   23369380.5804
        -0.000          -0.000
 -10651608.567 9  -7959896.73147  23155833.250    23155832.8114   23155840.6934
        -0.000          -0.000
 -10886914.797 9  -8241675.24546  23881546.927    23881546.5704   23881556.3534
        -0.000          -0.000
 -20771750.179 9 -15518716.25349  21069182.529    21069182.0594   21069188.9604
        -0.000          -0.000
 -28291903.497 9 -22022737.87649  20336343.688    20336342.8634   20336349.1574
        -0.000          -0.000
 -18739923.218 9 -14569164.67148  21914593.858    21914593.7634   21914600.3934
        -0.000          -0.000
 -17987834.427 9 -13190773.77947  22052446.421    22052445.2404   22052453.2274
        -0.000          -0.000
 01  1 20  0 50  0.0000000  0  7  4  9  6 24  5 30 10               -0.000000013
  -9979028.453 9  -7762588.41146  23388032.845    23388032.6724   23388040.1504
        -0.000          -0.000
 -10566188.280 9  -7893335.50247  23172088.218    23172087.7884   23172095.6654
        -0.000          -0.000
 -10946332.488 9  -8287974.60946  23870240.116    23870239.7374   23870249.2754
        -0.000          -0.000
 -20715866.617 9 -15475170.60749  21079816.832    21079816.3374   21079823.2514
        -0.000          -0.000
 -28320623.859 9 -22045117.35249  20330878.380    20330877.5464   20330883.8294
        -0.000          -0.000
 -18820151.742 9 -14631680.32148  21899326.818    21899326.7414   21899333.3744
        -0.000          -0.000
 -18065219.027 9 -13251073.38347  22037720.497    22037719.3944   22037727.3294
        -0.000          -0.000
 01  1 20  0 50 30.0000000  0  7  4  9  6 24  5 30 10               -0.000000013
  -9880911.452 9  -7686133.63446  23406703.844    23406703.6674   23406711.3344
        -0.000          -0.000
 -10480650.898 9  -7826683.04447  23188365.479    23188365.0494   23188372.9094
        -0.000          -0.000
 -11005742.511 9  -8334268.01946  23858934.633    23858934.2544   23858943.6544
        -0.000          -0.000
 -20659664.734 9 -15431376.92849  21090511.651    21090511.1934   21090518.1054
        -0.000          -0.000
 -28348886.183 9 -22067139.91849  20325500.213    20325499.3804   20325505.6394
        -0.000          -0.000
 -18900111.368 9 -14693986.45548  21884110.984    21884110.8564   21884117.4164
        -0.000          -0.000
 -18142273.216 9 -13311115.51847  22023057.481    22023056.3664   22023064.3044
        -0.000          -0.000
 01  1 20  0 51  0.0000000  0  7  4  9  6 24  5 30 10               -0.000000013
  -9782735.700 9  -7609633.08146  23425385.851    23425385.7834   23425393.5884
        -0.000          -0.000
 -10394998.984 9  -7759941.34147  23204664.528    23204664.1054   23204671.9454
        -0.000          -0.000
 -11065145.150 9  -8380555.67146  23847630.655    23847630.2094   23847639.3844
        -0.000          -0.000
 -20603146.299 9 -15387336.57349  21101266.767    21101266.2784   21101273.1864
        -0.000          -0.000
 -28376688.694 9 -22088804.18549  20320209.550    20320208.7124   20320214.9804
        -0.000          -0.000
 -18979799.819 9 -14756081.26948  21868946.687    21868946.6434   21868953.2314
        -0.000          -0.000
 -18218994.091 9 -13370897.93047  22008457.973    22008456.8234   22008464.7314
        -0.000          -0.000
 01  1 20  0 51 30.0000000  0  7  4  9  6 24  5 30 10               -0.000000012
  -9684503.671 9  -7533088.64946  23444078.985    23444078.8924   23444086.5494
        -0.000          -0.000
 -10309235.492 9  -7693112.69347  23220984.822    23220984.3774   23220992.2734
        -0.000          -0.000
 -11124540.848 9  -8426837.92046  23836327.924    23836327.5144   23836336.4564
        -0.000          -0.000
 -20546313.869 9 -15343051.55449  21112081.574    21112081.1204   21112088.0254
        -0.000          -0.000
 -28404029.823 9 -22110108.93849  20315006.674    20315005.8444   20315012.1094
        -0.000          -0.000
 -19059214.437 9 -14817962.72748  21853834.540    21853834.4564   21853840.8924
        -0.000          -0.000
 -18295378.291 9 -13430418.00347  21993922.456    21993921.3554   21993929.1814
        -0.000          -0.000
 01  1 20  0 52  0.0000000  0  7  4  9  6 24  5 30 10               -0.000000012
  -9586218.142 9  -7456502.50346  23462782.261    23462782.1354   23462789.5114
        -0.000          -0.000
 -10223364.195 9  -7626200.03047  23237325.557    23237325.1544   23237333.0994
        -0.000          -0.000
 -11183930.247 9  -8473115.27546  23825026.360    23825026.0384   23825034.7604
        -0.000          -0.000
 -20489170.295 9 -15298524.08049  21122955.650    21122955.1824   21122962.0524
        -0.000          -0.000
 -28430908.442 9 -22131053.29449  20309891.837    20309891.0054   20309897.2514
        -0.000          -0.000
 -19138353.424 9 -14879629.37848  21838774.846    21838774.7714   21838781.3854
        -0.000          -0.000
 -18371423.244 9 -13489673.73247  21979451.506    21979450.3834   21979458.2204
        -0.000          -0.000
 01  1 20  0 52 30.0000000  0  7  4  9  6 24  5 30 10               -0.000000012
  -9487879.718 9  -7379875.13646  23481495.355    23481495.2594   23481502.4794
        -0.000          -0.000
 -10137386.511 9  -7559204.47647  23253686.618    23253686.1784   23253694.1704
        -0.000          -0.000
 -11243312.357 9  -8519386.95046  23813726.344    23813726.0014   23813734.5154
        -0.000          -0.000
 -20431717.010 9 -15253755.27249  21133888.631    21133888.1744   21133895.0824
        -0.000          -0.000
 -28457321.896 9 -22151635.18149  20304865.500    20304864.6654   20304870.9164
        -0.000          -0.000
 -19217212.793 9 -14941078.18848  21823768.314    21823768.2694   21823774.7034
        -0.000          -0.000
 -18447124.588 9 -13548661.72647  21965045.961    21965044.8564   21965052.6874
        -0.000          -0.000
 01  1 20  0 53  0.0000000  0  8  4  9  6 17 24  5 30 10            -0.000000011
  -9389491.387 9  -7303208.95246  23500218.130    23500217.9984   23500225.4374
        -0.000          -0.000
 -10051306.118 9  -7492128.88947  23270067.204    23270066.7484   23270074.7864
        -0.000          -0.000
 -11302688.243 9  -8565653.76946  23802427.475    23802427.0824   23802435.5194
        -0.000          -0.000
  -1271147.143 8   -972395.62552         0.000           0.0004          0.0005
        -0.000          -0.000
 -20373957.087 9 -15208747.53049  21144879.976    21144879.4954   21144886.4214
        -0.000          -0.000
 -28483269.148 9 -22171853.79749  20299927.859    20299927.0334   20299933.2964
        -0.000          -0.000
 -19295790.614 9 -15002307.55748  21808815.430    21808815.2824   21808821.9214
        -0.000          -0.000
 -18522479.536 9 -13607379.79447  21950706.343    21950705.2034   21950713.0274
        -0.000          -0.000
 01  1 20  0 53 30.0000000  0  7  4  9  6 24  5 30 10               -0.000000011
  -9291057.333 9  -7226507.12246  23518949.572    23518949.4414   23518956.9234
        -0.000          -0.000
  -9965127.579 9  -7424976.82247  23286466.481    23286466.0154   23286474.0644
        -0.000          -0.000
 -11362060.155 9  -8611917.50346  23791129.391    23791129.0044   23791137.4254
        -0.000          -0.000
 -20315894.604 9 -15163504.02349  21155928.893    21155928.3864   21155935.3084
        -0.000          -0.000
 -28508750.665 9 -22191709.50049  20295078.862    20295078.0304   20295084.2964
        -0.000          -0.000
 -19374086.451 9 -15063317.26248  21793916.222    21793916.1464   21793922.5084
        -0.000          -0.000
 -18597486.863 9 -13665827.00348  21936432.884    21936431.7444   21936439.5604
        -0.000          -0.000
 01  1 20  0 54  0.0000000  0  7  4  9  6 24  5 30 10               -0.000000011
  -9192576.424 9  -7149768.70246  23537689.857    23537689.7364   23537696.9334
        -0.000          -0.000
  -9878850.758 9  -7357748.16947  23302884.484    23302883.9994   23302891.9944
        -0.000          -0.000
 -11421425.169 9  -8658175.85746  23779832.446    23779832.0354   23779840.6094
        -0.000          -0.000
 -20257528.780 9 -15118024.15049  21167035.514    21167035.0474   21167041.9314
        -0.000          -0.000
 -28533761.816 9 -22211198.68849  20290319.390    20290318.5554   20290324.7994
        -0.000          -0.000
 -19452094.761 9 -15124102.86248  21779071.591    21779071.4734   21779078.0214
        -0.000          -0.000
 -18672140.795 9 -13723998.83848  21922226.652    21922225.5394   21922233.3234
        -0.000          -0.000
 01  1 20  0 54 30.0000000  0  8  4  9  6 17 24  5 30 10            -0.000000012
  -9094052.603 9  -7072996.87746  23556438.289    23556438.1084   23556445.3324
        -0.000          -0.000
  -9792480.482 9  -7290446.70047  23319320.163    23319319.7204   23319327.7034
        -0.000          -0.000
 -11480785.225 9  -8704430.30446  23768536.266    23768535.8364   23768544.8154
        -0.000          -0.000
  -1556704.212 8   -887777.02752         0.000           0.0004          0.0005
        -0.000          -0.000
 -20198863.782 9 -15072311.15449  21178199.108    21178198.6084   21178205.5074
        -0.000          -0.000
 -28558302.571 9 -22230321.33249  20285649.397    20285648.5584   20285654.8144
        -0.000          -0.000
 -19529814.545 9 -15184663.67248  21764282.019    21764281.8814   21764288.3374
        -0.000          -0.000
 -18746439.585 9 -13781893.94848  21908087.999    21908086.9074   21908094.6374
        -0.000          -0.000
 01  1 20  0 55  0.0000000  0  7  4  9  6 24  5 30 10               -0.000000012
  -8995486.357 9  -6996192.04246  23575194.728    23575194.6124   23575201.9264
        -0.000          -0.000
  -9706018.204 9  -7223073.53247  23335773.435    23335773.0014   23335781.0064
        -0.000          -0.000
 -11540138.974 9  -8750679.86046  23757241.313    23757240.9544   23757250.1124
        -0.000          -0.000
 -20139900.441 9 -15026365.68848  21189419.418    21189418.9514   21189425.8144
        -0.000          -0.000
 -28582369.886 9 -22249075.06249  20281069.526    20281068.6984   20281074.9504
        -0.000          -0.000
 -19607241.819 9 -15244996.54248  21749547.940    21749547.8914   21749554.3624
        -0.000          -0.000
 -18820378.966 9 -13839508.98948  21894017.714    21894016.6384   21894024.3714
        -0.000          -0.000
 01  1 20  0 55 30.0000000  0  7  4  9  6 24  5 30 10               -0.000000011
  -8896881.511 9  -6919357.08846  23593958.714    23593958.5724   23593965.9364
        -0.000          -0.000
  -9619468.187 9  -7155632.00047  23352243.415    23352242.9384   23352250.9314
        -0.000          -0.000
 -11599488.338 9  -8796926.02146  23745947.486    23745947.1034   23745956.1504
        -0.000          -0.000
 -20080642.723 9 -14980190.83448  21200695.773    21200695.3044   21200702.1694
        -0.000          -0.000
 -28605963.802 9 -22267459.90949  20276579.730    20276578.9074   20276585.1484
        -0.000          -0.000
 -19684375.416 9 -15305100.57248  21734869.877    21734869.7634   21734876.2354
        -0.000          -0.000
 -18893957.322 9 -13896842.71348  21880016.163    21880015.1214   21880022.7984
        -0.000          -0.000
 01  1 20  0 56  0.0000000  0  8  4  9  6 17 24  5 30 10            -0.000000011
  -8798239.882 9  -6842493.49146  23612729.520    23612729.2784   23612736.8124
        -0.000          -0.000
  -9532832.982 9  -7088124.08747  23368729.537    23368729.1254   23368737.1044
        -0.000          -0.000
 -11658833.548 9  -8843168.94446  23734654.480    23734654.1104   23734662.8984
        -0.000          -0.000
   -823568.429 9   -621227.07642         0.000           0.0004          0.0004
        -0.000          -0.000
 -20021092.843 9 -14933788.32548  21212027.720    21212027.2294   21212034.1144
        -0.000          -0.000
 -28629082.767 9 -22285474.66649  20272180.319    20272179.4824   20272185.7244
        -0.000          -0.000
 -19761212.767 9 -15364973.77048  21720248.212    21720248.1354   21720254.5384
        -0.000          -0.000
 -18967171.268 9 -13953892.47648  21866083.939    21866082.9064   21866090.5864
        -0.000          -0.000
 01  1 20  0 56 30.0000000  0  8  4  9  6 17 24  5 30 10            -0.000000011
  -8699563.156 9  -6765602.56946  23631506.779    23631506.6294   23631514.3084
        -0.000          -0.000
  -9446115.168 9  -7020551.80947  23385231.460    23385230.9914   23385239.0164
        -0.000          -0.000
 -11718174.450 9  -8889408.51946  23723362.348    23723361.8984   23723370.6274
        -0.000          -0.000
   -918268.21318   -695010.87252         0.000           0.0005          0.0005
        -0.000          -0.000
 -19961252.028 9 -14887159.11248  21223415.068    21223414.5664   21223421.4364
        -0.000          -0.000
 -28651724.777 9 -22303117.77049  20267871.680    20267870.8554   20267877.0784
        -0.000          -0.000
 -19837750.876 9 -15424613.77948  21705683.344    21705683.3284   21705689.7544
        -0.000          -0.000
 -19040017.148 9 -14010655.43248  21852221.790    21852220.7424   21852228.3844
        -0.000          -0.000
 01  1 20  0 57  0.0000000  0  7  4  9  6 24  5 30 10               -0.000000011
  -8600853.610 9  -6688686.00546  23650290.545    23650290.4054   23650298.0324
        -0.000          -0.000
  -9359317.935 9  -6952917.62947  23401748.490    23401747.9874   23401756.0174
        -0.000          -0.000
 -11777511.426 9  -8935645.00946  23712070.930    23712070.4954   23712079.1104
        -0.000          -0.000
 -19901123.999 9 -14840306.09548  21234857.064    21234856.5554   21234863.4474
        -0.000          -0.000
 -28673888.639 9 -22320388.29049  20263654.031    20263653.1954   20263659.4134
        -0.000          -0.000
 -19913987.464 9 -15484018.83848  21691176.016    21691175.8824   21691182.3534
        -0.000          -0.000
 -19112492.293 9 -14067129.50348  21838430.213    21838429.1504   21838436.7914
        -0.000          -0.000
 01  1 20  0 57 30.0000000  0  7  4  9  6 24  5 30 10               -0.000000011
  -8502113.292 9  -6611745.49946  23669080.196    23669080.0464   23669087.7694
        -0.000          -0.000
  -9272443.716 9  -6885223.48047  23418280.156    23418279.6524   23418287.6754
        -0.000          -0.000
 -11836844.529 9  -8981878.49546  23700780.119    23700779.7024   23700788.3644
        -0.000          -0.000
 -19840710.602 9 -14793230.71448  21246353.358    21246352.8564   21246359.6734
        -0.000          -0.000
 -28695572.606 9 -22337284.86749  20259527.669    20259526.8414   20259533.0484
        -0.000          -0.000
 -19989919.806 9 -15543186.84548  21676726.543    21676726.4754   21676732.7754
        -0.000          -0.000
 -19184593.613 9 -14123312.28248  21824709.738    21824708.6794   21824716.2684
        -0.000          -0.000
 01  1 20  0 58  0.0000000  0  7  4  9  6 24  5 30 10               -0.000000010
  -8403344.685 9  -6534782.95546  23687875.330    23687875.2354   23687882.9074
        -0.000          -0.000
  -9185496.043 9  -6817472.07447  23434825.836    23434825.3184   23434833.3334
        -0.000          -0.000
 -11896174.354 9  -9028109.42546  23689489.897    23689489.4684   23689498.2044
        -0.000          -0.000
 -19780014.813 9 -14745935.28348  21257903.446    21257902.9004   21257909.7254
        -0.000          -0.000
 -28716775.758 9 -22353806.78649  20255492.851    20255492.0054   20255498.2064
        -0.000          -0.000
 -20065545.995 9 -15602116.26648  21662335.225    21662335.1674   21662341.5274
        -0.000          -0.000
 -19256318.433 9 -14179201.68548  21811060.912    21811059.8684   21811067.4374
        -0.000          -0.000
 01  1 20  0 58 30.0000000  0  7  4  9  6 24  5 30 10               -0.000000011
  -8304549.247 9  -6457799.51846  23706675.373    23706675.2814   23706682.9964
        -0.000          -0.000
  -9098477.228 9  -6749665.24647  23451385.020    23451384.5144   23451392.5044
        -0.000          -0.000
 -11955500.724 9  -9074337.66846  23678200.288    23678199.8644   23678208.7214
        -0.000          -0.000
 -19719037.970 9 -14698420.85148  21269506.914    21269506.3874   21269513.2064
        -0.000          -0.000
 -28737496.408 9 -22369952.72349  20251549.813    20251548.9654   20251555.1594
        -0.000          -0.000
 -20140862.931 9 -15660804.72048  21648002.920    21648002.7904   21648009.0924
        -0.000          -0.000
 -19327663.284 9 -14234794.99548  21797484.408    21797483.3264   21797490.9084
        -0.000          -0.000
 01  1 20  0 59  0.0000000  0  8  4  9  6 17 24  5 30 10            -0.000000010
  -8205728.876 9  -6380796.62746  23725480.218    23725480.2324   23725487.7714
        -0.000          -0.000
  -9011389.993 9  -6681805.10947  23467957.139    23467956.6624   23467964.6984
        -0.000          -0.000
 -12014823.726 9  -9120563.29046  23666911.377    23666910.9984   23666919.8824
        -0.000          -0.000
   -809786.407 9   -607200.91952         0.000           0.0004          0.0005
        -0.000          -0.000
 -19657782.672 9 -14650689.44048  21281163.383    21281162.8784   21281169.6954
        -0.000          -0.000
 -28757732.729 9 -22385721.26449  20247698.950    20247698.1204   20247704.2994
        -0.000          -0.000
 -20215867.870 9 -15719250.06448  21633729.890    21633729.8014   21633736.1084
        -0.000          -0.000
 -19398624.590 9 -14290089.44648  21783980.820    21783979.7654   21783987.3584
        -0.000          -0.000
 01  1 20  0 59 30.0000000  0  7  4  9  6 24  5 30 10               -0.000000010
  -8106886.359 9  -6303776.41746  23744289.540    23744289.5204   23744296.5874
        -0.000          -0.000
  -8924237.995 9  -6613894.49747  23484541.578    23484541.1204   23484549.2224
        -0.000          -0.000
 -12074144.337 9  -9166787.04546  23655623.030    23655622.6634   23655631.5774
        -0.000          -0.000
 -19596252.177 9 -14602743.59348  21292872.190    21292871.7324   21292878.5614
        -0.000          -0.000
 -28777484.152 9 -22401111.95849  20243940.351    20243939.5224   20243945.7124
        -0.000          -0.000
 -20290559.091 9 -15777450.94648  21619516.495    21619516.4004   21619522.7184
        -0.000          -0.000
 -19469200.232 9 -14345083.38048  21770550.628    21770549.5924   21770557.1934
        -0.000          -0.000
 01  1 20  1  0  0.0000000  0  7  4  9  6 24  5 30 10               -0.000000010
  -8008023.532 9  -6226740.43546  23763102.535    23763102.4664   23763109.6954
        -0.000          -0.000
  -8837023.666 9  -6545935.32747  23501137.893    23501137.4514   23501145.5734
        -0.000          -0.000
 -12133462.311 9  -9213008.76446  23644335.254    23644334.8684   23644343.6494
        -0.000          -0.000
 -19534448.255 9 -14554584.68148  21304633.099    21304632.6104   21304639.4344
        -0.000          -0.000
 -28796748.879 9 -22416123.41249  20240274.390    20240273.5704   20240279.7234
        -0.000          -0.000
 -20364933.467 9 -15835404.94348  21605363.508    21605363.4084   21605369.7054
        -0.000          -0.000
 -19539386.988 9 -14399774.28648  21757194.498    21757193.4394   21757201.0244
        -0.000          -0.000
 01  1 20  1  0 30.0000000  0  7  4  9  6 24  5 30 10               -0.000000010
  -7909142.166 9  -6149690.05846  23781918.898    23781918.8704   23781926.4164
        -0.000          -0.000
  -8749749.466 9  -6477929.50447  23517745.629    23517745.1744   23517753.3284
        -0.000          -0.000
 -12192777.834 9  -9259228.56446  23633047.837    23633047.4624   23633056.1044
        -0.000          -0.000
 -19472373.082 9 -14506214.40748  21316445.616    21316445.0924   21316451.9354
        -0.000          -0.000
 -28815525.448 9 -22430754.47949  20236701.277    20236700.4644   20236706.6334
        -0.000          -0.000
 -20438988.392 9 -15893110.02148  21591271.274    21591271.1844   21591277.4374
        -0.000          -0.000
 -19609181.944 9 -14454159.89748  21743912.857    21743911.8434   21743919.3984
        -0.000          -0.000
 01  1 20  1  1  0.0000000  0  7  4  9  6 24  5 30 10               -0.000000009
  -7810244.270 9  -6072626.74246  23800738.730    23800738.5324   23800746.1814
        -0.000          -0.000
  -8662418.699 9  -6409879.59947  23534364.141    23534363.7094   23534371.8624
        -0.000          -0.000
 -12252091.309 9  -9305446.76646  23621760.727    23621760.2864   23621768.8274
        -0.000          -0.000
 -19410029.109 9 -14457634.67448  21328309.259    21328308.7394   21328315.5874
        -0.000          -0.000
 -28833812.479 9 -22445004.08749  20233221.367    20233220.5534   20233226.6944
        -0.000          -0.000
 -20512721.760 9 -15950564.52948  21577240.142    21577240.0974   21577246.3224
        -0.000          -0.000
 -19678581.942 9 -14508237.74948  21730706.457    21730705.4064   21730712.9334
        -0.000          -0.000
 01  1 20  1  1 30.0000000  0  8  4  9  6 17 24  5 30 10            -0.000000009
  -7711331.427 9  -5995551.79646  23819561.133    23819561.0614   23819568.6844
        -0.000          -0.000
  -8575033.669 9  -6341787.41347  23550993.058    23550992.5974   23551000.7214
        -0.000          -0.000
 -12311402.343 9  -9351663.06246  23610474.074    23610473.6494   23610482.0604
        -0.000          -0.000
   -810208.450 8   1826750.101 1         0.000           0.000           0.000
        -0.000          -0.000
 -19347418.657 9 -14408847.30248  21340223.591    21340223.1014   21340229.9244
        -0.000          -0.000
 -28851608.335 9 -22458870.96249  20229834.911    20229834.0774   20229840.2174
        -0.000          -0.000
 -20586130.456 9 -16007766.05148  21563270.977    21563270.8684   21563277.0564
        -0.000          -0.000
 -19747583.652 9 -14562005.24448  21717575.798    21717574.7664   21717582.2474
        -0.000          -0.000
 01  1 20  1  2  0.0000000  0  8  4  9  6 17 24  5 30 10            -0.000000009
  -7612406.181 9  -5918467.11446  23838385.958    23838385.8194   23838393.2314
        -0.000          -0.000
  -8487597.579 9  -6273655.44147  23567631.638    23567631.1594   23567639.2934
        -0.000          -0.000
 -12370711.556 9  -9397877.94846  23599187.821    23599187.4134   23599195.6994
        -0.000          -0.000
   -903716.568 8   -386550.12142         0.000           0.0004          0.0004
        -0.000          -0.000
 -19284544.089 9 -14359854.12048  21352188.203    21352187.7184   21352194.5164
        -0.000          -0.000
 -28868912.200 9 -22472354.46649  20226542.081    20226541.2574   20226547.3914
        -0.000          -0.000
 -20659212.453 9 -16064712.99748  21549363.917    21549363.8164   21549370.0364
        -0.000          -0.000
 -19816184.580 9 -14615460.44448  21704521.450    21704520.4034   21704527.8634
        -0.000          -0.000
 01  1 20  1  2 30.0000000  0  7  4  9  6 24  5 30 10               -0.000000008
  -7513469.403 9  -5841373.47645  23857212.932    23857212.6864   23857220.2464
        -0.000          -0.000
  -8400112.521 9  -6205485.31147  23584279.572    23584279.0634   23584287.2444
        -0.000          -0.000
 -12430018.087 9  -9444090.76546  23587902.197    23587901.8254   23587909.7484
        -0.000          -0.000
 -19221407.183 9 -14310656.52048  21364202.760    21364202.2604   21364209.0414
        -0.000          -0.000
 -28885721.679 9 -22485452.73349  20223343.330    20223342.5014   20223348.6214
        -0.000          -0.000
 -20731964.095 9 -16121402.53148  21535519.628    21535519.5504   21535525.7294
        -0.000          -0.000
 -19884380.778 9 -14668600.28148  21691544.067    21691543.0574   21691550.4934
        -0.000          -0.000
 01  1 20  1  3  0.0000000  0  8  4  9  6 17 24  5 30 10            -0.000000009
  -7414526.172 9  -5764274.89346  23876041.062    23876040.9314   23876048.6974
        -0.000          -0.000
  -8312584.200 9  -6137281.46647  23600935.682    23600935.2224   23600943.3344
        -0.000          -0.000
 -12489325.254 9  -9490304.06346  23576616.448    23576616.0184   23576623.9034
        -0.000          -0.000
  -1090382.495 8   -532004.28952         0.000           0.0004          0.0005
        -0.000          -0.000
 -19158013.510 9 -14261258.84348  21376266.238    21376265.6894   21376272.4984
        -0.000          -0.000
 -28902038.595 9 -22498167.18149  20220238.267    20220237.4514   20220243.5914
        -0.000          -0.000
 -20804386.043 9 -16177835.15148  21521738.142    21521738.0414   21521744.2654
        -0.000          -0.000
 -19952172.185 9 -14721424.68848  21678643.789    21678642.6984   21678650.1484
        -0.000          -0.000
 01  1 20  1  3 30.0000000  0  7  4  9  6 24  5 30 10               -0.000000008
  -7315574.321 9  -5687169.54846  23894871.170    23894871.0044   23894878.7404
        -0.000          -0.000
  -8225011.474 9  -6069043.03546  23617600.328    23617599.8054   23617607.8904
        -0.000          -0.000
 -12548629.078 9  -9536514.72646  23565331.220    23565330.8214   23565338.8754
        -0.000          -0.000
 -19094361.122 9 -14211659.57148  21388378.819    21388378.2944   21388385.1024
        -0.000          -0.000
 -28917857.776 9 -22510493.78749  20217227.950    20217227.1354   20217233.2744
        -0.000          -0.000
 -20876471.633 9 -16234005.68348  21508020.632    21508020.5584   21508026.7594
        -0.000          -0.000
 -20019551.852 9 -14773928.26748  21665821.740    21665820.7044   21665828.1424
        -0.000          -0.000
 01  1 20  1  4  0.0000000  0  8  4  9  6 17 24  5 30 10            -0.000000008
  -7216619.587 9  -5610061.90146  23913701.757    23913701.5394   23913709.0424
        -0.000          -0.000
  -8137400.707 9  -6000774.95146  23634272.161    23634271.6144   23634279.7104
        -0.000          -0.000
 -12607933.406 9  -9582725.78146  23554045.731    23554045.2954   23554053.6244
        -0.000          -0.000
  -1276571.525 8   -375647.91652         0.000           0.0004          0.0005
        -0.000          -0.000
 -19030455.889 9 -14161863.28048  21400539.557    21400539.0554   21400545.8424
        -0.000          -0.000
 -28933181.407 9 -22522434.25149  20214311.893    20214311.0944   20214317.2304
        -0.000          -0.000
 -20948221.932 9 -16289914.95448  21494366.948    21494366.8804   21494373.0474
        -0.000          -0.000
 -20086520.777 9 -14826111.78648  21653077.930    21653076.8674   21653084.3064
        -0.000          -0.000
 01  1 20  1  4 30.0000000  0  7  4  9  6 24  5 30 10               -0.000000009
  -7117661.304 9  -5532951.49145  23932532.854    23932532.6134   23932540.0104
        -0.000          -0.000
  -8049752.337 9  -5932477.57246  23650951.083    23650950.6074   23650958.6214
        -0.000          -0.000
 -12667236.128 9  -9628935.59346  23542760.447    23542760.0574   23542768.6214
        -0.000          -0.000
 -18966297.786 9 -14111869.94548  21412748.448    21412747.9134   21412754.7464
        -0.000          -0.000
 -28948005.984 9 -22533985.84349  20211490.874    20211490.0574   20211496.1804
        -0.000          -0.000
 -21019631.891 9 -16345559.01948  21480778.035    21480777.9474   21480784.1154
        -0.000          -0.000
 -20153073.626 9 -14877971.08948  21640413.339    21640412.2444   21640419.6704
        -0.000          -0.000
 01  1 20  1  5  0.0000000  0  8  4  9  6 17 24  5 30 10            -0.000000008
  -7018700.178 9  -5455838.94645  23951364.297    23951364.1864   23951371.7224
        -0.000          -0.000
  -7962067.810 9  -5864152.02446  23667636.964    23667636.4264   23667644.4754
        -0.000          -0.000
 -12726536.277 9  -9675143.39746  23531475.826    23531475.4294   23531484.1514
        -0.000          -0.000
   -276600.057 8   -201684.22542         0.000           0.0004          0.0004
        -0.000          -0.000
 -18901887.623 9 -14061680.18848  21425005.269    21425004.7984   21425011.5514
        -0.000          -0.000
 -28962329.145 9 -22545146.71849  20208765.265    20208764.4344   20208770.5614
        -0.000          -0.000
 -21090698.101 9 -16400935.22748  21467254.546    21467254.4494   21467260.5754
        -0.000          -0.000
 -20219205.876 9 -14929502.65048  21627828.745    21627827.6364   21627835.0484
        -0.000          -0.000
 01  1 20  1  5 30.0000000  0  7  4  9  6 24  5 30 10               -0.000000008
  -6919742.068 9  -5378728.71746  23970195.416    23970195.3304   23970202.8264
        -0.000          -0.000
  -7874353.829 9  -5795803.51346  23684328.314    23684327.8414   23684335.8544
        -0.000          -0.000
 -12785837.802 9  -9721352.28946  23520191.209    23520190.7904   23520199.3464
        -0.000          -0.000
 -18837232.565 9 -14011299.62048  21437308.681    21437308.2204   21437314.9994
        -0.000          -0.000
 -28976153.253 9 -22555918.72349  20206134.575    20206133.7654   20206139.8974
        -0.000          -0.000
 -21161421.661 9 -16456044.43348  21453796.271    21453796.1864   21453802.3084
        -0.000          -0.000
 -20284918.803 9 -14980707.46548  21615323.916    21615322.8244   21615330.2204
        -0.000          -0.000
 01  1 20  1  6  0.0000000  0  8  4  9  6 17 24  5 30 10            -0.000000007
  -6820786.265 9  -5301620.24846  23989026.262    23989026.0724   23989033.4134
        -0.000          -0.000
  -7786610.816 9  -5727432.39446  23701025.284    23701024.8124   23701032.8904
        -0.000          -0.000
 -12845138.331 9  -9767560.39046  23508906.831    23508906.3624   23508914.7224
        -0.000          -0.000
   -461802.175 8   -345995.86243         0.000           0.0004   25430557.0974
        -0.000          -0.000
 -18772331.891 9 -13960727.65248  21449658.860    21449658.4104   21449665.1564
        -0.000          -0.000
 -28989474.804 9 -22566299.12649  20203599.545    20203598.7304   20203604.8574
        -0.000          -0.000
 -21231797.716 9 -16510882.86448  21440404.080    21440404.0274   21440410.0644
        -0.000          -0.000
 -20350207.023 9 -15031581.33348  21602899.952    21602898.8544   21602906.2094
        -0.000          -0.000
 01  1 20  1  6 30.0000000  0  8  4  9  6 17 24  5 30 10            -0.000000008
  -6721836.470 8  -5224516.45946  24007855.834    24007855.6584   24007862.8774
        -0.000          -0.000
  -7698843.350 9  -5659042.21646  23717726.908    23717726.4204   23717734.5804
        -0.000          -0.000
 -12904439.614 9  -9813769.07446  23497622.072    23497621.6354   23497629.9594
        -0.000          -0.000
   -554213.59017   -418003.95445  25412961.048    25412956.7665   25412970.7174
        -0.000          -0.000
 -18707189.644 9 -13909967.44748  21462055.031    21462054.5194   21462061.3084
        -0.000          -0.000
 -29002294.486 9 -22576288.46449  20201160.002    20201159.1894   20201165.2984
        -0.000          -0.000
 -21301825.584 9 -16565449.97748  21427078.245    21427078.1634   21427084.1774
        -0.000          -0.000
 -20415069.247 9 -15082123.25548  21590557.005    21590555.9294   21590563.2584
        -0.000          -0.000
 01  1 20  1  7  0.0000000  0  8  4  9  6 17 24  5 30 10            -0.000000008
  -6622891.982 9  -5147416.89745  24026684.074    24026683.9234   24026691.4734
        -0.000          -0.000
  -7611051.514 9  -5590633.05146  23734433.125    23734432.7044   23734440.8234
        -0.000          -0.000
 -12963739.288 9  -9859976.48346  23486337.676    23486337.2874   23486345.4904
        -0.000          -0.000
   -646494.985 8   -489910.54245  25395398.948    25395400.8904   25395411.3854
        -0.000          -0.000
 -18641805.464 9 -13859018.72448  21474497.208    21474496.7154   21474503.4864
        -0.000          -0.000
 -29014608.685 9 -22585883.92049  20198816.684    20198815.8614   20198821.9774
        -0.000          -0.000
 -21371500.273 9 -16619741.89648  21413819.524    21413819.4614   21413825.3884
        -0.000          -0.000
 -20479500.503 9 -15132329.36248  21578296.085    21578295.0084   21578302.3464
        -0.000          -0.000
 01  1 20  1  7 30.0000000  0  8  4  9  6 17 24  5 30 10            -0.000000008
  -6523955.677 9  -5070323.62845  24045511.000    24045510.8194   24045518.3044
        -0.000          -0.000
  -7523239.118 9  -5522207.87046  23751143.292    23751142.8754   23751151.0284
        -0.000          -0.000
 -13023038.420 9  -9906183.47846  23475053.361    23475052.9204   23475061.1634
        -0.000          -0.000
   -738646.159 8   -561715.71245  25377862.885    25377860.3244   25377876.3504
        -0.000          -0.000
 -18576183.014 9 -13807884.33148  21486984.756    21486984.2804   21486990.9944
        -0.000          -0.000
 -29026416.842 9 -22595085.05649  20196569.603    20196568.7864   20196574.9064
        -0.000          -0.000
 -21440819.911 9 -16673757.13548  21400628.438    21400628.3334   21400634.3224
        -0.000          -0.000
 -20543498.839 9 -15182198.12648  21566117.569    21566116.4784   21566123.8224
        -0.000          -0.000
 01  1 20  1  8  0.0000000  0  8  4  9  6 17 24  5 30 10            -0.000000008
  -6425030.977 9  -4993239.37446  24064335.844    24064335.6174   24064343.0834
        -0.000          -0.000
  -7435410.441 9  -5453769.99646  23767856.614    23767856.1854   23767864.3274
        -0.000          -0.000
 -13082338.681 9  -9952391.34746  23463768.711    23463768.2624   23463776.5054
        -0.000          -0.000
   -830667.286 9   -633419.68945  25360351.269    25360349.4754   25360364.4344
        -0.000          -0.000
 -18510326.236 9 -13756567.35048  21499516.870    21499516.3754   21499523.1244
        -0.000          -0.000
 -29037719.578 9 -22603892.36149  20194418.760    20194417.9454   20194424.0654
        -0.000          -0.000
 -21509783.576 9 -16727495.00448  21387504.992    21387504.9194   21387510.8424
        -0.000          -0.000
 -20607062.661 9 -15231728.30848  21554021.740    21554020.6524   21554027.9704
        -0.000          -0.000
 01  1 20  1  8 30.0000000  0  8  4  9  6 17 24  5 30 10            -0.000000007
  -6326117.431 9  -4916163.85446  24083158.473    24083158.2174   24083165.7004
        -0.000          -0.000
  -7347565.974 9  -5385319.82046  23784572.944    23784572.4534   23784580.6254
        -0.000          -0.000
 -13141637.949 9  -9998598.45346  23452484.135    23452483.7534   23452491.9684
        -0.000          -0.000
   -922554.903 8   -705019.50045  25342865.182    25342863.5614   25342878.8154
        -0.000          -0.000
 -18444235.201 9 -13705067.83048  21512093.545    21512093.0484   21512099.8194
        -0.000          -0.000
 -29048513.558 9 -22612303.23449  20192364.690    20192363.8574   20192369.9984
        -0.000          -0.000
 -21578386.646 9 -16780951.88248  21374450.218    21374450.1564   21374456.1364
        -0.000          -0.000
 -20670187.188 9 -15280916.18548  21542009.485    21542008.4084   21542015.6994
        -0.000          -0.000
 01  1 20  1  9  0.0000000  0  8  4  9  6 17 24  5 30 10            -0.000000008
  -6227219.612 8  -4839100.57645  24101978.008    24101977.8694   24101985.3094
        -0.000          -0.000
  -7259711.351 9  -5316861.73046  23801291.208    23801290.7094   23801298.9154
        -0.000          -0.000
 -13200939.092 9 -10044807.01046  23441199.442    23441199.0564   23441207.1524
        -0.000          -0.000
  -1014310.525 8   -776516.68945  25325404.243    25325403.1284   25325417.5584
        -0.000          -0.000
 -18377914.692 9 -13653389.50048  21524713.882    21524713.3814   21524720.1884
        -0.000          -0.000
 -29058800.467 9 -22620318.98649  20190407.135    20190406.3034   20190412.4354
        -0.000          -0.000
 -21646629.449 9 -16834128.03748  21361464.012    21361463.9174   21361469.9004
        -0.000          -0.000
 -20732872.386 9 -15329761.72648  21530080.850    21530079.7564   21530087.0474
        -0.000          -0.000
 01  1 20  1  9 30.0000000  0  8  4  9  6 17 24  5 30 10            -0.000000008
  -6128336.047 9  -4762048.43345  24120794.782    24120794.6824   24120802.2444
        -0.000          -0.000
  -7171846.058 9  -5248395.33246  23818011.416    23818010.9344   23818019.1314
        -0.000          -0.000
 -13260238.999 9 -10091014.63946  23429915.233    23429914.7674   23429922.5894
        -0.000          -0.000
  -1105929.590 8   -847907.31145  25307969.229    25307968.1594   25307982.8564
        -0.000          -0.000
 -18311363.843 9 -13601531.68248  21537378.101    21537377.5844   21537384.3594
        -0.000          -0.000
 -29068575.977 9 -22627936.24849  20188546.896    20188546.0804   20188552.1994
        -0.000          -0.000
 -21714506.233 9 -16887018.99948  21348547.462    21348547.4084   21348553.2734
        -0.000          -0.000
 -20795112.230 9 -15378260.23948  21518236.969    21518235.8654   21518243.1624
        -0.000          -0.000
 01  1 20  1 10  0.0000000  0  8  4  9  6 17 24  5 30 10            -0.000000007
  -6029470.212 9  -4685010.08746  24139608.357    24139608.1774   24139615.8114
        -0.000          -0.000
  -7083974.501 9  -5179924.05346  23834732.892    23834732.3784   23834740.5534
        -0.000          -0.000
 -13319539.589 9 -10137222.77747  23418630.851    23418630.3404   23418638.0804
        -0.000          -0.000
  -1197412.562 8   -919192.05945  25290560.099    25290559.0334   25290573.3744
        -0.000          -0.000
 -18244586.973 9 -13549497.75048  21550085.228    21550084.7274   21550091.5614
        -0.000          -0.000
 -29077841.010 9 -22635155.73449  20186783.801    20186782.9714   20186789.0864
        -0.000          -0.000
 -21782016.086 9 -16939624.02248  21335700.690    21335700.6224   21335706.5324
        -0.000          -0.000
 -20856905.593 9 -15426410.84648  21506478.026    21506476.9264   21506484.2234
        -0.000          -0.000
 01  1 20  1 10 30.0000000  0  8  4  9  6 17 24  5 30 10            -0.000000008
  -5930624.973 9  -4607987.78646  24158417.960    24158417.8664   24158425.4654
        -0.000          -0.000
  -6996100.366 9  -5111450.76046  23851454.699    23851454.2924   23851462.5284
        -0.000          -0.000
 -13378841.584 9 -10183432.01347  23407345.964    23407345.4524   23407353.3514
        -0.000          -0.000
  -1288758.978 8   -990370.36345  25273176.625    25273175.5664   25273190.1904
        -0.000          -0.000
 -18177587.291 9 -13497290.18548  21562834.850    21562834.3804   21562841.1444
        -0.000          -0.000
 -29086595.380 9 -22641977.29949  20185117.925    20185117.0944   20185123.1914
        -0.000          -0.000
 -21849157.460 9 -16991941.92948  21322924.137    21322923.9974   21322929.8334
        -0.000          -0.000
 -20918250.262 9 -15474211.81848  21494804.434    21494803.3774   21494810.6574
        -0.000          -0.000
 01  1 20  1 11  0.0000000  0  8  4  9  6 17 24  5 30 10            -0.000000007
  -5831799.130 9  -4530980.58445  24177223.872    24177223.8574   24177231.2254
        -0.000          -0.000
  -6908223.626 9  -5042975.44446  23868177.077    23868176.6854   23868185.0174
        -0.000          -0.000
 -13438142.615 9 -10229640.48247  23396061.113    23396060.6354   23396068.7324
        -0.000          -0.000
  -1379964.700 8  -1061439.12945  25255820.246    25255819.3314   25255833.6824
        -0.000          -0.000
 -18110364.109 9 -13444908.47648  21575626.975    21575626.5244   21575633.2844
        -0.000          -0.000
 -29094835.283 9 -22648397.98349  20183549.911    20183549.0904   20183555.1354
        -0.000          -0.000
 -21915925.464 9 -17043968.89548  21310218.535    21310218.4434   21310224.3164
        -0.000          -0.000
 -20979140.995 9 -15521659.07648  21483217.251    21483216.1794   21483223.4434
        -0.000          -0.000
 01  1 20  1 11 30.0000000  0  8  4  9  6 17 24  5 30 10            -0.000000007
  -5732996.988 9  -4453991.84945  24196025.163    24196025.1214   24196032.4854
        -0.000          -0.000
  -6820349.345 9  -4974502.04446  23884899.109    23884898.6494   23884906.9504
        -0.000          -0.000
 -13497445.132 9 -10275850.11746  23384775.927    23384775.5274   23384783.7484
        -0.000          -0.000
  -1471031.157 9  -1132399.39345  25238490.450    25238489.5494   25238503.8364
        -0.000          -0.000
 -18042922.243 9 -13392356.35948  21588460.754    21588460.2904   21588467.0864
        -0.000          -0.000
 -29102562.097 9 -22654418.85949  20182079.563    20182078.7284   20182084.7494
        -0.000          -0.000
 -21982319.635 9 -17095704.55748  21297584.068    21297583.9794   21297589.8454
        -0.000          -0.000
 -21039577.819 9 -15568752.64248  21471716.475    21471715.3714   21471722.6014
        -0.000          -0.000
 01  1 20  1 12  0.0000000  0  8  4  9  6 17 24  5 30 10            -0.000000007
  -5634219.276 9  -4377022.17545  24214821.859    24214821.7884   24214829.2764
        -0.000          -0.000
  -6732479.321 9  -4906031.96146  23901620.251    23901619.7434   23901628.0764
        -0.000          -0.000
 -13556747.932 9 -10322059.98546  23373490.887    23373490.4304   23373498.6324
        -0.000          -0.000
  -1561955.919 9  -1203249.34645  25221187.671    25221186.9274   25221200.5984
        -0.000          -0.000
 -17975262.711 9 -13339634.63248  21601335.885    21601335.3974   21601342.1834
        -0.000          -0.000
 -29109773.665 9 -22660038.24749  20180707.236    20180706.3984   20180712.3844
        -0.000          -0.000
 -22048336.576 9 -17147146.28048  21285021.453    21285021.3364   21285027.1894
        -0.000          -0.000
 -21099556.483 9 -15615489.20848  21460302.914    21460301.7924   21460308.9784
        -0.000          -0.000
 01  1 20  1 12 30.0000000  0  8  4  9  6 17 24  5 30 10            -0.000000007
  -5535468.646 9  -4300073.58346  24233613.580    24233613.4784   24233620.8914
        -0.000          -0.000
  -6644617.012 9  -4837567.90246  23918339.944    23918339.4184   23918347.7664
        -0.000          -0.000
 -13616052.130 9 -10368270.94447  23362205.665    23362205.2524   23362213.2564
        -0.000          -0.000
  -1652738.580 8  -1273988.50845  25203912.097    25203911.3764   25203924.8634
        -0.000          -0.000
 -17907389.048 9 -13286746.04948  21614251.760    21614251.3154   21614258.1274
        -0.000          -0.000
 -29116470.240 9 -22665256.34049  20179432.907    20179432.0704   20179438.0664
        -0.000          -0.000
 -22113974.793 9 -17198292.88748  21272530.838    21272530.7434   21272536.6144
        -0.000          -0.000
 -21159075.642 9 -15661867.71548  21448976.751    21448975.6434   21448982.7494
        -0.000          -0.000
 01  1 20  1 13  0.0000000  0  8  4  9  6 17 24  5 30 10            -0.000000006
  -5436746.463 9  -4223147.15046  24252399.783    24252399.7434   24252407.1634
        -0.000          -0.000
  -6556764.901 9  -4769111.78246  23935057.574    23935057.1644   23935065.5474
        -0.000          -0.000
 -13675357.122 9 -10414482.51647  23350920.461    23350920.0244   23350927.7824
        -0.000          -0.000
  -1743377.552 9  -1344615.75545  25186663.479    25186662.8174   25186676.1314
        -0.000          -0.000
 -17839303.183 9 -13233692.11548  21627208.071    21627207.6154   21627214.4294
        -0.000          -0.000
 -29122650.431 9 -22670072.05649  20178256.860    20178256.0244   20178262.0094
        -0.000          -0.000
 -22179231.365 9 -17249142.10948  21260112.902    21260112.8004   21260118.6524
        -0.000          -0.000
 -21218132.356 9 -15707885.87448  21437738.581    21437737.4734   21437744.5594
        -0.000          -0.000
 01  1 20  1 13 30.0000000  0  8  4  9  6 17 24  5 30 10            -0.000000007
  -5338054.696 8  -4146244.46145  24271179.933    24271179.7524   24271187.3814
        -0.000          -0.000
  -6468926.234 9  -4700666.12846  23951772.758    23951772.3334   23951780.7314
        -0.000          -0.000
 -13734663.702 9 -10460695.33446  23339634.772    23339634.2884   23339641.9714
        -0.000          -0.000
  -1833871.981 8  -1415130.33345  25169442.510    25169441.5914   25169455.1834
        -0.000          -0.000
 -17771007.802 9 -13180474.91748  21640204.265    21640203.7994   21640210.5734
        -0.000          -0.000
 -29128313.599 9 -22674484.89849  20177179.167    20177178.3304   20177184.3154
        -0.000          -0.000
 -22244104.437 9 -17299692.50548  21247767.924    21247767.8174   21247773.6514
        -0.000          -0.000
 -21276724.131 9 -15753541.74648  21426588.886    21426587.7924   21426594.8504
        -0.000          -0.000
 01  1 20  1 14  0.0000000  0  8  4  9  6 17 24  5 30 10            -0.000000007
  -5239393.874 9  -4069365.84545  24289954.476    24289954.3244   24289961.7224
        -0.000          -0.000
  -6381102.206 9  -4632231.89546  23968485.245    23968484.7634   23968493.2084
        -0.000          -0.000
 -13793970.380 9 -10506908.23246  23328348.772    23328348.3224   23328356.1664
        -0.000          -0.000
  -1924219.035 8  -1485530.09745  25152249.383    25152248.6214   25152261.9684
        -0.000          -0.000
 -17702503.935 9 -13127095.26248  21653240.126    21653239.6544   21653246.4394
        -0.000          -0.000
 -29133457.387 9 -22678493.03049  20176200.305    20176199.4784   20176205.4664
        -0.000          -0.000
 -22308590.005 9 -17349940.94448  21235496.723    21235496.6024   21235502.4444
        -0.000          -0.000
 -21334846.881 9 -15798832.14648  21415528.446    21415527.3394   21415534.3904
        -0.000          -0.000
 01  1 20  1 14 30.0000000  0  8  4  9  6 17 24  5 30 10            -0.000000006
  -5140765.763 9  -3992512.67946  24308722.991    24308722.8514   24308729.9614
        -0.000          -0.000
  -6293295.627 9  -4563811.25746  23985194.302    23985193.8464   23985202.3894
        -0.000          -0.000
 -13853277.266 9 -10553121.27346  23317062.672    23317062.2554   23317070.4094
        -0.000          -0.000
  -2014417.931 9  -1555814.39445  25135084.646    25135083.7754   25135097.2014
        -0.000          -0.000
 -17633793.856 9 -13073554.92548  21666315.231    21666314.7224   21666321.5474
        -0.000          -0.000
 -29138081.394 9 -22682096.13549  20175320.369    20175319.5274   20175325.5234
        -0.000          -0.000
 -22372685.792 9 -17399885.65348  21223299.627    21223299.5164   21223305.3564
        -0.000          -0.000
 -21392498.191 9 -15843755.18748  21404557.700    21404556.5944   21404563.6284
        -0.000          -0.000
 01  1 20  1 15  0.0000000  0  8  4  9  6 17 24  5 30 10            -0.000000006
  -5042173.680 8  -3915687.61845  24327484.476    24327484.2344   24327491.4314
        -0.000          -0.000
  -6205510.657 9  -4495407.47446  24001899.344    24001898.8114   24001907.3784
        -0.000          -0.000
 -13912586.080 9 -10599335.83046  23305776.356    23305775.9474   23305784.1664
        -0.000          -0.000
  -2104468.966 8  -1625983.55245  25117948.161    25117947.4794   25117960.3014
        -0.000          -0.000
 -17564881.609 9 -13019857.05448  21679428.748    21679428.2344   21679435.0644
        -0.000          -0.000
 -29142186.258 9 -22685294.71649  20174539.222    20174538.3984   20174544.3944
        -0.000          -0.000
 -22436390.964 9 -17449525.99748  21211176.924    21211176.8284   21211182.5994
        -0.000          -0.000
 -21449676.997 9 -15888310.04348  21393676.880    21393675.7674   21393682.8224
        -0.000          -0.000
 01  1 20  1 15 30.0000000  0  8  4  9  6 17 24  5 30 10             0.000000010
  -4943621.421 8  -3838893.65945  24346238.097    24346237.9304   24346245.3824
        -0.000          -0.000
  -6117752.225 9  -4427024.34646  24018599.261    24018598.8204   24018607.3424
        -0.000          -0.000
 -13971899.068 9 -10645553.66046  23294489.452    23294489.0104   23294496.9924
        -0.000          -0.000
  -2194373.064 9  -1696038.22045  25100839.658    25100838.7814   25100851.5484
        -0.000          -0.000
 -17495771.724 9 -12966005.17348  21692579.850    21692579.3804   21692586.2104
        -0.000          -0.000
 -29145773.229 9 -22688089.74249  20173856.642    20173855.8104   20173861.7884
        -0.000          -0.000
 -22499705.280 9 -17498861.76848  21199128.478    21199128.4294   21199134.2334
        -0.000          -0.000
 -21506382.892 9 -15932496.39148  21382886.081    21382884.9874   21382891.9834
        -0.000          -0.000
 01  1 20  1 16  0.0000000  0  8  4  9  6 17 24  5 30 10             0.000000006
  -4845111.301 9  -3762132.46845  24364983.910    24364983.7124   24364991.1554
        -0.000          -0.000
  -6030023.499 9  -4358664.37346  24035293.507    24035293.0624   24035301.6074
        -0.000          -0.000
 -14031216.692 9 -10691775.11646  23283201.798    23283201.3254   23283208.9054
        -0.000          -0.000
  -2284129.649 9  -1765977.95845  25083759.183    25083758.2864   25083770.8574
        -0.000          -0.000
 -17426466.411 9 -12912001.02048  21705768.220    21705767.7404   21705774.5714
        -0.000          -0.000
 -29148841.950 9 -22690480.93849  20173272.691    20173271.8454   20173277.8174
        -0.000          -0.000
 -22562626.881 9 -17547891.53148  21187154.887    21187154.7784   21187160.5634
        -0.000          -0.000
 -21562613.865 9 -15976312.67548  21372185.676    21372184.5454   21372191.5374
        -0.000          -0.000
 01  1 20  1 16 30.0000000  0  8  4  9  6 17 24  5 30 10             0.000000003
  -4746637.821 9  -3685399.82045  24383722.863    24383722.7004   24383729.8064
        -0.000          -0.000
  -5942320.013 9  -4290324.07046  24051982.987    24051982.5494   24051991.1154
        -0.000          -0.000
 -14090531.869 9 -10737994.66847  23271914.534    23271914.0494   23271921.3154
        -0.000          -0.000
  -2373730.197 8  -1835796.14145  25066708.493    25066707.5014   25066720.0454
        -0.000          -0.000
 -17356961.330 9 -12857841.20248  21718994.522    21718994.0534   21719000.8684
        -0.000          -0.000
 -29151384.608 9 -22692462.21349  20172788.807    20172787.9704   20172793.9284
        -0.000          -0.000
 -22625146.039 9 -17596607.70848  21175257.886    21175257.7844   21175263.4864
        -0.000          -0.000
 -21618360.076 9 -16019751.22048  21361577.446    21361576.3294   21361583.3124
        -0.000          -0.000
 01  1 20  1 17  0.0000000  0  8  4  9  6 17 24  5 30 10             0.000000001
  -4648206.298 8  -3608699.84245  24402453.829    24402453.6934   24402460.6344
        -0.000          -0.000
  -5854648.124 9  -4222008.39346  24068666.527    24068665.9094   24068674.5414
        -0.000          -0.000
 -14149848.362 9 -10784215.24947  23260627.034    23260626.5334   23260633.7584
        -0.000          -0.000
  -2463177.421 8  -1905494.83245  25049686.651    25049685.5144   25049698.1124
        -0.000          -0.000
 -17287262.201 9 -12803530.17448  21732257.858    21732257.3714   21732264.1934
        -0.000          -0.000
 -29153404.295 9 -22694035.98149  20172404.445    20172403.6164   20172409.5754
        -0.000          -0.000
 -22687264.038 9 -17645011.29348  21163437.150    21163437.0774   21163442.7224
        -0.000          -0.000
 -21673622.891 9 -16062813.09148  21351061.237    21351060.1094   21351067.0634
        -0.000          -0.000
 01  1 20  1 17 30.0000000  0  8  4  9  6 17 24  5 30 10             0.000000000
  -4549814.853 8  -3532031.13545  24421176.990    24421176.7524   24421183.9244
        -0.000          -0.000
  -5767007.328 9  -4153716.92546  24085344.008    24085343.4244   24085352.0684
        -0.000          -0.000
 -14209162.821 9 -10830434.22947  23249339.951    23249339.4974   23249346.7694
        -0.000          -0.000
  -2552466.932 8  -1975070.63745  25032694.975    25032693.9774   25032706.7174
        -0.000          -0.000
 -17217367.823 9 -12749067.01148  21745558.245    21745557.7844   21745564.6474
        -0.000          -0.000
 -29154896.871 9 -22695199.01049  20172120.416    20172119.5724   20172125.5064
        -0.000          -0.000
 -22748975.231 9 -17693097.88048  21151693.915    21151693.7974   21151699.4544
        -0.000          -0.000
 -21728396.451 9 -16105493.71948  21340638.154    21340637.0054   21340643.9424
        -0.000          -0.000
 01  1 20  1 18  0.0000000  0  8  4  9  6 17 24  5 30 10            -0.000000001
  -4451468.799 8  -3455397.81445  24439891.481    24439891.4064   24439898.5934
        -0.000          -0.000
  -5679403.789 9  -4085454.50446  24102014.360    24102013.8734   24102022.5764
        -0.000          -0.000
 -14268478.666 9 -10876654.29947  23238052.485    23238052.0124   23238059.5184
        -0.000          -0.000
  -2641600.941 9  -2044525.30045  25015733.002    25015732.0904   25015744.6514
        -0.000          -0.000
 -17147284.347 9 -12694456.48948  21758894.736    21758894.2514   21758901.0784
        -0.000          -0.000
 -29155865.146 9 -22695953.49249  20171936.153    20171935.3104   20171941.2564
        -0.000          -0.000
 -22810280.887 9 -17740868.47748  21140027.787    21140027.6934   21140033.2464
        -0.000          -0.000
 -21782681.949 9 -16147794.03848  21330307.881    21330306.7464   21330313.6884
        -0.000          -0.000
 01  1 20  1 18 30.0000000  0  8  4  9  6 17 24  5 30 10            -0.000000001
  -4353168.513 9  -3378800.14145  24458597.395    24458597.2674   24458604.5464
        -0.000          -0.000
  -5591838.588 9  -4017221.95146  24118677.598    24118677.0474   24118685.6474
        -0.000          -0.000
 -14327794.380 9 -10922874.24847  23226764.907    23226764.4264   23226772.1654
        -0.000          -0.000
  -2730576.789 8  -2113856.74645  24998801.153    24998800.3814   24998812.6704
        -0.000          -0.000
 -17077012.598 9 -12639699.26348  21772267.006    21772266.5234   21772273.2714
        -0.000          -0.000
 -29156306.948 9 -22696297.73649  20171852.056    20171851.2084   20171857.1594
        -0.000          -0.000
 -22871177.179 9 -17788320.07348  21128439.549    21128439.4664   21128445.0884
        -0.000          -0.000
 -21836475.262 9 -16189710.83848  21320071.316    21320070.1834   21320077.1144
        -0.000          -0.000
 01  1 20  1 19  0.0000000  0  8  4  9  6 17 24  5 30 10            -0.000000002
  -4254917.924 9  -3302241.17245  24477293.864    24477293.6524   24477300.9584
        -0.000          -0.000
  -5504316.870 9  -3949023.28546  24135332.465    24135331.9374   24135340.5964
        -0.000          -0.000
 -14387112.497 9 -10969096.07347  23215476.784    23215476.3114   23215484.2734
        -0.000          -0.000
  -2819395.919 9  -2183066.12045  24981899.110    24981898.2234   24981910.4624
        -0.000          -0.000
 -17006557.159 9 -12584798.90948  21785674.219    21785673.7024   21785680.4654
        -0.000          -0.000
 -29156224.066 9 -22696233.13249  20171867.817    20171866.9774   20171872.9424
        -0.000          -0.000
 -22931664.237 9 -17835452.79548  21116929.208    21116929.1144   21116934.6964
        -0.000          -0.000
 -21889776.381 9 -16231244.11048  21309928.366    21309927.2744   21309934.1654
        -0.000          -0.000
 01  1 20  1 19 30.0000000  0  8  4  9  6 17 24  5 30 10            -0.000000001
  -4156715.045 8  -3225719.35245  24495981.174    24495981.1054   24495988.2154
        -0.000          -0.000
  -5416837.838 9  -3880857.87146  24151979.209    24151978.6834   24151987.3644
        -0.000          -0.000
 -14446429.455 9 -11015317.00146  23204188.900    23204188.4754   23204196.4834
        -0.000          -0.000
  -2908053.656 8  -2252149.72145  24965027.877    24965027.0124   24965039.0754
        -0.000          -0.000
 -16935917.027 9 -12529754.63848  21799116.547    21799116.0464   21799122.8294
        -0.000          -0.000
 -29155612.527 9 -22695756.59149  20171984.146    20171983.3174   20171989.2714
        -0.000          -0.000
 -22991736.220 9 -17882262.08448  21105497.847    21105497.7584   21105503.3574
        -0.000          -0.000
 -21942579.442 9 -16272389.28148  21299880.240    21299879.1514   21299886.0164
        -0.000          -0.000
 01  1 20  1 20  0.0000000  0  8  4  9  6 17 24  5 30 10            -0.000000002
  -4058565.212 8  -3149238.89345  24514658.324    24514658.2874   24514665.0894
        -0.000          -0.000
  -5329407.800 9  -3812730.65246  24168616.643    24168616.1054   24168624.8674
        -0.000          -0.000
 -14505749.011 9 -11061539.96147  23192900.636    23192900.2004   23192908.1174
        -0.000          -0.000
  -2996552.618 8  -2321109.61745  24948186.694    24948185.8904   24948198.0104
        -0.000          -0.000
 -16865097.681 9 -12474570.72248  21812593.031    21812592.5174   21812599.3654
        -0.000          -0.000
 -29154475.310 9 -22694870.42749  20172200.527    20172199.6874   20172205.6354
        -0.000          -0.000
 -23051394.437 9 -17928748.95948  21094145.208    21094145.1474   21094150.7464
        -0.000          -0.000
 -21994885.726 9 -16313147.35548  21289926.600    21289925.5024   21289932.3834
        -0.000          -0.000
 01  1 20  1 20 30.0000000  0  8  4  9  6 17 24  5 30 10            -0.000000002
  -3960467.280 8  -3072798.93845  24533325.661    24533325.5534   24533332.5324
        -0.000          -0.000
  -5242026.474 9  -3744641.37146  24185244.802    24185244.2744   24185252.9854
        -0.000          -0.000
 -14565068.106 9 -11107762.54247  23181612.583    23181612.1244   23181619.8244
        -0.000          -0.000
  -3084888.945 8  -2389942.75045  24931376.553    24931375.7294   24931387.5434
        -0.000          -0.000
 -16794098.763 9 -12419246.87748  21826103.678    21826103.1934   21826109.9384
        -0.000          -0.000
 -29152808.863 9 -22693571.87649  20172517.613    20172516.7774   20172522.7194
        -0.000          -0.000
 -23110633.446 9 -17974909.17248  21082872.326    21082872.2514   21082877.8784
        -0.000          -0.000
 -22046690.034 9 -16353514.28448  21280068.515    21280067.4164   21280074.3024
        -0.000          -0.000
 01  1 20  1 21  0.0000000  0  8  4  9  6 17 24  5 30 10            -0.000000001
  -3862424.544 9  -2996401.94945  24551982.623    24551982.3864   24551989.4394
        -0.000          -0.000
  -5154698.548 9  -3676593.72846  24201862.828    24201862.2994   24201871.0804
        -0.000          -0.000
 -14624388.411 9 -11153986.08647  23170324.327    23170323.8784   23170331.2954
        -0.000          -0.000
  -3173063.223 8  -2458649.67445  24914597.394    24914596.6154   24914608.3024
        -0.000          -0.000
 -16722924.306 9 -12363786.24748  21839647.734    21839647.1874   21839653.9344
        -0.000          -0.000
 -29150614.308 9 -22691861.81249  20172935.220    20172934.3884   20172940.3254
        -0.000          -0.000
 -23169452.934 9 -18020742.49548  21071679.343    21071679.2504   21071684.8874
        -0.000          -0.000
 -22097991.771 9 -16393489.59848  21270306.079    21270304.9844   21270311.8424
        -0.000          -0.000
 01  1 20  1 21 30.0000000  0  8  4  9  6 17 24  5 30 10            -0.000000001
  -3764438.711 9  -2920049.26345  24570628.767    24570628.4584   24570635.4864
        -0.000          -0.000
  -5067426.497 9  -3608589.58946  24218470.244    24218469.6614   24218478.4524
        -0.000          -0.000
 -14683710.022 9 -11200210.65447  23159035.881    23159035.4444   23159042.5304
        -0.000          -0.000
  -3261074.371 9  -2527229.42645  24897849.225    24897848.3674   24897860.0184
        -0.000          -0.000
 -16651576.644 9 -12308190.65448  21853224.744    21853224.2384   21853230.9784
        -0.000          -0.000
 -29147891.294 9 -22689739.96349  20173453.351    20173452.5204   20173458.4654
        -0.000          -0.000
 -23227850.755 9 -18066247.24248  21060566.508    21060566.4434   21060572.0644
        -0.000          -0.000
 -22148788.430 9 -16433071.35348  21260639.740    21260638.6464   21260645.4934
        -0.000          -0.000
 01  1 20  1 22  0.0000000  0  8  4  9  6 17 24  5 30 10            -0.000000002
  -3666510.624 8  -2843741.61245  24589263.616    24589263.3084   24589270.6784
        -0.000          -0.000
  -4980212.365 9  -3540630.61246  24235066.474    24235065.9524   24235074.7634
        -0.000          -0.000
 -14743032.518 9 -11246435.89747  23147747.297    23147746.8584   23147753.6824
        -0.000          -0.000
  -3348920.766 9  -2595680.81745  24881132.420    24881131.4224   24881142.9134
        -0.000          -0.000
 -16580057.477 9 -12252461.42548  21866834.319    21866833.8364   21866840.5724
        -0.000          -0.000
 -29144638.734 9 -22687205.47749  20174072.261    20174071.4314   20174077.3964
        -0.000          -0.000
 -23285824.065 9 -18111421.20848  21049534.539    21049534.4514   21049540.0514
        -0.000          -0.000
 -22199077.494 9 -16472257.57148  21251069.983    21251068.8914   21251075.7424
        -0.000          -0.000
 01  1 20  1 22 30.0000000  0  8  4  9  6 17 24  5 30 10            -0.000000002
  -3568640.988 8  -2767479.49545  24607887.413    24607887.1544   24607894.5424
        -0.000          -0.000
  -4893057.714 9  -3472717.96846  24251651.477    24251650.9624   24251659.8444
        -0.000          -0.000
 -14802354.757 9 -11292660.92547  23136458.612    23136458.1544   23136465.0434
        -0.000          -0.000
  -3436600.417 8  -2664002.32345  24864447.267    24864446.3934   24864457.7644
        -0.000          -0.000
 -16508368.432 9 -12196599.81748  21880476.389    21880475.8724   21880482.5154
        -0.000          -0.000
 -29140855.233 9 -22684257.27549  20174792.218    20174791.4034   20174797.3604
        -0.000          -0.000
 -23343369.190 9 -18156261.51948  21038583.998    21038583.9514   21038589.5354
        -0.000          -0.000
 -22248855.648 9 -16511045.69348  21241597.429    21241596.3694   21241603.2024
        -0.000          -0.000
 01  1 20  1 23  0.0000000  0  8  4  9  6 17 24  5 30 10            -0.000000014
  -3470832.191 8  -2691264.76945  24626499.762    24626499.4294   24626507.0014
        -0.000          -0.000
  -4805965.939 9  -3404854.33346  24268224.472    24268224.0484   24268233.0014
        -0.000          -0.000
 -14861677.477 9 -11338886.30447  23125169.535    23125169.1004   23125176.4894
        -0.000          -0.000
  -3524113.041 8  -2732193.64945  24847793.894    24847792.9824   24847804.4154
        -0.000          -0.000
 -16436511.862 9 -12140607.67348  21894150.199    21894149.6864   21894156.3414
        -0.000          -0.000
 -29136541.239 9 -22680895.70249  20175613.136    20175612.3044   20175618.2634
        -0.000          -0.000
 -23400484.968 9 -18200767.27348  21027715.209    21027715.1364   21027720.6614
        -0.000          -0.000
 -22298121.283 9 -16549434.44548  21232222.430    21232221.3694   21232228.1954
        -0.000          -0.000
 01  1 20  1 23 30.0000000  0  8  4  9  6 17 24  5 30 10            -0.000000013
  -3373083.479 8  -2615096.91945  24645100.798    24645100.5124   24645107.8714
        -0.000          -0.000
  -4718937.538 9  -3337040.06746  24284785.603    24284785.0534   24284794.0064
        -0.000          -0.000
 -14920998.384 9 -11385110.27347  23113880.803    23113880.4044   23113888.2114
        -0.000          -0.000
  -3611455.460 9  -2800252.33745  24831172.723    24831171.7384   24831183.1924
        -0.000          -0.000
 -16364487.943 9 -12084485.12148  21907855.916    21907855.3784   21907862.1014
        -0.000          -0.000
 -29131693.933 9 -22677118.55849  20176535.571    20176534.7264   20176540.6714
        -0.000          -0.000
 -23457167.062 9 -18244935.08948  21016928.901    21016928.8234   21016934.3514
        -0.000          -0.000
 -22346870.056 9 -16587420.44848  21222945.823    21222944.7414   21222951.5254
        -0.000          -0.000
 01  1 20  1 24  0.0000000  0  8  4  9  6 17 24  5 30 10            -0.000000012
  -3275399.763 8  -2538979.68845  24663689.478    24663689.1834   24663696.2504
        -0.000          -0.000
  -4631978.626 9  -3269279.96946  24301333.530    24301332.8974   24301341.9244
        -0.000          -0.000
 -14980320.916 9 -11431335.50547  23102592.041    23102591.6384   23102599.5254
        -0.000          -0.000
  -3698630.046 8  -2868180.31045  24814583.644    24814582.6644   24814593.9984
        -0.000          -0.000
 -16292302.298 9 -12028236.54748  21921592.365    21921591.8284   21921598.4984
        -0.000          -0.000
 -29126316.242 9 -22672928.13149  20177558.882    20177558.0474   20177563.9734
        -0.000          -0.000
 -23513416.536 9 -18288765.80248  21006224.985    21006224.9034   21006230.4474
        -0.000          -0.000
 -22395103.177 9 -16625004.64948  21213767.358    21213766.2654   21213773.0084
        -0.000          -0.000
 01  1 20  1 24 30.0000000  0  8  4  9  6 17 24  5 30 10            -0.000000012
  -3177782.408 8  -2462914.18145  24682265.462    24682265.0744   24682272.0954
        -0.000          -0.000
  -4545091.181 9  -3201575.53346  24317867.680    24317867.1214   24317876.0184
        -0.000          -0.000
 -15039644.663 9 -11477561.70447  23091303.238    23091302.8034   23091310.5914
        -0.000          -0.000
  -3785635.186 8  -2935976.22045  24798026.897    24798025.8754   24798037.0764
        -0.000          -0.000
 -16219957.075 9 -11971863.62948  21935359.188    21935358.6374   21935365.2774
        -0.000          -0.000
 -29120407.322 9 -22668323.76249  20178683.291    20178682.4594   20178688.3944
        -0.000          -0.000
 -23569230.683 9 -18332257.30448  20995603.890    20995603.8064   20995609.3274
        -0.000          -0.000
 -22442817.835 9 -16662184.85348  21204687.523    21204686.4214   21204693.1074
        -0.000          -0.000
 01  1 20  1 25  0.0000000  0  8  4  9  6 17 24  5 30 10            -0.000000012
  -3080231.650 8  -2386900.55045  24700828.662    24700828.4424   24700835.3984
        -0.000          -0.000
  -4458277.036 9  -3133928.23546  24334387.975    24334387.4244   24334396.2954
        -0.000          -0.000
 -15098968.565 9 -11523788.01247  23080014.339    23080013.8394   23080021.4864
        -0.000          -0.000
  -3872469.027 9  -3003638.63445  24781502.717    24781501.7834   24781512.8734
        -0.000          -0.000
 -16147453.425 9 -11915367.26848  21949156.150    21949155.6364   21949162.2894
        -0.000          -0.000
 -29113965.886 9 -22663304.44249  20179909.025    20179908.1904   20179914.1414
        -0.000          -0.000
 -23624606.301 9 -18375407.08948  20985066.212    20985066.1314   20985071.6354
        -0.000          -0.000
 -22490010.935 9 -16698958.64348  21195706.920    21195705.8184   21195712.5074
        -0.000          -0.000
 01  1 20  1 25 30.0000000  0  8  4  9  6 17 24  5 30 10            -0.000000012
  -2982749.513 9  -2310940.29445  24719378.829    24719378.7804   24719385.3964
        -0.000          -0.000
  -4371538.935 9  -3066340.18846  24350893.765    24350893.1974   24350902.1184
        -0.000          -0.000
 -15158292.614 9 -11570014.44447  23068725.180    23068724.6944   23068732.2724
        -0.000          -0.000
  -3959130.916 9  -3071167.12145  24765011.306    24765010.3904   24765021.3584
        -0.000          -0.000
 -16074793.964 9 -11858749.48948  21962982.756    21962982.2434   21962988.8634
        -0.000          -0.000
 -29106991.869 9 -22657870.13049  20181236.128    20181235.2924   20181241.2134
        -0.000          -0.000
 -23679541.606 9 -18418213.78048  20974612.325    20974612.2184   20974617.7314
        -0.000          -0.000
 -22536680.592 9 -16735324.56048  21186825.950    21186824.8464   21186831.5304
        -0.000          -0.000
 01  1 20  1 26  0.0000000  0  8  4  9  6 17 24  5 30 10            -0.000000013
  -2885337.729 9  -2235034.95645  24737915.708    24737915.6174   24737922.2784
        -0.000          -0.000
  -4284879.945 9  -2998813.77446  24367384.401    24367383.8514   24367392.8324
        -0.000          -0.000
 -15217617.259 9 -11616241.35247  23057435.910    23057435.4704   23057442.8564
        -0.000          -0.000
  -4045620.467 9  -3138561.27445  24748552.681    24748551.7754   24748562.7444
        -0.000          -0.000
 -16001981.180 9 -11802012.23748  21976838.585    21976838.0514   21976844.6444
        -0.000          -0.000
 -29099485.234 9 -22652020.78649  20182664.576    20182663.7434   20182669.6504
        -0.000          -0.000
 -23734034.653 9 -18460675.85348  20964242.610    20964242.4974   20964247.9894
        -0.000          -0.000
 -22582825.227 9 -16771281.36348  21178044.886    21178043.7664   21178050.4814
        -0.000          -0.000
 01  1 20  1 26 30.0000000  0  8  4  9  6 17 24  5 30 10            -0.000000013
  -2787995.658 8  -2159183.96945  24756439.217    24756439.0944   24756445.9294
        -0.000          -0.000
  -4198300.147 9  -2931349.08546  24383860.089    24383859.5354   24383868.5054
        -0.000          -0.000
 -15276940.109 9 -11662466.85647  23046147.067    23046146.6354   23046153.6854
        -0.000          -0.000
  -4131933.868 9  -3205818.19345  24732127.455    24732126.6444   24732137.6464
        -0.000          -0.000
 -15929014.629 9 -11745155.16948  21990723.694    21990723.1094   21990729.7054
        -0.000          -0.000
 -29091443.374 9 -22645754.38649  20184194.881    20184194.0534   20184199.9474
        -0.000          -0.000
 -23788080.898 9 -18502789.77348  20953957.915    20953957.8374   20953963.2864
        -0.000          -0.000
 -22628440.267 9 -16806825.50248  21169364.556    21169363.4554   21169370.1614
        -0.000          -0.000
 01  1 20  1 27  0.0000000  0  8  4  9  6 17 24  5 30 10            -0.000000014
  -2690727.462 8  -2083390.55345  24774948.622    24774948.4014   24774955.4814
        -0.000          -0.000
  -4111805.028 9  -2863950.37046  24400319.564    24400319.0004   24400328.0734
        -0.000          -0.000
 -15336263.990 9 -11708693.17547  23034858.087    23034857.6304   23034864.4404
        -0.000          -0.000
  -4218073.016 9  -3272939.35345  24715735.584    24715734.6934   24715745.5894
        -0.000          -0.000
 -15855899.645 9 -11688182.43848  22004636.951    22004636.3974   22004643.0284
        -0.000          -0.000
 -29082868.861 9 -22639072.93349  20185826.551    20185825.7344   20185831.5914
        -0.000          -0.000
 -23841681.095 9 -18544556.11748  20943758.095    20943757.9984   20943763.5054
        -0.000          -0.000
 -22673526.510 9 -16841957.58448  21160784.904    21160783.8044   21160790.4774
        -0.000          -0.000
 01  1 20  1 27 30.0000000  0  8  4  9  6 17 24  5 30 10            -0.000000013
  -2593531.707 9  -2007653.60745  24793444.332    24793444.1454   24793451.2554
        -0.000          -0.000
  -4025394.144 9  -2796617.31446  24416763.094    24416762.4184   24416771.6954
        -0.000          -0.000
 -15395585.746 9 -11754917.83547  23023569.388    23023568.9164   23023575.8654
        -0.000          -0.000
  -4304034.098 8  -3339921.78145  24699377.566    24699376.5784   24699387.3534
        -0.000          -0.000
 -15782635.564 9 -11631093.51648  22018578.619    22018578.0464   22018584.6984
        -0.000          -0.000
 -29073758.486 9 -22631973.92549  20187560.184    20187559.3534   20187565.2324
        -0.000          -0.000
 -23894830.082 9 -18585970.87348  20933644.114    20933644.0304   20933649.5224
        -0.000          -0.000
 -22718078.896 9 -16876673.67948  21152306.825    21152305.7344   21152312.4074
        -0.000          -0.000
 01  1 20  1 28  0.0000000  0  8  4  9  6 17 24  5 30 10            -0.000000013
  -2496411.819 9  -1931975.66045  24811925.621    24811925.4824   24811932.2264
        -0.000          -0.000
  -3939072.130 9  -2729353.45746  24433189.709    24433189.0854   24433198.3004
        -0.000          -0.000
 -15454907.287 9 -11801142.29847  23012280.679    23012280.2404   23012287.5014
        -0.000          -0.000
  -4389818.257 9  -3406766.31445  24683053.024    24683052.2104   24683063.0464
        -0.000          -0.000
 -15709226.491 9 -11573891.62448  22032547.825    22032547.3454   22032553.9834
        -0.000          -0.000
 -29064114.157 9 -22624458.84749  20189395.422    20189394.5834   20189400.4714
        -0.000          -0.000
 -23947527.679 9 -18627033.89749  20923616.108    20923616.0124   20923621.4694
        -0.000          -0.000
 -22762097.141 9 -16910973.55548  21143930.356    21143929.2734   21143935.9644
        -0.000          -0.000
 01  1 20  1 28 30.0000000  0  8  4  9  6 17 24  5 30 10            -0.000000014
  -2399369.559 8  -1856358.19545  24830392.111    24830391.8494   24830398.5704
        -0.000          -0.000
  -3852841.947 9  -2662161.19846  24449598.766    24449598.2154   24449607.4424
        -0.000          -0.000
 -15514228.874 9 -11847366.79647  23000992.031    23000991.5854   23000999.1894
        -0.000          -0.000
  -4475424.990 9  -3473472.65245  24666762.381    24666761.4964   24666772.3094
        -0.000          -0.000
 -15635674.809 9 -11516578.61148  22046544.252    22046543.7854   22046550.3714
        -0.000          -0.000
 -29053935.968 9 -22616527.78149  20191332.253    20191331.4324   20191337.3054
        -0.000          -0.000
 -23999772.255 9 -18667743.92049  20913674.241    20913674.1554   20913679.6474
        -0.000          -0.000
 -22805580.236 9 -16944856.43948  21135655.771    21135654.7014   21135661.3694
        -0.000          -0.000
 01  1 20  1 29  0.0000000  0  8  4  9  6 17 24  5 30 10            -0.000000014
  -2302404.769 8  -1780801.16845  24848843.860    24848843.5444   24848850.0364
        -0.000          -0.000
  -3766704.535 9  -2595041.22646  24465990.254    24465989.7374   24465998.9254
        -0.000          -0.000
 -15573548.548 9 -11893589.81847  22989703.917    22989703.4894   22989711.2114
        -0.000          -0.000
  -4560851.404 9  -3540038.44145  24650506.045    24650505.1414   24650515.9284
        -0.000          -0.000
 -15561981.419 9 -11459155.17548  22060567.559    22060567.1174   22060573.6994
        -0.000          -0.000
 -29043221.751 9 -22608179.02549  20193371.084    20193370.2514   20193376.1104
        -0.000          -0.000
 -24051559.786 9 -18708097.80149  20903819.366    20903819.2874   20903824.7234
        -0.000          -0.000
 -22848523.766 9 -16978318.87248  21127483.873    21127482.7884   21127489.4304
        -0.000          -0.000
 01  1 20  1 29 30.0000000  0  8  4  9  6 17 24  5 30 10            -0.000000014
  -2205520.353 8  -1705306.77245  24867280.179    24867279.8734   24867286.4894
        -0.000          -0.000
  -3680663.995 9  -2527996.72646  24482363.306    24482362.7034   24482371.9114
        -0.000          -0.000
 -15632867.867 9 -11939812.59047  22978416.019    22978415.5734   22978423.1744
        -0.000          -0.000
  -4646098.537 9  -3606464.57145  24634283.964    24634283.0714   24634293.6814
        -0.000          -0.000
 -15488149.723 9 -11401623.97048  22074617.319    22074616.8014   22074623.4194
        -0.000          -0.000
 -29031973.161 9 -22599413.88049  20195511.622    20195510.7894   20195516.6514
        -0.000          -0.000
 -24102889.959 9 -18748095.30449  20894051.555    20894051.4694   20894056.9034
        -0.000          -0.000
 -22890927.685 9 -17011360.83448  21119414.657    21119413.5444   21119420.1604
        -0.000          -0.000
 01  1 20  1 30  0.0000000  0  8  4  9  6 17 24  5 30 10            -0.000000014
  -2108716.650 9  -1629875.32345  24885701.287    24885700.9284   24885707.8714
        -0.000          -0.000
  -3594721.509 9  -2461028.64446  24498717.731    24498717.1114   24498726.3314
        -0.000          -0.000
 -15692185.511 9 -11986034.05047  22967128.307    22967127.8384   22967135.1994
        -0.000          -0.000
  -4731164.042 9  -3672749.16245  24618096.326    24618095.4774   24618106.0554
        -0.000          -0.000
 -15414180.818 9 -11343985.85348  22088693.056    22088692.5764   22088699.2854
        -0.000          -0.000
 -29020188.784 9 -22590231.23349  20197754.092    20197753.2664   20197759.1324
        -0.000          -0.000
 -24153759.145 9 -18787733.58849  20884371.442    20884371.3514   20884376.7614
        -0.000          -0.000
 -22932789.014 9 -17043979.99848  21111448.698    21111447.5594   21111454.1464
        -0.000          -0.000
 01  1 20  1 30 30.0000000  0  8  4  9  6 17 24  5 30 10            -0.000000015
  -2011994.835 9  -1554507.61645  24904106.882    24904106.6654   24904113.5014
        -0.000          -0.000
  -3508879.424 9  -2394138.78246  24515052.877    24515052.3534   24515061.5224
        -0.000          -0.000
 -15751501.138 9 -12032253.93047  22955840.612    22955840.1344   22955847.2994
        -0.000          -0.000
  -4816046.678 9  -3738891.26545  24601943.540    24601942.7194   24601953.2214
        -0.000          -0.000
 -15340076.494 9 -11286242.20448  22102794.660    22102794.1354   22102800.7984
        -0.000          -0.000
 -29007868.137 9 -22580630.71649  20200098.622    20200097.7834   20200103.6684
        -0.000          -0.000
 -24204165.200 9 -18827010.99449  20874779.493    20874779.3914   20874784.7984
        -0.000          -0.000
 -22974105.225 9 -17076174.39548  21103586.406    21103585.2624   21103591.8664
        -0.000          -0.000
 01  1 20  1 31  0.0000000  0  8  4  9  6 17 24  5 30 10            -0.000000016
  -1915356.427 9  -1479204.87745  24922496.606    24922496.4554   24922503.1804
        -0.000          -0.000
  -3423140.587 9  -2327329.39146  24531368.512    24531368.0174   24531377.2054
        -0.000          -0.000
 -15810814.915 9 -12078472.39547  22944552.964    22944552.6374   22944559.7164
        -0.000          -0.000
  -4900745.888 9  -3804890.44145  24585825.670    24585824.8684   24585835.1384
        -0.000          -0.000
 -15265839.120 9 -11228394.87948  22116921.461    22116921.0144   22116927.5904
        -0.000          -0.000
 -28995011.438 9 -22570612.49749  20202545.138    20202544.2904   20202550.1764
        -0.000          -0.000
 -24254106.321 9 -18865926.11749  20865275.983    20865275.8704   20865281.2404
        -0.000          -0.000
 -23014874.795 9 -17107942.83948  21095828.168    21095827.0434   21095833.6434
        -0.000          -0.000
 01  1 20  1 31 30.0000000  0  8  4  9  6 17 24  5 30 10            -0.000000015
  -1818802.318 8  -1403967.78345  24940870.262    24940870.0954   24940876.7014
        -0.000          -0.000
  -3337506.560 9  -2260601.66346  24547664.103    24547663.6664   24547672.9004
        -0.000          -0.000
 -15870125.908 9 -12124688.67747  22933266.459    22933266.0704   22933273.0024
        -0.000          -0.000
  -4985260.119 9  -3870745.44245  24569743.031    24569742.1424   24569752.5174
        -0.000          -0.000
 -15191470.740 9 -11170445.47748  22131073.350    22131072.8874   22131079.4554
        -0.000          -0.000
 -28981617.920 9 -22560175.97949  20205093.832    20205092.9854   20205098.8514
        -0.000          -0.000
 -24303579.943 9 -18904476.94949  20855861.452    20855861.3484   20855866.6954
        -0.000          -0.000
 -23055095.365 9 -17139283.48848  21088174.418    21088173.2914   21088179.8944
        -0.000          -0.000
 01  1 20  1 32  0.0000000  0  8  4  9  6 17 24  5 30 10            -0.000000015
  -1722334.877 8  -1328798.29145  24959227.297    24959227.0474   24959233.8184
        -0.000          -0.000
  -3251981.160 9  -2193958.57646  24563939.141    24563938.7194   24563947.8914
        -0.000          -0.000
 -15929435.230 9 -12170903.66647  22921980.492    22921980.0534   22921986.9084
        -0.000          -0.000
  -5069589.872 9  -3936456.75745  24553695.370    24553694.5614   24553704.6704
        -0.000          -0.000
 -15116973.990 9 -11112396.05348  22145249.623    22145249.1434   22145255.7664
        -0.000          -0.000
 -28967689.010 9 -22549322.26949  20207744.398    20207743.5604   20207749.4144
        -0.000          -0.000
 -24352584.981 9 -18942662.65749  20846536.043    20846535.9344   20846541.2624
        -0.000          -0.000
 -23094766.339 9 -17170195.88348  21080625.241    21080624.1184   21080630.6914
        -0.000          -0.000
 01  1 20  1 32 30.0000000  0  8  4  9  6 17 24  5 30 10            -0.000000015
  -1625956.633 8  -1253698.33345  24977567.246    24977567.0114   24977574.0214
        -0.000          -0.000
  -3166567.976 8  -2127402.96646  24580192.765    24580192.2364   24580201.6564
        -0.000          -0.000
 -15988743.556 9 -12217117.86447  22910694.696    22910694.2264   22910701.0914
        -0.000          -0.000
  -5153734.782 9  -4002023.97645  24537682.983    24537682.1764   24537692.2604
        -0.000          -0.000
 -15042352.501 9 -11054249.41948  22159449.701    22159449.1734   22159455.7084
        -0.000          -0.000
 -28953225.383 9 -22538051.89549  20210496.726    20210495.8854   20210501.7564
        -0.000          -0.000
 -24401120.498 9 -18980482.49849  20837300.020    20837299.9284   20837305.2404
        -0.000          -0.000
 -23133886.442 9 -17200679.02748  21073180.882    21073179.7614   21073186.3034
        -0.000          -0.000
 01  1 20  1 33  0.0000000  0  8  4  9  6 17 24  5 30 10            -0.000000015
  -1529666.479 8  -1178667.02745  24995890.531    24995890.2364   24995897.2614
        -0.000          -0.000
  -3081267.073 9  -2060934.77345  24596425.080    24596424.5704   24596433.8824
        -0.000          -0.000
 -16048048.541 9 -12263329.46747  22899409.464    22899408.9994   22899415.9774
        -0.000          -0.000
  -5237691.820 9  -4067444.85945  24521706.262    24521705.4474   24521715.5124
        -0.000          -0.000
 -14967606.013 9 -10996005.39148  22173673.425    22173672.9064   22173679.4714
        -0.000          -0.000
 -28938224.677 9 -22526363.02349  20213351.242    20213350.4094   20213356.2824
        -0.000          -0.000
 -24449181.823 9 -19017932.84449  20828154.211    20828154.1294   20828159.4174
        -0.000          -0.000
 -23172451.622 9 -17230729.76848  21065842.087    21065840.9724   21065847.5204
        -0.000          -0.000
 01  1 20  1 33 30.0000000  0  8  4  9  6 17 24  5 30 10            -0.000000015
  -1433466.072 8  -1103705.61445  25014196.884    25014196.5934   25014203.4534
        -0.000          -0.000
  -2996081.203 9  -1994556.31046  24612635.451    24612634.8574   24612644.4904
        -0.000          -0.000
 -16107349.951 9 -12309538.29047  22888124.761    22888124.3014   22888131.2694
        -0.000          -0.000
  -5321460.326 9  -4132718.82845  24505765.511    24505764.8424   24505774.7294
        -0.000          -0.000
 -14892736.123 9 -10937665.18548  22187920.691    22187920.1934   22187926.7254
        -0.000          -0.000
 -28922687.192 9 -22514255.87649  20216307.906    20216307.0824   20216312.9514
        -0.000          -0.000
 -24496767.413 9 -19055012.48149  20819098.937    20819098.8484   20819104.1954
        -0.000          -0.000
 -23210460.349 9 -17260346.90648  21058609.210    21058608.1294   21058614.6634
        -0.000          -0.000
 01  1 20  1 34  0.0000000  0  8  4  9  6 17 24  5 30 10            -0.000000016
  -1337357.083 9  -1028815.40345  25032485.771    25032485.5904   25032492.3234
        -0.000          -0.000
  -2911013.385 9  -1928269.77146  24628823.540    24628822.9704   24628832.3214
        -0.000          -0.000
 -16166648.183 9 -12355744.62447  22876840.357    22876839.9144   22876846.9074
        -0.000          -0.000
  -5405040.090 8  -4197845.70345  24489860.604    24489859.8834   24489869.8454
        -0.000          -0.000
 -14817746.225 9 -10879231.49348  22202190.780    22202190.2934   22202196.9064
        -0.000          -0.000
 -28906613.319 9 -22501730.76949  20219366.675    20219365.8544   20219371.6964
        -0.000          -0.000
 -24543875.729 9 -19091720.22549  20810134.481    20810134.3844   20810139.6904
        -0.000          -0.000
 -23247911.485 9 -17289529.55848  21051482.424    21051481.3534   21051487.8924
        -0.000          -0.000
 01  1 20  1 34 30.0000000  0  8  4  9  6 17 24  5 30 10            -0.000000016
  -1241340.339 8   -953997.07845  25050757.203    25050757.0724   25050763.6494
        -0.000          -0.000
  -2826065.484 9  -1862076.69845  24644988.575    24644988.0504   24644997.3314
        -0.000          -0.000
 -16225942.439 9 -12401947.87147  22865556.745    22865556.3854   22865563.2744
        -0.000          -0.000
  -5488429.498 9  -4262824.27645  24473991.946    24473991.2294   24474001.0814
        -0.000          -0.000
 -14742637.657 9 -10820705.31848  22216483.424    22216482.9194   22216489.4824
        -0.000          -0.000
 -28890002.415 9 -22488787.19449  20222527.607    20222526.7764   20222532.6464
        -0.000          -0.000
 -24590504.302 9 -19128054.14349  20801261.322    20801261.2174   20801266.5054
        -0.000          -0.000
 -23284802.650 9 -17318275.87348  21044462.239    21044461.1734   21044467.7034
        -0.000          -0.000
 01  1 20  1 35  0.0000000  0  8  4  9  6 17 24  5 30 10            -0.000000016
  -1145416.875 8   -879251.49345  25069010.726    25069010.5654   25069017.0244
        -0.000          -0.000
  -2741239.755 9  -1795978.83646  24661130.404    24661129.9154   24661139.3554
        -0.000          -0.000
 -16285232.275 9 -12448147.68247  22854274.279    22854273.8954   22854280.5344
        -0.000          -0.000
  -5571627.696 9  -4327653.83645  24458159.590    24458158.8994   24458168.7444
        -0.000          -0.000
 -14667412.036 9 -10762087.93248  22230798.247    22230797.7794   22230804.3114
        -0.000          -0.000
 -28872854.593 9 -22475425.24449  20225790.702    20225789.8874   20225795.7274
        -0.000          -0.000
 -24636650.821 9 -19164012.43149  20792479.928    20792479.8264   20792485.0974
        -0.000          -0.000
 -23321131.855 9 -17346584.29748  21037548.994    21037547.9094   21037554.4184
        -0.000          -0.000
 01  1 20  1 35 30.0000000  0  8  4  9  6 17 24  5 30 10            -0.000000016
  -1049589.052 8   -804580.40645  25087246.032    25087245.6934   25087252.2824
        -0.000          -0.000
  -2656539.431 8  -1729978.68445  24677248.340    24677247.9264   24677257.2854
        -0.000          -0.000
 -16344518.502 9 -12494344.67047  22842992.619    22842992.2064   22842998.7714
        -0.000          -0.000
  -5654634.905 9  -4392334.61545  24442363.814    24442363.1054   24442372.6704
        -0.000          -0.000
 -14592072.767 9 -10703381.99048  22245134.864    22245134.3544   22245141.0674
        -0.000          -0.000
 -28855170.947 9 -22461645.76449  20229155.803    20229154.9674   20229160.8154
        -0.000          -0.000
 -24682314.387 9 -19199594.39349  20783790.406    20783790.2814   20783795.5574
        -0.000          -0.000
 -23356898.335 9 -17374454.23448  21030742.787    21030741.7314   21030748.2254
        -0.000          -0.000
 01  1 20  1 36  0.0000000  0  8  4  9  6 17 24  5 30 10            -0.000000016
   -953857.547 8   -729984.39945  25105463.028    25105462.5994   25105469.6534
        -0.000          -0.000
  -2571966.548 9  -1664077.82045  24693342.131    24693341.7554   24693350.9784
        -0.000          -0.000
 -16403800.362 9 -12540538.24447  22831711.727    22831711.2754   22831718.0084
        -0.000          -0.000
  -5737449.531 9  -4456865.32845  24426604.598    24426603.8544   24426613.2604
        -0.000          -0.000
 -14516621.043 9 -10644588.42848  22259492.663    22259492.2144   22259499.0174
        -0.000          -0.000
 -28836950.879 9 -22447448.29449  20232622.976    20232622.1474   20232627.9764
        -0.000          -0.000
 -24727492.542 9 -19234798.11249  20775193.250    20775193.1234   20775198.4224
        -0.000          -0.000
 -23392100.098 9 -17401884.13448  21024044.107    21024043.0184   21024049.5164
        -0.000          -0.000
 01  1 20  1 36 30.0000000  0  8  4  9  6 17 24  5 30 10            -0.000000016
   -858224.650 8   -655465.10645  25123661.384    25123661.0914   25123667.5044
        -0.000          -0.000
  -2487524.253 8  -1598278.75045  24709411.130    24709410.5524   24709420.0444
        -0.000          -0.000
 -16463078.224 9 -12586728.69047  22820431.393    22820430.9354   22820437.9364
        -0.000          -0.000
  -5820071.684 9  -4521246.04346  24410881.986    24410881.2994   24410890.7974
        -0.000          -0.000
 -14441059.758 9 -10585709.48147  22273871.494    22273871.0694   22273877.7584
        -0.000          -0.000
 -28818195.275 9 -22432833.52349  20236192.031    20236191.1964   20236197.0224
        -0.000          -0.000
 -24772184.069 9 -19269622.64149  20766688.691    20766688.5714   20766693.8904
        -0.000          -0.000
 -23426736.128 9 -17428873.20648  21017453.028    21017451.9514   21017458.4554
        -0.000          -0.000
 01  1 20  1 37  0.0000000  0  8  4  9  6 17 24  5 30 10            -0.000000016
   -762689.844 9   -581022.42245  25141840.975    25141840.9264   25141847.4174
        -0.000          -0.000
  -2403213.321 9  -1532582.01345  24725454.997    24725454.4644   24725463.9334
        -0.000          -0.000
 -16522350.462 9 -12632914.76147  22809152.033    22809151.6134   22809158.7484
        -0.000          -0.000
  -5902499.178 9  -4585475.09846  24395196.420    24395195.8174   24395205.2034
        -0.000          -0.000
 -14365389.590 9 -10526745.68648  22288271.129    22288270.6214   22288277.2844
        -0.000          -0.000
 -28798903.025 9 -22417800.58949  20239863.204    20239862.3654   20239868.1924
        -0.000          -0.000
 -24816385.354 9 -19304065.16649  20758277.421    20758277.3344   20758282.6134
        -0.000          -0.000
 -23460803.376 9 -17455419.06948  21010970.246    21010969.1494   21010975.6264
        -0.000          -0.000
 01  1 20  1 37 30.0000000  0  8  4  9  6 17 24  5 30 10            -0.000000016
   -667255.753 8   -506658.05145  25160001.545    25160001.3144   25160007.7954
        -0.000          -0.000
  -2319037.571 8  -1466990.58945  24741473.373    24741472.7154   24741482.1344
        -0.000          -0.000
 -16581618.047 9 -12679097.23047  22797873.737    22797873.3014   22797880.1994
        -0.000          -0.000
  -5984732.264 9  -4649552.64546  24379547.830    24379547.1614   24379556.5844
        -0.000          -0.000
 -14289613.885 9 -10467699.65947  22302690.766    22302690.2894   22302696.9294
        -0.000          -0.000
 -28779075.365 9 -22402350.44949  20243636.244    20243635.4134   20243641.2614
        -0.000          -0.000
 -24860096.074 9 -19338125.43149  20749959.543    20749959.4424   20749964.7314
        -0.000          -0.000
 -23494301.326 9 -17481521.33048  21004595.776    21004594.6824   21004601.1364
        -0.000          -0.000
 01  1 20  1 38  0.0000000  0  8  4  9  6 17 24  5 30 10            -0.000000016
   -571922.267 8   -432372.19345  25178142.740    25178142.5154   25178149.1324
        -0.000          -0.000
  -2234998.357 9  -1401505.63245  24757465.413    24757464.8434   24757474.4094
        -0.000          -0.000
 -16640879.653 9 -12725275.04947  22786596.666    22786596.2284   22786602.7174
        -0.000          -0.000
  -6066769.197 9  -4713477.36246  24363936.585    24363935.9284   24363945.3384
        -0.000          -0.000
 -14213733.576 9 -10408572.13848  22317130.244    22317129.8224   22317136.6104
        -0.000          -0.000
 -28758711.538 9 -22386482.52149  20247511.337    20247510.5004   20247516.3744
        -0.000          -0.000
 -24903313.148 9 -19371801.03449  20741735.537    20741735.4554   20741740.7514
        -0.000          -0.000
 -23527227.448 9 -17507178.01048  20998330.096    20998329.0194   20998335.4424
        -0.000          -0.000
 01  1 20  1 38 30.0000000  0  8  4  9  6 17 24  5 30 10            -0.000000016
   -476691.197 8   -358166.10445  25196264.627    25196264.4194   25196271.2214
        -0.000          -0.000
  -2151098.046 9  -1336128.87446  24773431.282    24773430.6604   24773440.1324
        -0.000          -0.000
 -16700135.144 9 -12771448.08847  22775320.670    22775320.2644   22775326.5564
        -0.000          -0.000
  -6148609.127 9  -4777248.57246  24348362.902    24348362.1404   24348371.4664
        -0.000          -0.000
 -14137751.149 9 -10349365.01847  22331589.212    22331588.7934   22331595.4134
        -0.000          -0.000
 -28737811.880 9 -22370197.06249  20251488.388    20251487.5474   20251493.4234
        -0.000          -0.000
 -24946034.865 9 -19405090.64649  20733605.830    20733605.7634   20733611.0264
        -0.000          -0.000
 -23559580.406 9 -17532388.06748  20992173.531    20992172.4514   20992178.8364
        -0.000          -0.000
 01  1 20  1 39  0.0000000  0  8  4  9  6 17 24  5 30 10            -0.000000016
   -381564.110 8   -284041.07045  25214366.615    25214366.5674   25214372.8254
        -0.000          -0.000
  -2067339.651 8  -1270862.66745  24789370.067    24789369.3674   24789378.7764
        -0.000          -0.000
 -16759384.878 9 -12817616.62147  22764045.586    22764045.1304   22764051.7804
        -0.000          -0.000
  -6230252.099 9  -4840866.31046  24332826.666    24332825.8564   24332835.1404
        -0.000          -0.000
 -14061668.552 9 -10290079.86247  22346067.304    22346066.8004   22346073.4804
        -0.000          -0.000
 -28716377.192 9 -22353494.69649  20255567.260    20255566.4234   20255572.2854
        -0.000          -0.000
 -24988259.797 9 -19437993.15649  20725570.684    20725570.6064   20725575.8614
        -0.000          -0.000
 -23591359.080 9 -17557150.63548  20986126.251    20986125.1484   20986131.5144
        -0.000          -0.000
 01  1 20  1 39 30.0000000  0  8  4  9  6 17 24  5 30 10            -0.000000016
   -286540.518 8   -209996.68945  25232448.981    25232448.7714   25232455.1964
        -0.000          -0.000
  -1983723.843 9  -1205707.66346  24805281.652    24805281.1104   24805290.6954
        -0.000          -0.000
 -16818626.470 9 -12863778.80147  22752772.132    22752771.7044   22752778.6414
        -0.000          -0.000
  -6311695.535 9  -4904328.56446  24317328.303    24317327.5154   24317336.7964
        -0.000          -0.000
 -13985486.459 9 -10230717.17947  22360564.158    22360563.7144   22360570.4444
        -0.000          -0.000
 -28694406.052 9 -22336374.31549  20259748.232    20259747.3794   20259753.2354
        -0.000          -0.000
 -25029984.492 9 -19470505.86749  20717630.704    20717630.6334   20717635.8784
        -0.000          -0.000
 -23622560.173 9 -17581463.13948  20980188.833    20980187.7384   20980194.0844
        -0.000          -0.000
 01  1 20  1 40  0.0000000  0  8  4  9  6 17 24  5 30 10            -0.000000016
   -191623.404 8   -136035.17745  25250511.066    25250510.8164   25250517.1394
        -0.000          -0.000
  -1900255.013 9  -1140667.12245  24821165.318    24821164.6754   24821174.2594
        -0.000          -0.000
 -16877861.859 9 -12909936.16147  22741500.101    22741499.6674   22741506.6334
        -0.000          -0.000
  -6392940.961 9  -4967636.51946  24301867.680    24301866.9284   24301876.2814
        -0.000          -0.000
 -13909208.943 9 -10171280.13847  22375079.420    22375078.9154   22375085.6454
        -0.000          -0.000
 -28671900.819 9 -22318837.75549  20264030.808    20264029.9644   20264035.7964
        -0.000          -0.000
 -25071209.045 9 -19502628.85849  20709785.913    20709785.8344   20709791.0454
        -0.000          -0.000
 -23653184.528 9 -17605326.23448  20974361.173    20974360.0834   20974366.4384
        -0.000          -0.000
 01  1 20  1 40 30.0000000  0  8  4  9  6 17 24  5 30 10            -0.000000016
    -96813.643 8    -62157.37645  25268552.697    25268552.4064   25268558.6994
        -0.000          -0.000
  -1816934.821 9  -1075742.41245  24837020.675    24837020.1784   24837029.6434
        -0.000          -0.000
 -16937090.113 9 -12956087.96647  22730229.429    22730228.9304   22730235.8484
        -0.000          -0.000
  -6473986.814 9  -5030788.96946  24286444.890    24286444.1144   24286453.5474
        -0.000          -0.000
 -13832836.993 9 -10111769.51447  22389612.451    22389611.9144   22389618.6264
        -0.000          -0.000
 -28648861.060 9 -22300884.68849  20268415.102    20268414.2694   20268420.1114
        -0.000          -0.000
 -25111930.955 9 -19534360.18149  20702036.746    20702036.6684   20702041.8644
        -0.000          -0.000
 -23683230.100 9 -17628738.33148  20968643.633    20968642.5714   20968648.9084
        -0.000          -0.000
 01  1 20  1 41  0.0000000  0  8  4  9  6 17 24  5 30 10            -0.000000015
     -2111.483 8     11636.58845  25286573.872    25286573.8894   25286579.7414
        -0.000          -0.000
  -1733765.053 8  -1010934.91946  24852847.432    24852847.0524   24852856.6074
        -0.000          -0.000
 -16996310.352 9 -13002233.51547  22718960.083    22718959.6124   22718966.4164
        -0.000          -0.000
  -6554831.581 9  -5093784.71446  24271060.671    24271059.7854   24271069.2374
        -0.000          -0.000
 -13756372.147 9 -10052186.49047  22404163.144    22404162.6514   22404169.2724
        -0.000          -0.000
 -28625286.532 9 -22282514.91449  20272901.168    20272900.3334   20272906.1644
        -0.000          -0.000
 -25152147.984 9 -19565698.09149  20694383.674    20694383.5764   20694388.7484
        -0.000          -0.000
 -23712694.480 9 -17651697.55148  20963036.722    20963035.6424   20963041.9674
        -0.000          -0.000
 01  1 20  1 41 30.0000000  0  8  4  9  6 17 24  5 30 10            -0.000000016
     92481.079 8     85345.14344  25304574.223    25304574.7454   25304580.0264
        -0.000          -0.000
  -1650749.027 9   -946247.26845  24868644.866    24868644.4264   24868654.0474
        -0.000          -0.000
 -17055522.885 9 -13048373.06947  22707692.242    22707691.7724   22707698.4204
        -0.000          -0.000
  -6635475.501 9  -5156623.99346  24255714.517    24255713.6884   24255722.8264
        -0.000          -0.000
 -13679817.176 9  -9992533.25447  22418731.118    22418730.6164   22418737.3254
        -0.000          -0.000
 -28601178.411 9 -22263729.35449  20277488.783    20277487.9674   20277493.7874
        -0.000          -0.000
 -25191859.049 9 -19596641.73849  20686826.877    20686826.7884   20686831.9674
        -0.000          -0.000
 -23741577.229 9 -17674203.55148  20957540.482    20957539.4074   20957545.7174
        -0.000          -0.000
 01  1 20  1 42  0.0000000  0  8  4  9  6 17 24  5 30 10            -0.000000016
    186963.143 7    158967.57154  25322553.492    25322553.6734          0.0005
        -0.000          -0.000
  -1567888.676 9   -881680.84345  24884412.859    24884412.3504   24884421.8164
        -0.000          -0.000
 -17114727.141 9 -13094506.18347  22696426.008    22696425.5624   22696432.0674
        -0.000          -0.000
  -6715917.454 9  -5219305.84746  24240406.837    24240405.9674   24240415.1734
        -0.000          -0.000
 -13603173.753 9  -9932811.08847  22433315.893    22433315.4094   22433322.0374
        -0.000          -0.000
 -28576536.628 9 -22244527.95249  20282177.941    20282177.1114   20282182.9564
        -0.000          -0.000
 -25231062.180 9 -19627189.60049  20679366.728    20679366.6524   20679371.8114
        -0.000          -0.000
 -23769876.562 9 -17696254.94448  20952155.245    20952154.1764   20952160.4864
        -0.000          -0.000
 01  1 20  1 42 30.0000000  0  8  4  9  6 17 24  5 30 10            -0.000000016
    281334.55817    232503.79053         0.000           0.0005          0.0005
        -0.000          -0.000
  -1485185.337 9   -817236.84745  24900150.865    24900150.4354   24900160.0414
        -0.000          -0.000
 -17173921.790 9 -13140631.80147  22685161.677    22685161.1904   22685167.6784
        -0.000          -0.000
  -6796155.703 9  -5281829.00846  24225137.911    24225137.1174   24225146.2314
        -0.000          -0.000
 -13526443.257 9  -9873021.08247  22447917.111    22447916.6014   22447923.3814
        -0.000          -0.000
 -28551360.739 9 -22224910.36549  20286968.742    20286967.9044   20286973.7724
        -0.000          -0.000
 -25269754.834 9 -19657339.68549  20672003.744    20672003.6504   20672008.8094
        -0.000          -0.000
 -23797590.240 9 -17717849.98148  20946881.485    20946880.4274   20946886.7224
        -0.000          -0.000
 01  1 20  1 43  0.0000000  0  7  9  6 17 24  5 30 10               -0.000000016
  -1402641.344 8   -752917.00545  24915858.475    24915857.9704   24915867.7354
        -0.000          -0.000
 -17233106.666 9 -13186749.78847  22673899.079    22673898.5874   22673905.1334
        -0.000          -0.000
  -6876189.806 9  -5344193.06146  24209907.616    24209906.9704   24209916.0524
        -0.000          -0.000
 -13449627.659 9  -9813164.73947  22462534.582    22462534.1414   22462540.7044
        -0.000          -0.000
 -28525651.575 9 -22204877.23849  20291861.025    20291860.1984   20291866.0564
        -0.000          -0.000
 -25307935.095 9 -19687090.50349  20664738.244    20664738.1704   20664743.3344
        -0.000          -0.000
 -23824717.326 9 -17738987.92948  20941719.382    20941718.2804   20941724.5764
        -0.000          -0.000
 01  1 20  1 43 30.0000000  0  7  9  6 17 24  5 30 10               -0.000000015
  -1320259.116 8   -688723.15445  24931535.516    24931534.9784   24931544.5494
        -0.000          -0.000
 -17292281.429 9 -13232859.89547  22662638.232    22662637.8034   22662644.4724
        -0.000          -0.000
  -6956019.157 9  -5406397.56046  24194716.603    24194715.8474   24194724.9534
        -0.000          -0.000
 -13372728.865 9  -9753243.58747  22477167.985    22477167.5014   22477174.0824
        -0.000          -0.000
 -28499409.374 9 -22184428.76049  20296854.732    20296853.9104   20296859.7534
        -0.000          -0.000
 -25345601.530 9 -19716440.93849  20657570.498    20657570.4414   20657575.6124
        -0.000          -0.000
 -23851256.661 9 -17759667.89748  20936669.081    20936667.9964   20936674.2674
        -0.000          -0.000
 01  1 20  1 44  0.0000000  0  7  9  6 17 24  5 30 10               -0.000000016
  -1238042.481 8   -624658.41245  24947180.716    24947180.2584   24947190.1084
        -0.000          -0.000
 -17351447.299 9 -13278963.08447  22651379.168    22651378.7474   22651385.4234
        -0.000          -0.000
  -7035644.624 9  -5468443.19546  24179564.185    24179563.4974   24179572.6864
        -0.000          -0.000
 -13295750.237 9  -9693260.23947  22491816.491    22491816.0004   22491822.6344
        -0.000          -0.000
 -28472636.080 9 -22163566.44049  20301949.499    20301948.6734   20301954.5144
        -0.000          -0.000
 -25382753.947 9 -19745390.83849  20650500.643    20650500.5564   20650505.7224
        -0.000          -0.000
 -23877208.563 9 -17779890.11748  20931730.585    20931729.5254   20931735.7584
        -0.000          -0.000
 01  1 20  1 44 30.0000000  0  7  9  6 17 24  5 30 10               -0.000000015
  -1155991.334 8   -560722.63245  24962794.670    24962794.1474   24962804.0774
        -0.000          -0.000
 -17410601.418 9 -13325057.13047  22640122.574    22640122.0904   22640128.6334
        -0.000          -0.000
  -7115063.094 9  -5530327.55846  24164451.309    24164450.4804   24164459.6314
        -0.000          -0.000
 -13218691.032 9  -9633214.08147  22506480.410    22506479.9184   22506486.3814
        -0.000          -0.000
 -28445329.832 9 -22142288.83549  20307145.710    20307144.8664   20307150.7164
        -0.000          -0.000
 -25419388.015 9 -19773936.83049  20643529.375    20643529.2824   20643534.4554
        -0.000          -0.000
 -23902569.036 9 -17799651.48748  20926904.667    20926903.5364   20926909.7794
        -0.000          -0.000
 01  1 20  1 45  0.0000000  0  7  9  6 17 24  5 30 10               -0.000000015
  -1074109.415 8   -496918.65745  24978376.254    24978375.9004   24978385.5794
        -0.000          -0.000
 -17469744.953 9 -13371142.92847  22628867.901    22628867.4114   22628873.8544
        -0.000          -0.000
  -7194275.476 9  -5592051.32546  24149377.617    24149376.8054   24149385.7914
        -0.000          -0.000
 -13141555.169 9  -9573108.19647  22521158.866    22521158.3674   22521164.7954
        -0.000          -0.000
 -28417492.845 9 -22120597.66849  20312442.898    20312442.0594   20312447.8914
        -0.000          -0.000
 -25455503.742 9 -19802078.92249  20636656.747    20636656.6704   20636661.8244
        -0.000          -0.000
 -23927338.188 9 -17818952.09048  20922191.170    20922190.0794   20922196.3034
        -0.000          -0.000
 01  1 20  1 45 30.0000000  0  7  9  6 17 24  5 30 10               -0.000000015
   -992398.876 8   -433248.28545  24993925.366    24993925.0864   24993935.1434
        -0.000          -0.000
 -17528877.305 9 -13417220.00747  22617615.355    22617614.8914   22617621.2464
        -0.000          -0.000
  -7273281.126 9  -5653613.97546  24134343.214    24134342.4734   24134351.3814
        -0.000          -0.000
 -13064344.392 9  -9512943.93547  22535851.584    22535851.0754   22535857.5404
        -0.000          -0.000
 -28389125.330 9 -22098493.10249  20317841.055    20317840.2224   20317846.0334
        -0.000          -0.000
 -25491099.495 9 -19829815.83549  20629883.057    20629882.9994   20629888.1594
        -0.000          -0.000
 -23951514.968 9 -17837791.09948  20917590.435    20917589.3644   20917595.5964
        -0.000          -0.000
 01  1 20  1 46  0.0000000  0  7  9  6 17 24  5 30 10               -0.000000015
   -910860.192 8   -369711.80245  25009441.822    25009441.4634   25009451.3184
        -0.000          -0.000
 -17587996.380 9 -13463286.74347  22606365.338    22606364.8494   22606371.1744
        -0.000          -0.000
  -7352077.537 9  -5715013.62246  24119348.530    24119347.7434   24119356.7344
        -0.000          -0.000
 -12987058.556 9  -9452721.20047  22550558.587    22550558.1034   22550564.5874
        -0.000          -0.000
 -28360226.049 9 -22075974.17749  20323340.415    20323339.5854   20323345.3774
        -0.000          -0.000
 -25526171.642 9 -19857144.74849  20623209.038    20623208.9504   20623214.0854
        -0.000          -0.000
 -23975096.728 9 -17856166.46048  20913102.912    20913101.8614   20913108.0864
        -0.000          -0.000
 01  1 20  1 46 30.0000000  0  7  9  6 17 24  5 30 10               -0.000000021
   -829493.627 8   -306309.43845  25024925.212    25024924.9454   25024934.8944
        -0.000          -0.000
 -17647099.565 9 -13509341.08847  22595118.135    22595117.6564   22595124.0944
        -0.000          -0.000
  -7430661.648 9  -5776247.83346  24104394.406    24104393.5854   24104402.5064
        -0.000          -0.000
 -12909697.484 9  -9392439.83347  22565279.982    22565279.4524   22565285.8544
        -0.000          -0.000
 -28330793.296 9 -22053039.55649  20328941.264    20328940.4274   20328946.2364
        -0.000          -0.000
 -25560716.576 9 -19884062.84349  20616635.323    20616635.2304   20616640.3474
        -0.000          -0.000
 -23998080.099 9 -17874075.54248  20908729.335    20908728.2394   20908734.4844
        -0.000          -0.000
 01  1 20  1 47  0.0000000  0  7  9  6 17 24  5 30 10               -0.000000018
   -748302.537 8   -243043.81745  25040375.714    25040375.3394   25040385.1394
        -0.000          -0.000
 -17706187.612 9 -13555383.64547  22583873.899    22583873.4594   22583879.9864
        -0.000          -0.000
  -7509034.289 9  -5837317.25846  24089480.287    24089479.5504   24089488.3864
        -0.000          -0.000
 -12832264.275 9  -9332102.24647  22580015.165    22580014.5924   22580020.9364
        -0.000          -0.000
 -28300829.116 9 -22029690.83949  20334643.282    20334642.4504   20334648.2594
        -0.000          -0.000
 -25594733.878 9 -19910569.79749  20610162.036    20610161.9424   20610167.0364
        -0.000          -0.000
 -24020464.982 9 -17891518.27048  20904469.556    20904468.4684   20904474.7154
        -0.000          -0.000
 01  1 20  1 47 30.0000000  0  7  9  6 17 24  5 30 10               -0.000000016
   -667292.434 8   -179919.21345  25055791.363    25055790.9674   25055801.0564
        -0.000          -0.000
 -17765263.612 9 -13601416.82947  22572632.239    22572631.7824   22572638.1664
        -0.000          -0.000
  -7587198.302 9  -5898224.12346  24074606.106    24074605.3874   24074614.0474
        -0.000          -0.000
 -12754764.471 9  -9271712.77047  22594762.694    22594762.2014   22594768.5564
        -0.000          -0.000
 -28270337.598 9 -22005931.21249  20340445.608    20340444.7834   20340450.5644
        -0.000          -0.000
 -25628225.404 9 -19936667.06249  20603788.780    20603788.6844   20603793.7754
        -0.000          -0.000
 -24042253.872 9 -17908496.59148  20900323.232    20900322.1484   20900328.3864
        -0.000          -0.000
 01  1 20  1 48  0.0000000  0  7  9  6 17 24  5 30 10               -0.000000015
   -586466.311 8   -116938.00445  25071172.321    25071171.7684   25071181.9754
        -0.000          -0.000
 -17824327.362 9 -13647440.46847  22561392.795    22561392.2734   22561398.5774
        -0.000          -0.000
  -7665153.389 9  -5958968.20946  24059771.676    24059770.9274   24059779.4194
        -0.000          -0.000
 -12677200.331 9  -9211273.17447  22609522.603    22609522.1134   22609528.5554
        -0.000          -0.000
 -28239319.837 9 -21981761.52349  20346348.116    20346347.2774   20346353.0394
        -0.000          -0.000
 -25661190.095 9 -19962353.80149  20597515.819    20597515.7074   20597520.7754
        -0.000          -0.000
 -24063446.094 9 -17925009.97348  20896290.473    20896289.3604   20896295.6034
        -0.000          -0.000
 01  1 20  1 48 30.0000000  0  7  9  6 17 24  5 30 10               -0.000000015
   -505826.321 8    -54101.78545  25086517.597    25086517.2654   25086527.2674
        -0.000          -0.000
 -17883378.882 9 -13693454.56547  22550155.472    22550154.9634   22550161.3964
        -0.000          -0.000
  -7742899.330 9  -6019549.30546  24044976.956    24044976.0804   24044984.7794
        -0.000          -0.000
 -12599573.482 9  -9150784.67247  22624294.628    22624294.0974   22624300.2754
        -0.000          -0.000
 -28207776.979 9 -21957182.67149  20352350.510    20352349.6624   20352355.4354
        -0.000          -0.000
 -25693626.670 9 -19987629.02449  20591343.308    20591343.2204   20591348.2614
        -0.000          -0.000
 -24084040.950 9 -17941057.87648  20892371.360    20892370.2434   20892376.4914
        -0.000          -0.000
 01  1 20  1 49  0.0000000  0  7  9  6 17 24  5 30 10               -0.000000015
   -425371.758 8      8589.87945  25101827.879    25101827.3374   25101837.8394
        -0.000          -0.000
 -17942414.589 9 -13739456.34547  22538921.240    22538920.7704   22538927.3214
        -0.000          -0.000
  -7820432.337 9  -6079964.50746  24030222.734    24030221.9344   24030230.5004
        -0.000          -0.000
 -12521883.431 9  -9090246.96847  22639078.536    22639077.9834   22639084.4134
        -0.000          -0.000
 -28175706.372 9 -21932192.58049  20358453.340    20358452.5274   20358458.3004
        -0.000          -0.000
 -25725530.545 9 -20012489.15449  20585272.159    20585272.0834   20585277.1314
        -0.000          -0.000
 -24104034.459 9 -17956637.19648  20888566.660    20888565.5674   20888571.8304
        -0.000          -0.000
 01  1 20  1 49 30.0000000  0  7  9  6 17 24  5 30 10               -0.000000015
   -345105.449 9     71134.87445  25117102.148    25117101.7114   25117111.7554
        -0.000          -0.000
 -18001434.712 9 -13785445.98947  22527690.183    22527689.6844   22527696.1864
        -0.000          -0.000
  -7897752.553 9  -6140213.91146  24015508.998    24015508.2594   24015516.7984
        -0.000          -0.000
 -12444131.822 9  -9029661.27247  22653874.082    22653873.5904   22653880.0024
        -0.000          -0.000
 -28143109.426 9 -21906792.36149  20364656.342    20364655.5124   20364661.2744
        -0.000          -0.000
 -25756901.052 9 -20036933.67649  20579302.541    20579302.4554   20579307.4984
        -0.000          -0.000
 -24123426.223 9 -17971747.62648  20884876.485    20884875.4224   20884881.6824
        -0.000          -0.000
 01  1 20  1 50  0.0000000  0  7  9  6 17 24  5 30 10               -0.000000014
   -265030.103 8    133531.15545  25132340.370    25132339.9434   25132349.8404
        -0.000          -0.000
 -18060439.262 9 -13831423.50647  22516461.965    22516461.4784   22516467.8964
        -0.000          -0.000
  -7974859.983 9  -6200297.49946  24000835.826    24000835.0684   24000843.4954
        -0.000          -0.000
 -12366321.532 9  -8969029.86447  22668680.746    22668680.2194   22668686.7764
        -0.000          -0.000
 -28109987.321 9 -21880982.92449  20370959.241    20370958.4394   20370964.1844
        -0.000          -0.000
 -25787737.095 9 -20060961.72949  20573434.592    20573434.5284   20573439.5744
        -0.000          -0.000
 -24142215.780 9 -17986388.80448  20881300.921    20881299.8674   20881306.0924
        -0.000          -0.000
 01  1 20  1 50 30.0000000  0  7  9  6 17 24  5 30 10               -0.000000015
   -185147.674 8    195776.93945  25147541.500    25147541.0294   25147551.3924
        -0.000          -0.000
 -18119427.749 9 -13877388.49447  22505236.665    22505236.1804   22505242.6484
        -0.000          -0.000
  -8051753.792 9  -6260214.60946  23986203.245    23986202.5694   23986211.0494
        -0.000          -0.000
 -12288454.319 9  -8908354.07847  22683498.396    22683497.9214   22683504.3774
        -0.000          -0.000
 -28076340.758 9 -21854764.82049  20377361.986    20377361.1764   20377366.9114
        -0.000          -0.000
 -25818037.004 9 -20084572.02149  20567668.705    20567668.6294   20567673.6704
        -0.000          -0.000
 -24160401.933 9 -18000559.79748  20877840.182    20877839.1034   20877845.3354
        -0.000          -0.000
 01  1 20  1 51  0.0000000  0  7  9  6 17 24  5 30 10               -0.000000014
   -105460.144 8    257870.98445  25162705.668    25162705.0924   25162715.3734
        -0.000          -0.000
 -18178399.204 9 -13923340.21147  22494014.590    22494014.1694   22494020.7054
        -0.000          -0.000
  -8128433.393 9  -6319964.82746  23971611.553    23971610.8294   23971619.3054
        -0.000          -0.000
 -12210531.723 9  -8847635.16447  22698326.568    22698326.0764   22698332.6444
        -0.000          -0.000
 -28042170.198 9 -21828138.40749  20383864.419    20383863.6054   20383869.3424
        -0.000          -0.000
 -25847799.431 9 -20107763.49649  20562005.032    20562004.9704   20562009.9904
        -0.000          -0.000
 -24177983.969 9 -18014260.05248  20874494.420    20874493.3594   20874499.5644
        -0.000          -0.000
 01  1 20  1 51 30.0000000  0  7  9  6 17 24  5 30 10               -0.000000014
    -25969.041 9    319811.91645  25177832.547    25177831.9994   25177842.2494
        -0.000          -0.000
 -18237352.376 9 -13969277.68547  22482796.149    22482795.6954   22482802.1814
        -0.000          -0.000
  -8204897.582 9  -6379547.20746  23957060.760    23957060.0424   23957068.4644
        -0.000          -0.000
 -12132554.765 9  -8786873.88647  22713165.035    22713164.5144   22713171.1944
        -0.000          -0.000
 -28007475.781 9 -21801103.78849  20390466.501    20390465.6744   20390471.4584
        -0.000          -0.000
 -25877021.749 9 -20130534.10249  20556444.209    20556444.1304   20556449.1544
        -0.000          -0.000
 -24194960.083 9 -18027488.15248  20871263.928    20871262.8654   20871269.0524
        -0.000          -0.000
 01  1 20  1 52  0.0000000  0  7  9  6 17 24  5 30 10               -0.000000015
     53322.751 8    381597.63245  25192921.333    25192920.5754   25192930.7954
        -0.000          -0.000
 -18296287.813 9 -14015201.35247  22471581.185    22471580.7384   22471587.1114
        -0.000          -0.000
  -8281146.617 9  -6438961.95546  23942551.037    23942550.2974   23942558.6204
        -0.000          -0.000
 -12054526.442 9  -8726072.57647  22728013.197    22728012.8244   22728019.4014
        -0.000          -0.000
 -27972259.354 9 -21773662.40949  20397167.952    20397167.1354   20397172.9474
        -0.000          -0.000
 -25905703.853 9 -20152883.76949  20550986.168    20550986.0884   20550991.0904
        -0.000          -0.000
 -24211330.578 9 -18040244.34948  20868148.750    20868147.6724   20868153.8154
        -0.000          -0.000
 01  1 20  1 52 30.0000000  0  7  9  6 17 24  5 30 10               -0.000000015
    132412.546 9    443225.81745  25207971.639    25207970.9644   25207981.7714
        -0.000          -0.000
 -18355204.959 9 -14061110.74347  22460369.578    22460369.1104   22460375.5154
        -0.000          -0.000
  -8357180.232 9  -6498208.82746  23928082.277    23928081.5444   23928089.8564
        -0.000          -0.000
 -11976448.036 9  -8665232.23847  22742871.194    22742870.6994   22742877.2824
        -0.000          -0.000
 -27936522.052 9 -21745815.15749  20403968.523    20403967.7074   20403973.4914
        -0.000          -0.000
 -25933844.530 9 -20174811.54549  20545631.147    20545631.0864   20545636.0714
        -0.000          -0.000
 -24227094.813 9 -18052528.13948  20865148.884    20865147.7994   20865153.9374
        -0.000          -0.000
 01  1 20  1 53  0.0000000  0  7  9  6 17 24  5 30 10               -0.000000015
    211299.682 8    504696.13145  25222983.737    25222983.0724   25222993.7144
        -0.000          -0.000
 -18414102.301 9 -14107004.70547  22449161.612    22449161.1894   22449167.6334
        -0.000          -0.000
  -8432996.559 9  -6557286.37946  23913654.848    23913654.1014   23913662.4394
        -0.000          -0.000
 -11898320.489 9  -8604353.60547  22757738.276    22757737.8854   22757744.3334
        -0.000          -0.000
 -27900263.485 9 -21717561.71949  20410868.295    20410867.4814   20410873.2754
        -0.000          -0.000
 -25961441.120 9 -20196315.35349  20540379.705    20540379.6214   20540384.6204
        -0.000          -0.000
 -24242250.688 9 -18064337.87748  20862264.764    20862263.6754   20862269.8224
        -0.000          -0.000
 01  1 20  1 53 30.0000000  0  7  9  6 17 24  5 30 10               -0.000000015
    289981.807 9    566006.72345  25237956.531    25237955.8174   25237966.3054
        -0.000          -0.000
 -18472979.767 9 -14152883.19147  22437957.579    22437957.1764   22437963.5744
        -0.000          -0.000
  -8508595.607 9  -6616194.64446  23899268.753    23899267.9914   23899276.3234
        -0.000          -0.000
 -11820145.737 9  -8543438.19747  22772614.421    22772613.8584   22772620.4914
        -0.000          -0.000
 -27863484.933 9 -21688903.10149  20417867.010    20417866.2054   20417871.9704
        -0.000          -0.000
 -25988492.505 9 -20217394.33049  20535231.950    20535231.8854   20535236.8844
        -0.000          -0.000
 -24256798.024 9 -18075673.43048  20859496.474    20859495.4024   20859501.5164
        -0.000          -0.000
 01  1 20  1 54  0.0000000  0  7  9  6 17 24  5 30 10               -0.000000015
    368457.639 8    627156.53045  25252889.996    25252889.5184   25252900.0924
        -0.000          -0.000
 -18531835.540 9 -14198744.75947  22426757.764    22426757.3294   22426763.7144
        -0.000          -0.000
  -8583975.703 9  -6674932.29246  23884924.264    23884923.5224   23884931.8924
        -0.000          -0.000
 -11741925.132 9  -8482487.07547  22787499.242    22787498.8824   22787505.4604
        -0.000          -0.000
 -27826186.089 9 -21659839.06449  20424964.767    20424963.9524   20424969.6974
        -0.000          -0.000
 -26014996.523 9 -20238046.78849  20530188.368    20530188.2964   20530193.2994
        -0.000          -0.000
 -24270734.942 9 -18086533.33448  20856844.307    20856843.2384   20856849.3604
        -0.000          -0.000
 01  1 20  1 54 30.0000000  0  7  9  6 17 24  5 30 10               -0.000000016
    446723.049 9    688142.39445  25267783.541    25267783.1474   25267793.6344
        -0.000          -0.000
 -18590671.227 9 -14244590.67847  22415561.592    22415561.1604   22415567.5784
        -0.000          -0.000
  -8659138.694 9  -6733500.75946  23870621.071    23870620.2744   23870628.6484
        -0.000          -0.000
 -11663661.913 9  -8421502.71847  22802392.418    22802391.8434   22802398.2914
        -0.000          -0.000
 -27788370.114 9 -21630372.06349  20432160.926    20432160.1004   20432165.8464
        -0.000          -0.000
 -26040953.825 9 -20258273.23049  20525248.835    20525248.7764   20525253.7784
        -0.000          -0.000
 -24284062.799 9 -18096918.64548  20854308.112    20854307.0344   20854313.1384
        -0.000          -0.000
 01  1 20  1 55  0.0000000  0  7  9  6 17 24  5 30 10               -0.000000016
    524778.191 8    748964.41745  25282637.035    25282636.5564   25282647.2724
        -0.000          -0.000
 -18649483.850 9 -14290418.64547  22404369.826    22404369.3984   22404375.6854
        -0.000          -0.000
  -8734081.558 9  -6791897.69746  23856359.772    23856358.9864   23856367.4544
        -0.000          -0.000
 -11585354.995 9  -8360484.32147  22817293.663    22817293.2264   22817299.6814
        -0.000          -0.000
 -27750035.486 9 -21600500.92049  20439455.756    20439454.9404   20439460.6994
        -0.000          -0.000
 -26066360.942 9 -20278070.96449  20520413.995    20520413.9234   20520418.9164
        -0.000          -0.000
 -24296778.685 9 -18106827.09648  20851888.311    20851887.2294   20851893.3254
        -0.000          -0.000
 01  1 20  1 55 30.0000000  0  7  9  6 17 24  5 30 10               -0.000000016
    602618.978 9    809619.34645  25297449.686    25297449.2894   25297460.2504
        -0.000          -0.000
 -18708274.783 9 -14336229.70247  22393182.238    22393181.7834   22393188.0194
        -0.000          -0.000
  -8808805.902 9  -6850124.37646  23842140.194    23842139.4204   23842147.9124
        -0.000          -0.000
 -11507009.095 9  -8299435.55847  22832202.242    22832201.6974   22832208.3534
        -0.000          -0.000
 -27711185.144 9 -21570227.91949  20446848.727    20446847.9124   20446853.6604
        -0.000          -0.000
 -26091218.771 9 -20297440.67149  20515683.681    20515683.6084   20515688.6114
        -0.000          -0.000
 -24308883.725 9 -18116259.56348  20849584.784    20849583.6944   20849589.7744
        -0.000          -0.000
 01  1 20  1 56  0.0000000  0  7  9  6 17 24  5 30 10               -0.000000017
    680244.194 8    870106.35345  25312221.530    25312221.0634   25312231.6694
        -0.000          -0.000
 -18767042.829 9 -14382022.90147  22381998.877    22381998.4354   22382004.9104
        -0.000          -0.000
  -8883310.544 9  -6908179.85346  23827962.395    23827961.5364   23827970.0344
        -0.000          -0.000
 -11428624.824 9  -8238356.89147  22847118.188    22847117.7894   22847124.4424
        -0.000          -0.000
 -27671819.277 9 -21539553.21649  20454339.822    20454338.9964   20454344.7494
        -0.000          -0.000
 -26115525.071 9 -20316380.62249  20511058.338    20511058.2704   20511063.2914
        -0.000          -0.000
 -24320376.765 9 -18125215.15048  20847397.700    20847396.6284   20847402.6664
        -0.000          -0.000
 01  1 20  1 56 30.0000000  0  7  9  6 17 24  5 30 10               -0.000000016
    757653.502 8    930425.09845  25326952.140    25326951.6664   25326962.3634
        -0.000          -0.000
 -18825785.883 9 -14427796.64847  22370820.504    22370820.0834   22370826.4924
        -0.000          -0.000
  -8957593.668 9  -6966062.70646  23813826.784    23813825.8724   23813834.2784
        -0.000          -0.000
 -11350202.431 9  -8177248.51347  22862041.614    22862041.0394   22862047.7044
        -0.000          -0.000
 -27631937.706 9 -21508476.65749  20461929.020    20461928.1924   20461933.9564
        -0.000          -0.000
 -26139277.214 9 -20334888.75849  20506538.419    20506538.3494   20506543.3504
        -0.000          -0.000
 -24331255.923 9 -18133692.38248  20845327.445    20845326.3814   20845332.4114
        -0.000          -0.000
 01  1 20  1 57  0.0000000  0  7  9  6 17 24  5 30 10               -0.000000017
    834842.220 8    990571.92545  25341640.806    25341640.3474   25341651.2334
        -0.000          -0.000
 -18884505.784 9 -14473552.37147  22359646.513    22359646.0104   22359652.2704
        -0.000          -0.000
  -9031657.164 9  -7023774.44046  23799732.803    23799731.9684   23799740.2934
        -0.000          -0.000
 -11271746.042 9  -8116113.64047  22876971.347    22876970.8334   22876977.3894
        -0.000          -0.000
 -27591543.861 9 -21477000.92749  20469615.691    20469614.8714   20469620.6544
        -0.000          -0.000
 -26162476.412 9 -20352966.03449  20502123.748    20502123.6954   20502128.6614
        -0.000          -0.000
 -24341523.005 9 -18141692.67648  20843373.656    20843372.5934   20843378.6154
        -0.000          -0.000
 01  1 20  1 57 30.0000000  0  7  9  6 17 24  5 30 10               -0.000000017
    911811.330 8   1050547.63945  25356287.668    25356287.1884   25356298.0384
        -0.000          -0.000
 -18943198.775 9 -14519287.10247  22348477.369    22348476.9324   22348483.1564
        -0.000          -0.000
  -9105497.435 9  -7081312.21546  23785681.427    23785680.6264   23785688.8224
        -0.000          -0.000
 -11193254.188 9  -8054951.13447  22891907.850    22891907.2834   22891913.8494
        -0.000          -0.000
 -27550635.537 9 -21445124.30449  20477400.273    20477399.4514   20477405.2274
        -0.000          -0.000
 -26185118.385 9 -20370609.10449  20497815.138    20497815.0584   20497820.0314
        -0.000          -0.000
 -24351174.211 9 -18149213.05848  20841537.066    20841536.0154   20841542.0144
        -0.000          -0.000
 01  1 20  1 58  0.0000000  0  7  9  6 17 24  5 30 10               -0.000000017
    988557.400 8   1110349.55245  25370892.079    25370891.5574   25370902.6534
        -0.000          -0.000
 -19001865.552 9 -14565001.40247  22337313.440    22337312.9804   22337319.3064
        -0.000          -0.000
  -9179115.459 9  -7138676.81246  23771672.286    23771671.4454   23771679.6504
        -0.000          -0.000
 -11114729.899 9  -7993763.36547  22906850.399    22906849.9174   22906856.4784
        -0.000          -0.000
 -27509215.301 9 -21412848.79049  20485282.300    20485281.4654   20485287.2334
        -0.000          -0.000
 -26207203.457 9 -20387818.22949  20493612.441    20493612.3674   20493617.3184
        -0.000          -0.000
 -24360210.621 9 -18156254.38948  20839817.432    20839816.4254   20839822.4094
        -0.000          -0.000
 01  1 20  1 58 30.0000000  0  7  9  6 17 24  5 30 10               -0.000000017
   1065077.471 8   1169975.28545  25385453.329    25385452.7464   25385464.1834
        -0.000          -0.000
 -19060506.442 9 -14610695.54448  22326154.571    22326154.0854   22326160.4044
        -0.000          -0.000
  -9252511.907 9  -7195868.75546  23757705.390    23757704.5634   23757712.6474
        -0.000          -0.000
 -11036176.069 9  -7932552.54947  22921798.672    22921798.1594   22921804.6704
        -0.000          -0.000
 -27467285.074 9 -21380175.87449  20493261.336    20493260.5114   20493266.2674
        -0.000          -0.000
 -26228731.523 9 -20404593.31849  20489515.769    20489515.6934   20489520.6494
        -0.000          -0.000
 -24368632.519 9 -18162816.87148  20838214.789    20838213.7554   20838219.7404
        -0.000          -0.000
 01  1 20  1 59  0.0000000  0  7  9  6 17 24  5 30 10               -0.000000019
   1141369.532 8   1229423.44445  25399971.432    25399970.8864   25399981.7064
        -0.000          -0.000
 -19119120.666 9 -14656368.90347  22315000.585    22315000.0674   22315006.4064
        -0.000          -0.000
  -9325686.184 9  -7252887.57046  23743780.618    23743779.8044   23743788.0694
        -0.000          -0.000
 -10957593.804 9  -7871319.61147  22936752.291    22936751.7884   22936758.4674
        -0.000          -0.000
 -27424845.862 9 -21347106.34949  20501337.200    20501336.3904   20501342.1664
        -0.000          -0.000
 -26249701.245 9 -20420933.33949  20485525.365    20485525.2864   20485530.2084
        -0.000          -0.000
 -24376439.771 9 -18168900.41448  20836729.082    20836728.0534   20836734.0744
        -0.000          -0.000
 01  1 20  1 59 30.0000000  0  7  9  6 17 24  5 30 10               -0.000000018
   1217434.236 8   1288694.40445  25414446.412    25414445.7944   25414456.8344
        -0.000          -0.000
 -19177705.179 9 -14702019.11947  22303852.079    22303851.6054   22303857.7964
        -0.000          -0.000
  -9398635.318 9  -7309730.95746  23729898.806    23729897.9934   23729906.1384
        -0.000          -0.000
 -10878982.314 9  -7810063.88847  22951711.523    22951711.0514   22951717.6324
        -0.000          -0.000
 -27381896.510 9 -21313639.31549  20509510.171    20509509.3724   20509515.1314
        -0.000          -0.000
 -26270109.113 9 -20436835.54949  20481641.851    20481641.7544   20481646.6954
        -0.000          -0.000
 -24383629.378 9 -18174502.67148  20835360.921    20835359.8814   20835365.8914
        -0.000          -0.000
 01  1 20  2  0  0.0000000  0  7  9  6 17 24  5 30 10               -0.000000018
   1293267.225 8   1347784.74645  25428877.116    25428876.6054   25428887.7764
        -0.000          -0.000
 -19236261.674 9 -14747647.52347  22292709.196    22292708.7594   22292714.6034
        -0.000          -0.000
  -9471361.412 9  -7366400.53846  23716059.415    23716058.6644   23716066.7474
        -0.000          -0.000
 -10800345.258 9  -7748788.21847  22966675.666    22966675.2114   22966681.6554
        -0.000          -0.000
 -27338440.460 9 -21279777.45049  20517779.613    20517778.8074   20517784.5314
        -0.000          -0.000
 -26289956.497 9 -20452301.01649  20477864.981    20477864.8994   20477869.8444
        -0.000          -0.000
 -24390203.119 9 -18179625.03248  20834109.977    20834108.9074   20834114.8904
        -0.000          -0.000
 01  1 20  2  0 30.0000000  0  7  9  6 17 24  5 30 10               -0.000000018
   1368866.810 8   1406693.23945  25443263.451    25443262.9054   25443274.1864
        -0.000          -0.000
 -19294789.212 9 -14793253.33048  22281571.861    22281571.3794   22281577.2814
        -0.000          -0.000
  -9543863.823 9  -7422895.81746  23702262.655    23702261.8464   23702269.8524
        -0.000          -0.000
 -10721684.705 9  -7687494.27447  22981644.243    22981643.7494   22981650.3714
        -0.000          -0.000
 -27294478.521 9 -21245521.38549  20526145.285    20526144.4564   20526150.1854
        -0.000          -0.000
 -26309242.012 9 -20467328.66449  20474195.050    20474194.9704   20474199.8934
        -0.000          -0.000
 -24396160.608 9 -18184267.19848  20832976.302    20832975.2314   20832981.1964
        -0.000          -0.000
 01  1 20  2  1  0.0000000  0  7  9  6 17 24  5 30 10               -0.000000019
   1444231.555 8   1465418.73645  25457604.908    25457604.5374   25457615.8844
        -0.000          -0.000
 -19353286.439 9 -14838835.49848  22270440.065    22270439.5964   22270445.8154
        -0.000          -0.000
  -9616141.449 9  -7479215.94546  23688508.582    23688507.8174   23688515.8674
        -0.000          -0.000
 -10643001.149 9  -7626182.38947  22996617.150    22996616.6344   22996623.2704
        -0.000          -0.000
 -27250011.196 9 -21210871.50849  20534607.122    20534606.2784   20534612.0024
        -0.000          -0.000
 -26327963.975 9 -20481917.17749  20470632.357    20470632.2864   20470637.1854
        -0.000          -0.000
 -24401500.888 9 -18188428.42048  20831960.013    20831958.9554   20831964.9354
        -0.000          -0.000
 01  1 20  2  1 30.0000000  0  7  9  6 17 24  5 30 10               -0.000000019
   1519361.078 8   1523960.87045  25471901.762    25471901.4594   25471912.8554
        -0.000          -0.000
 -19411751.025 9 -14884392.26048  22259314.472    22259314.0584   22259320.2984
        -0.000          -0.000
  -9688192.440 9  -7535359.46346  23674797.533    23674796.7794   23674804.9104
        -0.000          -0.000
 -10564294.734 9  -7564852.69247  23011594.561    23011594.0954   23011600.6454
        -0.000          -0.000
 -27205038.326 9 -21175827.70549  20543165.181    20543164.3334   20543170.0434
        -0.000          -0.000
 -26346119.854 9 -20496064.59149  20467177.399    20467177.3184   20467182.2204
        -0.000          -0.000
 -24406222.292 9 -18192107.40348  20831061.533    20831060.5074   20831066.4444
        -0.000          -0.000
 01  1 20  2  2  0.0000000  0  7  9  6 17 24  5 30 10               -0.000000018
   1594250.763 8   1582316.19445  25486153.169    25486152.8034   25486164.1664
        -0.000          -0.000
 -19470185.172 9 -14929925.33047  22248194.919    22248194.4754   22248200.3434
        -0.000          -0.000
  -9760019.292 9  -7591328.32846  23661129.367    23661128.5914   23661136.6194
        -0.000          -0.000
 -10485570.052 9  -7503508.76947  23026575.390    23026574.8544   23026581.3984
        -0.000          -0.000
 -27159564.012 9 -21140393.16349  20551818.662    20551817.8234   20551823.5264
        -0.000          -0.000
 -26363711.547 9 -20509772.37649  20463829.789    20463829.7064   20463834.5864
        -0.000          -0.000
 -24410327.407 9 -18195306.16449  20830280.381    20830279.3084   20830285.2344
        -0.000          -0.000
 01  1 20  2  2 30.0000000  0  7  9  6 17 24  5 30 10               -0.000000019
   1668898.969 8   1640483.31945  25500358.468    25500358.0504   25500369.2934
        -0.000          -0.000
 -19528587.601 9 -14975433.65448  22237081.255    22237080.7704   22237086.7054
        -0.000          -0.000
  -9831621.208 9  -7647121.92346  23647503.888    23647503.1744   23647511.1694
        -0.000          -0.000
 -10406828.284 9  -7442151.52547  23041559.498    23041559.0304   23041565.3434
        -0.000          -0.000
 -27113589.205 9 -21104568.62649  20560567.344    20560566.5064   20560572.2214
        -0.000          -0.000
 -26380737.486 9 -20523039.31049  20460589.816    20460589.7494   20460594.6164
        -0.000          -0.000
 -24413815.137 9 -18198023.83749  20829616.679    20829615.5874   20829621.5284
        -0.000          -0.000
 01  1 20  2  3  0.0000000  0  7  9  6 17 24  5 30 10               -0.000000019
   1743304.302 8   1698461.13345  25514517.560    25514516.9774   25514528.5864
        -0.000          -0.000
 -19586957.054 9 -15020916.27448  22225973.696    22225973.2694   22225979.4924
        -0.000          -0.000
  -9902996.956 9  -7702739.27746  23633921.504    23633920.7184   23633928.6864
        -0.000          -0.000
 -10328070.169 9  -7380781.51447  23056546.837    23056546.3054   23056552.3894
        -0.000          -0.000
 -27067114.484 9 -21068354.55049  20569411.169    20569410.3344   20569416.0424
        -0.000          -0.000
 -26397196.060 9 -20535864.14849  20457457.858    20457457.7874   20457462.6364
        -0.000          -0.000
 -24416684.587 9 -18200259.74449  20829070.605    20829069.5354   20829075.4664
        -0.000          -0.000
 01  1 20  2  3 30.0000000  0  7  9  6 17 24  5 30 10               -0.000000019
   1817466.471 8   1756249.49745  25528630.420    25528629.8784   25528641.3954
        -0.000          -0.000
 -19645291.306 9 -15066371.47648  22214873.087    22214872.6934   22214878.8404
        -0.000          -0.000
  -9974144.884 9  -7758179.09046  23620382.361    23620381.5504   23620389.5934
        -0.000          -0.000
 -10249295.978 9  -7319399.00747  23071536.965    23071536.4384   23071542.5764
        -0.000          -0.000
 -27020139.523 9 -21031750.67049  20578350.184    20578349.3654   20578355.0904
        -0.000          -0.000
 -26413085.061 9 -20548245.16049  20454434.229    20454434.1404   20454438.9804
        -0.000          -0.000
 -24418934.571 9 -18202012.94649  20828642.424    20828641.3424   20828647.2694
        -0.000          -0.000
 01  1 20  2  4  0.0000000  0  7  9  6 17 24  5 30 10               -0.000000019
   1891382.100 8   1813845.71545  25542696.274    25542695.7494   25542707.4514
        -0.000          -0.000
 -19703591.154 9 -15111799.88948  22203779.153    22203778.6644   22203784.5844
        -0.000          -0.000
 -10045066.395 9  -7813442.49846  23606886.436    23606885.7134   23606893.6124
        -0.000          -0.000
 -10170508.584 9  -7258006.21847  23086529.713    23086529.2094   23086535.4174
        -0.000          -0.000
 -26972667.236 9 -20994759.27349  20587383.852    20587383.0114   20587388.7674
        -0.000          -0.000
 -26428405.418 9 -20560183.07849  20451518.846    20451518.7684   20451523.6184
        -0.000          -0.000
 -24420566.434 9 -18203284.49849  20828331.877    20828330.7974   20828336.7044
        -0.000          -0.000
 01  1 20  2  4 30.0000000  0  7  9  6 17 24  5 30 10               -0.000000018
   1965049.022 8   1871248.14845  25556715.057    25556714.4334   25556726.1864
        -0.000          -0.000
 -19761855.755 9 -15157200.81048  22192691.493    22192691.0504   22192697.0564
        -0.000          -0.000
 -10115761.032 9  -7868529.12646  23593433.812    23593433.0074   23593440.7444
        -0.000          -0.000
 -10091709.512 9  -7196604.33547  23101524.767    23101524.2674   23101530.4614
        -0.000          -0.000
 -26924698.955 9 -20957381.38249  20596511.880    20596511.0424   20596516.8134
        -0.000          -0.000
 -26443155.997 9 -20571677.00849  20448711.851    20448711.7824   20448716.6544
        -0.000          -0.000
 -24421579.764 9 -18204074.07649  20828139.007    20828137.9204   20828143.8104
        -0.000          -0.000
 01  1 20  2  5  0.0000000  0  7  9  6 17 24  5 30 10               -0.000000019
   2038465.924 8   1928455.68445  25570686.028    25570685.6234   25570697.2944
        -0.000          -0.000
 -19820084.082 9 -15202573.45948  22181610.882    22181610.5004   22181616.6564
        -0.000          -0.000
 -10186228.294 9  -7923438.56046  23580024.180    23580023.3304   23580030.9344
        -0.000          -0.000
 -10012899.832 9  -7135194.15747  23116521.731    23116521.2554   23116527.3424
        -0.000          -0.000
 -26876235.722 9 -20919617.81549  20605734.119    20605733.2684   20605739.0274
        -0.000          -0.000
 -26457335.717 9 -20582726.11349  20446013.524    20446013.4494   20446018.3304
        -0.000          -0.000
 -24421974.383 9 -18204381.54149  20828063.912    20828062.8224   20828068.6924
        -0.000          -0.000
 01  1 20  2  5 30.0000000  0  7  9  6 17 24  5 30 10               -0.000000020
   2111631.828 8   1985467.71145  25584609.261    25584608.9434   25584620.5134
        -0.000          -0.000
 -19878274.400 9 -15247916.51948  22170537.820    22170537.3864   22170543.4064
        -0.000          -0.000
 -10256466.858 9  -7978169.78946  23566657.998    23566657.1844   23566664.8074
        -0.000          -0.000
  -9934080.279 9  -7073776.29447  23131520.554    23131520.0624   23131526.1884
        -0.000          -0.000
 -26827278.033 9 -20881468.95949  20615050.477    20615049.6284   20615055.3674
        -0.000          -0.000
 -26470942.712 9 -20593328.94549  20443424.190    20443424.1224   20443428.9694
        -0.000          -0.000
 -24421749.323 9 -18204206.14449  20828106.738    20828105.6534   20828111.4924
        -0.000          -0.000
 01  1 20  2  6  0.0000000  0  7  9  6 17 24  5 30 10               -0.000000020
   2184543.702 8   2042281.72345  25598484.186    25598483.9074   25598495.6364
        -0.000          -0.000
 -19936426.848 9 -15293230.07048  22159471.737    22159471.2984   22159477.0874
        -0.000          -0.000
 -10326477.610 9  -8032723.50946  23553335.221    23553334.5064   23553342.1644
        -0.000          -0.000
  -9855253.007 9  -7012352.42647  23146520.905    23146520.4274   23146526.5734
        -0.000          -0.000
 -26777828.282 9 -20842936.67949  20624460.400    20624459.5744   20624465.3264
        -0.000          -0.000
 -26483977.153 9 -20603485.62849  20440943.790    20440943.7194   20440948.5654
        -0.000          -0.000
 -24420905.409 9 -18203548.52149  20828267.327    20828266.2114   20828272.0344
        -0.000          -0.000
 01  1 20  2  6 30.0000000  0  7  9  6 17 24  5 30 10               -0.000000020
   2257200.549 8   2098897.01545  25612310.697    25612310.5354   25612322.2404
        -0.000          -0.000
 -19994539.861 9 -15338512.88248  22148413.096    22148412.6834   22148418.4524
        -0.000          -0.000
 -10396259.162 9  -8087098.62846  23540056.257    23540055.5294   23540063.2804
        -0.000          -0.000
  -9776419.678 9  -6950923.84547  23161522.374    23161521.8624   23161528.1294
        -0.000          -0.000
 -26727886.990 9 -20804021.38049  20633963.889    20633963.0854   20633968.8254
        -0.000          -0.000
 -26496437.481 9 -20613194.94949  20438572.652    20438572.5814   20438577.4004
        -0.000          -0.000
 -24419441.899 9 -18202408.09848  20828545.761    20828544.6694   20828550.5064
        -0.000          -0.000
 01  1 20  2  7  0.0000000  0  7  9  6 17 24  5 30 10               -0.000000020
   2329600.448 8   2155312.09145  25626088.259    25626088.0794   25626099.7594
        -0.000          -0.000
 -20052612.908 9 -15383764.54148  22137362.206    22137361.7834   22137367.6684
        -0.000          -0.000
 -10465811.771 9  -8141295.36146  23526820.817    23526820.0724   23526827.7434
        -0.000          -0.000
  -9697581.368 9  -6889491.37847  23176524.744    23176524.2264   23176530.4624
        -0.000          -0.000
 -26677455.768 9 -20764724.31949  20643560.643    20643559.8214   20643565.5654
        -0.000          -0.000
 -26508323.354 9 -20622456.64449  20436310.831    20436310.7564   20436315.5944
        -0.000          -0.000
 -24417359.226 9 -18200785.21048  20828942.067    20828940.9744   20828946.7694
        -0.000          -0.000
 01  1 20  2  7 30.0000000  0  7  9  6 17 24  5 30 10               -0.000000020
   2401741.322 8   2211525.29545  25639816.537    25639816.1244   25639828.0634
        -0.000          -0.000
 -20110645.479 9 -15428984.66248  22126318.948    22126318.4794   22126324.4714
        -0.000          -0.000
 -10535135.497 9  -8195313.76346  23513628.867    23513628.1344   23513635.8094
        -0.000          -0.000
  -9618739.696 9  -6828056.29847  23191527.631    23191527.1604   23191533.4314
        -0.000          -0.000
 -26626536.525 9 -20725046.97949  20653250.259    20653249.4334   20653255.1814
        -0.000          -0.000
 -26519634.117 9 -20631270.20349  20434158.448    20434158.3774   20434163.1984
        -0.000          -0.000
 -24414657.468 9 -18198679.91848  20829456.200    20829455.1084   20829460.8934
        -0.000          -0.000
 01  1 20  2  8  0.0000000  0  7  9  6 17 24  5 30 10               -0.000000020
   2473621.194 8   2267535.07845  25653495.014    25653494.7854   25653506.6604
        -0.000          -0.000
 -20168636.705 9 -15474172.57348  22115283.414    22115282.9784   22115288.9534
        -0.000          -0.000
 -10604229.972 9  -8249153.51946  23500480.614    23500479.9364   23500487.4464
        -0.000          -0.000
  -9539896.198 9  -6766619.76747  23206531.221    23206530.7434   23206536.8744
        -0.000          -0.000
 -26575130.622 9 -20684990.42949  20663032.442    20663031.6114   20663037.3454
        -0.000          -0.000
 -26530369.354 9 -20639635.30149  20432115.552    20432115.4814   20432120.3064
        -0.000          -0.000
 -24411336.898 9 -18196092.43648  20830088.045    20830086.9414   20830092.7364
        -0.000          -0.000
 01  1 20  2  8 30.0000000  0  7  9  6 17 24  5 30 10               -0.000000020
   2545238.768 8   2323340.52845  25667123.690    25667123.2794   25667135.2764
        -0.000          -0.000
 -20226585.396 9 -15519327.36348  22104256.207    22104255.7824   22104261.5284
        -0.000          -0.000
 -10673094.754 9  -8302814.31046  23487376.035    23487375.3084   23487382.7134
        -0.000          -0.000
  -9461052.025 9  -6705182.72347  23221534.831    23221534.3174   23221540.4374
        -0.000          -0.000
 -26523239.250 9 -20644555.59249  20672907.030    20672906.2054   20672911.9184
        -0.000          -0.000
 -26540527.863 9 -20647550.99949  20430182.457    20430182.3894   20430187.1874
        -0.000          -0.000
 -24407397.332 9 -18193022.61948  20830837.663    20830836.5724   20830842.3584
        -0.000          -0.000
 01  1 20  2  9  0.0000000  0  8 26  9  6 17 24  5 30 10            -0.000000021
   -669249.677 9   -510690.81642         0.000           0.0004          0.0004
        -0.000          -0.000
   2616592.659 8   2378940.46245  25680702.285    25680701.9684   25680714.1184
        -0.000          -0.000
 -20284490.076 9 -15564447.82848  22093237.281    22093236.8114   22093242.6464
        -0.000          -0.000
 -10741729.060 9  -8356295.50246  23474315.186    23474314.4404   23474322.0114
        -0.000          -0.000
  -9382208.169 9  -6643745.91947  23236538.205    23236537.6714   23236543.9254
        -0.000          -0.000
 -26470863.376 9 -20603743.21549  20682873.856    20682873.0254   20682878.7274
        -0.000          -0.000
 -26550108.562 9 -20655016.45349  20428359.302    20428359.2014   20428364.0054
        -0.000          -0.000
 -24402838.184 9 -18189470.01148  20831705.229    20831704.1314   20831709.9324
        -0.000          -0.000
 01  1 20  2  9 30.0000000  0  8 26  9  6 17 24  5 30 10            -0.000000022
   -737276.410 9   -563698.31152         0.000           0.0004          0.0005
        -0.000          -0.000
   2687681.427 8   2434333.81145  25694230.525    25694229.9754   25694242.3164
        -0.000          -0.000
 -20342349.483 9 -15609533.01848  22082226.846    22082226.4134   22082232.3754
        -0.000          -0.000
 -10810131.921 9  -8409596.35546  23461298.350    23461297.6224   23461305.1694
        -0.000          -0.000
  -9303365.067 9  -6582309.75746  23251541.073    23251540.6734   23251547.3134
        -0.000          -0.000
 -26418003.819 9 -20562553.95149  20692932.703    20692931.8614   20692937.5454
        -0.000          -0.000
 -26559109.997 9 -20662030.54149  20426646.359    20426646.2874   20426651.0644
        -0.000          -0.000
 -24397659.218 9 -18185434.42948  20832690.717    20832689.6294   20832695.4384
        -0.000          -0.000
 01  1 20  2 10  0.0000000  0  8 26  9  6 17 24  5 30 10            -0.000000022
   -805527.231 8   -616880.22043         0.000           0.0004   25306597.9924
        -0.000          -0.000
   2758502.106 8   2489518.20145  25707707.624    25707707.0944   25707719.7484
        -0.000          -0.000
 -20400164.068 9 -15654583.30548  22071225.119    22071224.6494   22071230.4134
        -0.000          -0.000
 -10878304.784 9  -8462717.98246  23448325.393    23448324.6434   23448332.1834
        -0.000          -0.000
  -9224526.065 9  -6520876.74047  23266543.686    23266543.2674   23266549.8064
        -0.000          -0.000
 -26364663.718 9 -20520990.23549  20703082.999    20703082.1644   20703087.8354
        -0.000          -0.000
 -26567533.248 9 -20668594.09149  20425043.464    20425043.3974   20425048.1684
        -0.000          -0.000
 -24391862.193 9 -18180917.23948  20833793.844    20833792.7654   20833798.5394
        -0.000          -0.000
 01  1 20  2 10 30.0000000  0  8 26  9  6 17 24  5 30 10            -0.000000021
   -873999.723 9   -670235.29445  25293564.646    25293559.7134   25293565.2984
        -0.000          -0.000
   2829053.204 8   2544492.52645  25721133.443    25721132.9094   25721145.5654
        -0.000          -0.000
 -20457932.758 9 -15699597.81448  22060232.071    22060231.5904   22060237.3554
        -0.000          -0.000
 -10946246.990 9  -8515659.88647  23435396.522    23435395.7134   23435403.2414
        -0.000          -0.000
  -9145692.057 9  -6459447.58247  23281545.450    23281545.0024   23281551.2494
        -0.000          -0.000
 -26310844.258 9 -20479052.99549  20713324.486    20713323.6544   20713329.3224
        -0.000          -0.000
 -26575377.547 9 -20674706.51049  20423550.730    20423550.6704   20423555.4514
        -0.000          -0.000
 -24385446.745 9 -18175918.15948  20835014.646    20835013.5604   20835019.3364
        -0.000          -0.000
 01  1 20  2 11  0.0000000  0  8 26  9  6 17 24  5 30 10            -0.000000021
   -942693.039 8   -723762.37345  25280489.349    25280482.5264   25280493.6054
        -0.000          -0.000
   2899331.413 8   2599254.19545  25734507.344    25734506.8024   25734519.4904
        -0.000          -0.000
 -20515656.224 9 -15744577.07348  22049247.510    22049247.0944   22049253.0564
        -0.000          -0.000
 -11013959.840 9  -8568423.06547  23422511.189    23422510.3544   23422517.8624
        -0.000          -0.000
  -9066866.250 9  -6398024.85347  23296545.429    23296544.9674   23296551.2014
        -0.000          -0.000
 -26256548.405 9 -20436744.54049  20723656.639    20723655.8124   20723661.4864
        -0.000          -0.000
 -26582643.639 9 -20680368.38349  20422168.008    20422167.9474   20422172.7194
        -0.000          -0.000
 -24378414.736 9 -18170438.65048  20836352.765    20836351.6944   20836357.4524
        -0.000          -0.000
 01  1 20  2 11 30.0000000  0  8 26  9  6 17 24  5 30 10            -0.000000021
  -1011601.644 8   -777457.11145  25267373.972    25267369.4844   25267379.2114
        -0.000          -0.000
   2969338.371 8   2653804.46745  25747829.596    25747829.2084   25747842.0504
        -0.000          -0.000
 -20573330.217 9 -15789517.80948  22038272.550    22038272.1324   22038277.9264
        -0.000          -0.000
 -11081439.777 9  -8621004.76847  23409670.248    23409669.3434   23409676.6874
        -0.000          -0.000
  -8988046.446 9  -6336606.81147  23311544.281    23311543.8744   23311550.1694
        -0.000          -0.000
 -26201774.644 9 -20394063.69049  20734079.755    20734078.9364   20734084.5834
        -0.000          -0.000
 -26589327.727 9 -20685576.74549  20420896.059    20420895.9884   20420900.7324
        -0.000          -0.000
 -24370763.181 9 -18164476.37348  20837808.772    20837807.6864   20837813.4374
        -0.000          -0.000
 01  1 20  2 12  0.0000000  0  8 26  9  6 17 24  5 30 10            -0.000000022
  -1080724.185 7   -831318.75745  25254219.717    25254215.7774   25254226.0064
        -0.000          -0.000
   3039070.782 8   2708140.89845  25761099.644    25761099.1914   25761112.0684
        -0.000          -0.000
 -20630955.344 9 -15834420.45548  22027306.818    22027306.3934   22027311.9864
        -0.000          -0.000
 -11148688.326 9  -8673406.14547  23396873.067    23396872.1924   23396879.7404
        -0.000          -0.000
  -8909235.503 9  -6275195.67446  23326541.454    23326540.9624   23326547.3654
        -0.000          -0.000
 -26146526.185 9 -20351012.94049  20744593.197    20744592.3584   20744598.0104
        -0.000          -0.000
 -26595430.889 9 -20690332.43549  20419734.667    20419734.5924   20419739.3214
        -0.000          -0.000
 -24362493.932 9 -18158032.77548  20839382.349    20839381.2674   20839386.9814
        -0.000          -0.000
 01  1 20  2 12 30.0000000  0  8 26  9  6 17 24  5 30 10            -0.000000022
  -1150060.299 8   -885346.33144  25241025.579    25241025.5234   25241030.2724
        -0.000          -0.000
   3108526.422 8   2762261.59245  25774316.965    25774316.4424   25774329.5334
        -0.000          -0.000
 -20688531.182 9 -15879284.69748  22016350.537    22016350.0984   22016355.6854
        -0.000          -0.000
 -11215705.728 9  -8725627.41647  23384120.010    23384119.1614   23384126.6594
        -0.000          -0.000
  -8830435.150 9  -6213792.78547  23341536.661    23341536.2104   23341542.5834
        -0.000          -0.000
 -26090805.167 9 -20307593.96949  20755196.543    20755195.7174   20755201.3814
        -0.000          -0.000
 -26600953.282 9 -20694635.58749  20418683.784    20418683.7094   20418688.4204
        -0.000          -0.000
 -24353608.104 9 -18151108.72348  20841073.254    20841072.1664   20841077.8954
        -0.000          -0.000
 01  1 20  2 13  0.0000000  0  8 26  9  6 17 24  5 30 10            -0.000000022
  -1219605.980 9   -939537.71345  25227790.918    25227790.7544   25227796.5864
        -0.000          -0.000
   3177704.954 8   2816166.33745  25787481.638    25787481.4164   25787493.8044
        -0.000          -0.000
 -20746055.446 9 -15924108.74148  22005404.005    22005403.5564   22005409.1934
        -0.000          -0.000
 -11282490.724 9  -8777667.60147  23371411.178    23371410.3294   23371417.6904
        -0.000          -0.000
  -8751645.767 9  -6152398.42847  23356529.929    23356529.4614   23356535.7194
        -0.000          -0.000
 -26034611.841 9 -20263806.96049  20765889.772    20765888.9444   20765894.6264
        -0.000          -0.000
 -26605892.847 9 -20698484.57749  20417743.795    20417743.7204   20417748.4154
        -0.000          -0.000
 -24344104.616 9 -18143703.38148  20842881.648    20842880.5644   20842886.3154
        -0.000          -0.000
 01  1 20  2 13 30.0000000  0  8 26  9  6 17 24  5 30 10            -0.000000023
  -1289359.671 8   -993891.12345  25214516.667    25214516.6744   25214522.7324
        -0.000          -0.000
   3246604.143 8   2869853.39045  25800593.055    25800593.0604   25800605.3114
        -0.000          -0.000
 -20803527.989 9 -15968892.48948  21994467.258    21994466.8084   21994472.4674
        -0.000          -0.000
 -11349043.859 9  -8829527.11147  23358746.382    23358745.5974   23358752.8974
        -0.000          -0.000
  -8672868.931 9  -6091013.86246  23371520.469    23371519.9944   23371526.2714
        -0.000          -0.000
 -25977948.652 9 -20219653.82849  20776672.428    20776671.6004   20776677.3144
        -0.000          -0.000
 -26610249.967 9 -20701879.72049  20416914.633    20416914.5544   20416919.2654
        -0.000          -0.000
 -24333984.380 9 -18135817.45148  20844807.428    20844806.3614   20844812.1334
        -0.000          -0.000
 01  1 20  2 14  0.0000000  0  6  6 17 24  5 30 10                  -0.000000023
 -20860947.771 9 -16013635.12748  21983540.555    21983540.1224   21983545.7764
        -0.000          -0.000
 -11415364.843 9  -8881205.70847  23346125.761    23346124.9744   23346132.3734
        -0.000          -0.000
  -8594106.587 9  -6029640.57246  23386508.408    23386507.9674   23386514.1934
        -0.000          -0.000
 -25920816.931 9 -20175135.60249  20787544.223    20787543.3934   20787549.1354
        -0.000          -0.000
 -26614023.959 9 -20704820.47449  20416196.454    20416196.3814   20416201.0894
        -0.000          -0.000
 -24323247.538 9 -18127451.05448  20846850.491    20846849.4564   20846855.2534
        -0.000          -0.000
 01  1 20  2 14 30.0000000  0  6  6 17 24  5 30 10                  -0.000000023
 -20918313.218 9 -16058335.41848  21972624.295    21972623.8294   21972629.5894
        -0.000          -0.000
 -11481452.612 9  -8932702.59847  23333549.501    23333548.7804   23333556.2254
        -0.000          -0.000
  -8515358.804 9  -5968278.65046  23401493.733    23401493.1244   23401499.5064
        -0.000          -0.000
 -25863217.826 9 -20130253.18149  20798504.981    20798504.1454   20798509.8464
        -0.000          -0.000
 -26617213.972 9 -20707306.18549  20415589.418    20415589.3524   20415594.0594
        -0.000          -0.000
 -24311894.170 9 -18118604.24848  20849010.951    20849009.9214   20849015.7124
        -0.000          -0.000
 01  1 20  2 15  0.0000000  0  6  6 17 24  5 30 10                  -0.000000023
 -20975624.723 9 -16102993.68248  21961718.189    21961717.7294   21961723.4644
        -0.000          -0.000
 -11547308.597 9  -8984018.86847  23321017.640    23321016.8164   23321024.2954
        -0.000          -0.000
  -8436627.954 9  -5906929.91246  23416475.563    23416475.0624   23416481.4354
        -0.000          -0.000
 -25805154.384 9 -20085008.93849  20809554.088    20809553.2564   20809558.9354
        -0.000          -0.000
 -26619821.185 9 -20709337.76649  20415093.272    20415093.1954   20415097.8984
        -0.000          -0.000
 -24299926.212 9 -18109278.53848  20851288.388    20851287.3344   20851293.0904
        -0.000          -0.000
 01  1 20  2 15 30.0000000  0  6  6 17 24  5 30 10                  -0.000000023
 -21032880.385 9 -16147608.44748  21950822.818    21950822.3624   21950827.8974
        -0.000          -0.000
 -11612932.103 9  -9035153.98747  23308529.822    23308528.9714   23308536.4784
        -0.000          -0.000
  -8357915.211 9  -5845595.26446  23431454.148    23431453.6124   23431459.9524
        -0.000          -0.000
 -25746627.635 9 -20039403.67649  20820691.352    20820690.5264   20820696.1764
        -0.000          -0.000
 -26621844.389 9 -20710914.27549  20414708.253    20414708.1724   20414712.8484
        -0.000          -0.000
 -24287343.520 9 -18099473.81748  20853682.776    20853681.7274   20853687.4944
        -0.000          -0.000
 01  1 20  2 16  0.0000000  0  6  6 17 24  5 30 10                  -0.000000024
 -21090079.451 9 -16192179.08948  21939938.168    21939937.7174   21939943.3614
        -0.000          -0.000
 -11678323.130 9  -9086107.95047  23296086.185    23296085.4364   23296092.8934
        -0.000          -0.000
  -8279221.672 9  -5784275.63846  23446428.892    23446428.3464   23446434.9204
        -0.000          -0.000
 -25687639.654 9 -19993439.01549  20831916.416    20831915.5854   20831921.2184
        -0.000          -0.000
 -26623283.460 9 -20712035.61149  20414434.410    20414434.3314   20414439.0164
        -0.000          -0.000
 -24274146.611 9 -18089190.48248  20856194.030    20856192.9984   20856198.7604
        -0.000          -0.000
 01  1 20  2 16 30.0000000  0  6  6 17 24  5 30 10                  -0.000000024
 -21147219.110 9 -16236703.45248  21929064.836    21929064.3854   21929070.0304
        -0.000          -0.000
 -11743479.502 9  -9136879.06747  23283687.288    23283686.4994   23283693.9384
        -0.000          -0.000
  -8200547.101 9  -5722970.78746  23461400.104    23461399.6114   23461406.2284
        -0.000          -0.000
 -25628190.198 9 -19947114.75849  20843229.250    20843228.4034   20843234.0534
        -0.000          -0.000
 -26624136.009 9 -20712699.91849  20414272.174    20414272.0944   20414276.7774
        -0.000          -0.000
 -24260334.097 9 -18078427.45548  20858822.467    20858821.4084   20858827.1724
        -0.000          -0.000
 01  1 20  2 17  0.0000000  0  6  6 17 24  5 30 10                  -0.000000023
 -21204300.912 9 -16281182.73948  21918202.482    21918202.0454   21918207.5084
        -0.000          -0.000
 -11808404.021 9  -9187469.52247  23271332.542    23271331.7624   23271339.1014
        -0.000          -0.000
  -8121895.211 9  -5661683.53446  23476367.210    23476366.7204   23476372.9404
        -0.000          -0.000
 -25568283.819 9 -19900434.45349  20854629.037    20854628.1814   20854633.8454
        -0.000          -0.000
 -26624404.587 9 -20712909.18449  20414221.061    20414220.9694   20414225.6564
        -0.000          -0.000
 -24245909.505 9 -18067187.48648  20861567.378    20861566.2984   20861572.0594
        -0.000          -0.000
 01  1 20  2 17 30.0000000  0  7  6 17 24  5 25 30 10               -0.000000024
 -21261323.448 9 -16325615.83948  21907351.352    21907350.9174   21907356.3644
        -0.000          -0.000
 -11873095.976 9  -9237878.76147  23259022.112    23259021.2654   23259028.5764
        -0.000          -0.000
  -8043266.846 9  -5600414.65146  23491329.664    23491329.1714   23491335.1394
        -0.000          -0.000
 -25507921.711 9 -19853399.03849  20866115.564    20866114.7094   20866120.3534
        -0.000          -0.000
   -305110.311 8   -124707.93945  25628301.564    25628300.7474   25628309.9364
        -0.000          -0.000
 -26624088.697 9 -20712663.02349  20414281.140    20414281.0474   20414285.7294
        -0.000          -0.000
 -24230873.040 9 -18055470.73148  20864428.689    20864427.6274   20864433.3644
        -0.000          -0.000
 01  1 20  2 18  0.0000000  0  7  6 17 24  5 25 30 10               -0.000000023
 -21318284.407 9 -16370000.95148  21896511.973    21896511.5314   21896517.0774
        -0.000          -0.000
 -11937553.834 9  -9288105.60147  23246756.191    23246755.3364   23246762.5364
        -0.000          -0.000
  -7964661.999 9  -5539164.09346  23506287.709    23506287.2864   23506293.2324
        -0.000          -0.000
 -25447104.459 9 -19806008.96849  20877688.666    20877687.8374   20877693.4914
        -0.000          -0.000
   -313656.964 8   -131367.61245  25626675.328    25626674.5524   25626683.3964
        -0.000          -0.000
 -26623186.462 9 -20711959.97049  20414452.821    20414452.7194   20414457.4034
        -0.000          -0.000
 -24215223.799 9 -18043276.49448  20867406.584    20867405.5364   20867411.2834
        -0.000          -0.000
 01  1 20  2 18 30.0000000  0  7  6 17 24  5 25 30 10               -0.000000024
 -21375183.355 9 -16414337.75148  21885684.446    21885683.9874   21885689.4614
        -0.000          -0.000
 -12001778.296 9  -9338150.55547  23234534.516    23234533.6974   23234540.8234
        -0.000          -0.000
  -7886082.344 9  -5477933.19646  23521241.043    23521240.5444   23521246.7274
        -0.000          -0.000
 -25385834.598 9 -19758266.22949  20889347.919    20889347.1064   20889352.7474
        -0.000          -0.000
   -321795.917 8   -137709.60045  25625126.512    25625125.8354   25625134.7984
        -0.000          -0.000
 -26621698.463 9 -20710800.47749  20414735.948    20414735.8624   20414740.5564
        -0.000          -0.000
 -24198963.091 9 -18030605.78348  20870500.883    20870499.8144   20870505.5374
        -0.000          -0.000
 01  1 20  2 19  0.0000000  0  7  6 17 24  5 25 30 10               -0.000000025
 -21432019.571 9 -16458625.65948  21874868.834    21874868.4134   21874873.8714
        -0.000          -0.000
 -12065769.878 9  -9388014.05747  23222357.371    23222356.5174   23222363.6344
        -0.000          -0.000
  -7807529.912 9  -5416723.53146  23536188.902    23536188.4064   23536194.8394
        -0.000          -0.000
 -25324114.533 9 -19710172.67349  20901092.864    20901092.0354   20901097.6704
        -0.000          -0.000
   -329528.392 8   -143734.89245  25623655.074    25623654.6334   25623663.2314
        -0.000          -0.000
 -26619625.429 9 -20709185.11149  20415130.430    20415130.3294   20415135.0384
        -0.000          -0.000
 -24182091.829 9 -18017459.31948  20873711.378    20873710.3114   20873716.0064
        -0.000          -0.000
 01  1 20  2 19 30.0000000  0  7  6 17 24  5 25 30 10               -0.000000026
 -21488791.254 9 -16502863.28548  21864065.630    21864065.1134   21864070.6644
        -0.000          -0.000
 -12129527.568 9  -9437695.29647  23210224.456    23210223.7174   23210230.9144
        -0.000          -0.000
  -7729004.208 9  -5355534.61546  23551131.809    23551131.3114   23551137.5104
        -0.000          -0.000
 -25261944.928 9 -19661728.83049  20912923.359    20912922.5354   20912928.1594
        -0.000          -0.000
   -336854.472 8   -149443.48445  25622260.942    25622260.6284   25622269.2204
        -0.000          -0.000
 -26616965.703 9 -20707112.58849  20415636.524    20415636.4294   20415641.1504
        -0.000          -0.000
 -24164610.312 9 -18003837.33048  20877037.975    20877036.8784   20877042.5804
        -0.000          -0.000
 01  1 20  2 20  0.0000000  0  8 26  6 17 24  5 25 30 10            -0.000000024
  -1522194.077 8  -1150533.13342         0.000           0.0004          0.0004
        -0.000          -0.000
 -21545496.141 9 -16547048.85748  21853274.799    21853274.3534   21853279.9784
        -0.000          -0.000
 -12193050.217 9  -9487193.39247  23198136.402    23198135.6454   23198142.9334
        -0.000          -0.000
  -7650505.626 9  -5294366.85446  23566069.831    23566069.2694   23566075.1554
        -0.000          -0.000
 -25199326.665 9 -19612935.38349  20924839.209    20924838.3764   20924844.0074
        -0.000          -0.000
   -343773.905 8   -154835.21745  25620944.226    25620943.8904   25620952.3664
        -0.000          -0.000
 -26613718.245 9 -20704582.08949  20416254.467    20416254.3614   20416259.0914
        -0.000          -0.000
 -24146518.049 9 -17989739.43648  20880480.767    20880479.7054   20880485.3994
        -0.000          -0.000
 01  1 20  2 20 30.0000000  0  7  6 17 24  5 25 30 10               -0.000000024
 -21602136.060 9 -16591183.83148  21842496.645    21842496.1954   21842501.6384
        -0.000          -0.000
 -12256340.864 9  -9536510.71247  23186092.597    23186091.8224   23186099.0144
        -0.000          -0.000
  -7572038.079 9  -5233223.26646  23581001.823    23581001.2624   23581006.9564
        -0.000          -0.000
 -25136264.538 9 -19563796.06249  20936839.562    20936838.7084   20936844.3554
        -0.000          -0.000
   -350289.931 8   -159912.59345  25619704.328    25619703.8674   25619712.1194
        -0.000          -0.000
 -26609886.109 9 -20701595.99549  20416983.675    20416983.5864   20416988.2974
        -0.000          -0.000
 -24127818.418 9 -17975168.27048  20884039.162    20884038.0914   20884043.7884
        -0.000          -0.000
 01  1 20  2 21  0.0000000  0  7  6 17 24  5 25 30 10               -0.000000026
 -21658708.209 9 -16635265.95948  21831731.237    21831730.7474   21831736.4194
        -0.000          -0.000
 -12319397.588 9  -9585645.75547  23174093.273    23174092.5004   23174099.5674
        -0.000          -0.000
  -7493601.853 9  -5172104.14546  23595927.473    23595926.9204   23595932.9544
        -0.000          -0.000
 -25072758.747 9 -19514311.02749  20948924.259    20948923.4224   20948929.0884
        -0.000          -0.000
   -356401.539 8   -164674.86245  25618541.387    25618540.8134   25618548.8144
        -0.000          -0.000
 -26605467.286 9 -20698152.74549  20417824.547    20417824.4744   20417829.1754
        -0.000          -0.000
 -24108511.122 9 -17960123.59348  20887713.252    20887712.1384   20887717.8414
        -0.000          -0.000
 01  1 20  2 21 30.0000000  0  8 26  6 17 24  5 25 30 10            -0.000000026
  -1739955.941 9  -1063211.31642         0.000           0.0004          0.0004
        -0.000          -0.000
 -21715210.212 9 -16679293.46648  21820979.180    21820978.7714   21820984.3434
        -0.000          -0.000
 -12382218.969 9  -9634597.40947  23162138.612    23162137.8664   23162144.9434
        -0.000          -0.000
  -7415195.901 9  -5111008.62846  23610847.377    23610846.9614   23610853.2704
        -0.000          -0.000
 -25008809.809 9 -19464480.69149  20961093.350    20961092.5084   20961098.1904
        -0.000          -0.000
   -362108.153 8   -169121.56045  25617455.499    25617454.9644   25617462.9054
        -0.000          -0.000
 -26600460.351 9 -20694251.22749  20418777.319    20418777.2354   20418781.9514
        -0.000          -0.000
 -24088595.429 9 -17944604.84948  20891502.990    20891501.9144   20891507.6194
        -0.000          -0.000
 01  1 20  2 22  0.0000000  0  7  6 17 24  5 25 30 10               -0.000000025
 -21771642.964 9 -16723266.99648  21810240.394    21810239.9154   21810245.4514
        -0.000          -0.000
 -12444807.108 9  -9683367.31747  23150228.358    23150227.6014   23150234.7434
        -0.000          -0.000
  -7336823.669 9  -5049939.29746  23625761.373    23625760.9264   23625766.8734
        -0.000          -0.000
 -24944421.613 9 -19414308.06949  20973346.007    20973345.1854   20973350.8734
        -0.000          -0.000
   -367412.829 8   -173255.03045  25616446.004    25616445.7154   25616453.6534
        -0.000          -0.000
 -26594867.348 9 -20689893.03249  20419841.616    20419841.5184   20419846.2364
        -0.000          -0.000
 -24068073.789 9 -17928613.93848  20895408.108    20895407.0414   20895412.7314
        -0.000          -0.000
 01  1 20  2 22 30.0000000  0  8 26  6 17 24  5 25 30 10            -0.000000024
  -1885969.002 8  -1176985.20452         0.000           0.0004          0.0005
        -0.000          -0.000
 -21828004.998 9 -16767185.40548  21799514.924    21799514.5104   21799520.2344
        -0.000          -0.000
 -12507161.647 9  -9731955.19047  23138362.645    23138361.8964   23138369.1594
        -0.000          -0.000
  -7258486.163 9  -4988897.06046  23640668.659    23640668.1764   23640674.0524
        -0.000          -0.000
 -24879595.946 9 -19363794.56449  20985681.911    20985681.0954   20985686.7774
        -0.000          -0.000
   -372316.005 8   -177075.68245  25615512.952    25615512.6194   25615520.6964
        -0.000          -0.000
 -26588688.150 9 -20685078.06049  20421017.443    20421017.3644   20421022.0744
        -0.000          -0.000
 -24046947.084 9 -17912151.54148  20899428.349    20899427.2784   20899432.9724
        -0.000          -0.000
 01  1 20  2 23  0.0000000  0  8 26  6 17 24  5 25 30 10            -0.000000025
  -1959221.408 8   -975700.41942         0.000           0.0004          0.0004
        -0.000          -0.000
 -21884296.481 9 -16811048.86648  21788803.074    21788802.6164   21788808.1754
        -0.000          -0.000
 -12569283.895 9  -9780362.07647  23126541.292    23126540.4704   23126547.6534
        -0.000          -0.000
  -7180185.660 9  -4927883.68146  23655568.716    23655568.2114   23655574.2464
        -0.000          -0.000
 -24814336.105 9 -19312942.74049  20998100.469    20998099.6384   20998105.3004
        -0.000          -0.000
   -376819.468 8   -180584.83745  25614655.917    25614655.3934   25614663.5624
        -0.000          -0.000
 -26581923.929 9 -20679807.23049  20422304.619    20422304.5434   20422309.2304
        -0.000          -0.000
 -24025217.347 9 -17895219.25148  20903563.374    20903562.2954   20903567.9834
        -0.000          -0.000
 01  1 20  2 23 30.0000000  0  7  6 17 24  5 25 30 10               -0.000000026
 -21940512.876 9 -16854853.80448  21778105.284    21778104.8524   21778110.3714
        -0.000          -0.000
 -12631170.592 9  -9828585.41647  23114764.617    23114763.7524   23114770.9414
        -0.000          -0.000
  -7101919.996 9  -4866897.44546  23670461.925    23670461.4614   23670467.6764
        -0.000          -0.000
 -24748640.679 9 -19261751.50149  21010601.858    21010601.0444   21010606.7124
        -0.000          -0.000
   -380921.172 8   -183780.92745  25613875.398    25613874.7944   25613883.1834
        -0.000          -0.000
 -26574571.471 9 -20674078.03449  20423703.764    20423703.6744   20423708.3574
        -0.000          -0.000
 -24002882.459 9 -17877815.41648  20907813.555    20907812.4634   20907818.1324
        -0.000          -0.000
 01  1 20  2 24  0.0000000  0  8 26  6 17 24  5 25 30 10            -0.000000027
  -2106199.030 9  -1090228.44952         0.000           0.0004          0.0005
        -0.000          -0.000
 -21996654.806 9 -16898600.70748  21767421.926    21767421.4884   21767427.0924
        -0.000          -0.000
 -12692823.383 9  -9876626.47647  23103032.208    23103031.4444   23103038.6224
        -0.000          -0.000
  -7023691.777 9  -4805940.36446  23685348.223    23685347.7654   23685353.9744
        -0.000          -0.000
 -24682513.402 9 -19210223.74949  21023185.478    21023184.6524   21023190.3204
        -0.000          -0.000
   -384623.867 8   -186666.12245  25613170.819    25613170.2114   25613178.5104
        -0.000          -0.000
 -26566632.646 9 -20667891.92149  20425214.433    20425214.3384   20425219.0374
        -0.000          -0.000
 -23979944.782 9 -17859941.87448  20912178.381    20912177.3514   20912183.0054
        -0.000          -0.000
 01  1 20  2 24 30.0000000  0  8 26  6 17 24  5 25 30 10            -0.000000026
  -2179919.29718  -1147672.67745         0.000           0.0005   24913406.8034
        -0.000          -0.000
 -22052719.668 9 -16942287.57348  21756753.136    21756752.6444   21756758.1854
        -0.000          -0.000
 -12754240.927 9  -9924484.24247  23091344.793    23091344.0154   23091351.0654
        -0.000          -0.000
  -6945500.783 9  -4745012.30646  23700227.474    23700226.9554   23700233.2884
        -0.000          -0.000
 -24615954.859 9 -19158359.95349  21035851.132    21035850.3144   21035855.9954
        -0.000          -0.000
   -387926.696 8   -189239.72145  25612542.274    25612541.8664   25612549.7764
        -0.000          -0.000
 -26558105.922 9 -20661247.71049  20426837.021    20426836.9454   20426841.6244
        -0.000          -0.000
 -23956404.009 9 -17841598.38948  20916658.057    20916656.9704   20916662.6524
        -0.000          -0.000
 01  1 20  2 25  0.0000000  0  8 26  6 17 24  5 25 30 10            -0.000000026
  -2253793.299 8  -1205236.57045  24899340.427    24899340.2754   24899347.7974
        -0.000          -0.000
 -22108709.190 9 -16985915.74048  21746098.660    21746098.2194   21746103.5804
        -0.000          -0.000
 -12815426.200 9  -9972161.01047  23079701.658    23079700.8454   23079707.8594
        -0.000          -0.000
  -6867351.047 9  -4684116.39946  23715098.815    23715098.2494   23715104.7434
        -0.000          -0.000
 -24548970.005 9 -19106163.96249  21048597.914    21048597.1094   21048602.8124
        -0.000          -0.000
   -390833.515 8   -191504.70145  25611989.049    25611988.6104   25611996.3874
        -0.000          -0.000
 -26548994.334 9 -20654147.76049  20428570.871    20428570.7854   20428575.4804
        -0.000          -0.000
 -23932264.189 9 -17822788.11448  20921251.682    20921250.6204   20921256.2674
        -0.000          -0.000
 01  1 20  2 25 30.0000000  0  8 26  6 17 24  5 25 30 10            -0.000000026
  -2327815.888 8  -1262916.44045  24885254.345    24885253.6574   24885261.4554
        -0.000          -0.000
 -22164620.006 9 -17029482.55148  21735459.196    21735458.6764   21735464.2094
        -0.000          -0.000
 -12876377.051 9 -10019655.11147  23068103.104    23068102.2454   23068109.2894
        -0.000          -0.000
  -6789241.515 9  -4623251.82946  23729962.624    23729962.0994   23729968.5304
        -0.000          -0.000
 -24481558.801 9 -19053635.75748  21061425.805    21061425.0094   21061430.7354
        -0.000          -0.000
   -393342.793 8   -193459.96245  25611511.345    25611510.9704   25611519.4244
        -0.000          -0.000
 -26539296.286 9 -20646590.82849  20430416.324    20430416.2474   20430420.9604
        -0.000          -0.000
 -23907524.022 9 -17803510.03448  20925959.582    20925958.4904   20925964.1134
        -0.000          -0.000
 01  1 20  2 26  0.0000000  0  8 26  6 17 24  5 25 30 10            -0.000000026
  -2401985.306 8  -1320710.79645  24871140.360    24871140.6674   24871146.8154
        -0.000          -0.000
 -22220451.594 9 -17072987.64948  21724834.587    21724834.1604   21724839.6294
        -0.000          -0.000
 -12937094.229 9 -10066967.13447  23056548.979    23056548.1244   23056555.1604
        -0.000          -0.000
  -6711173.907 9  -4562419.90846  23744818.415    23744817.8754   23744824.1354
        -0.000          -0.000
 -24413723.822 9 -19000777.33548  21074334.403    21074333.5824   21074339.3014
        -0.000          -0.000
   -395456.258 8   -195106.79644  25611109.316    25611109.2214   25611117.0014
        -0.000          -0.000
 -26529012.247 9 -20638577.28249  20432373.312    20432373.2424   20432377.9244
        -0.000          -0.000
 -23882185.626 9 -17783765.80648  20930781.305    20930780.2124   20930785.8584
        -0.000          -0.000
 01  1 20  2 26 30.0000000  0  8 26  6 17 24  5 25 30 10            -0.000000027
  -2476299.189 8  -1378617.60745  24856998.673    24856998.6994   24857005.3364
        -0.000          -0.000
 -22276203.021 9 -17116430.29048  21714225.607    21714225.1054   21714230.4244
        -0.000          -0.000
 -12997577.888 9 -10114097.18147  23045039.230    23045038.3724   23045045.5034
        -0.000          -0.000
  -6633149.259 9  -4501621.46046  23759665.899    23759665.3174   23759671.4394
        -0.000          -0.000
 -24345467.212 9 -18947590.36948  21087323.243    21087322.4014   21087328.1074
        -0.000          -0.000
   -397175.266 8   -196446.24844  25610782.150    25610781.9634   25610789.5544
        -0.000          -0.000
 -26518142.554 9 -20630107.38249  20434441.745    20434441.6804   20434446.3654
        -0.000          -0.000
 -23856249.828 9 -17763556.06548  20935716.748    20935715.6064   20935721.2094
        -0.000          -0.000
 01  1 20  2 27  0.0000000  0  8 26  6 17 24  5 25 30 10            -0.000000027
  -2550753.799 8  -1436634.10045  24842829.854    24842830.1064   24842837.2024
        -0.000          -0.000
 -22331872.010 9 -17159808.66548  21703631.968    21703631.5284   21703637.0914
        -0.000          -0.000
 -13057826.959 9 -10161044.44047  23033574.157    23033573.3294   23033580.3884
        -0.000          -0.000
  -6555167.395 9  -4440856.32746  23774505.399    23774504.8634   23774510.9734
        -0.000          -0.000
 -24276790.049 9 -18894075.69948  21100392.067    21100391.2434   21100396.9534
        -0.000          -0.000
   -398499.726 7   -197478.23144  25610530.288    25610530.4474   25610537.7934
        -0.000          -0.000
 -26506686.463 9 -20621180.54949  20436621.757    20436621.6914   20436626.3644
        -0.000          -0.000
 -23829716.860 9 -17742881.00548  20940765.703    20940764.6104   20940770.2524
        -0.000          -0.000
 01  1 20  2 27 30.0000000  0  8 26  6 17 24  5 25 30 10            -0.000000026
  -2625348.236 8  -1494759.59645  24828635.150    24828635.3934   24828642.6624
        -0.000          -0.000
 -22387458.943 9 -17203123.13348  21693054.231    21693053.7524   21693059.0764
        -0.000          -0.000
 -13117843.358 9 -10207810.38747  23022153.463    23022152.6154   23022159.6024
        -0.000          -0.000
  -6477231.115 9  -4380126.76346  23789336.291    23789335.6864   23789341.9254
        -0.000          -0.000
 -24207696.200 9 -18840236.33448  21113540.206    21113539.3414   21113545.0704
        -0.000          -0.000
   -399432.338 8   -198204.86744  25610352.723    25610352.6434   25610360.5694
        -0.000          -0.000
 -26494646.453 9 -20611798.70949  20438912.871    20438912.8154   20438917.5104
        -0.000          -0.000
 -23802589.421 9 -17721742.71648  20945927.867    20945926.7774   20945932.3794
        -0.000          -0.000
 01  1 20  2 28  0.0000000  0  8 26  6 17 24  5 25 30 10            -0.000000027
  -2700078.626 8  -1552991.12745  24814414.455    24814414.5504   24814421.5614
        -0.000          -0.000
 -22442961.293 9 -17246371.66848  21682492.271    21682491.8434   21682497.3274
        -0.000          -0.000
 -13177625.900 9 -10254394.11547  23010777.199    23010776.3214   23010783.2714
        -0.000          -0.000
  -6399340.690 9  -4319432.94046  23804158.184    23804157.6244   23804164.0674
        -0.000          -0.000
 -24138186.419 9 -18786072.87448  21126767.439    21126766.5944   21126772.3594
        -0.000          -0.000
   -399972.427 8   -198625.65944  25610249.931    25610249.7224   25610257.3004
        -0.000          -0.000
 -26482021.095 9 -20601960.75849  20441315.428    20441315.3524   20441320.0424
        -0.000          -0.000
 -23774867.455 9 -17700141.16548  20951203.130    20951202.0454   20951207.6744
        -0.000          -0.000
 01  1 20  2 28 30.0000000  0  8 26  6 17 24  5 25 30 10            -0.000000028
  -2774942.179 8  -1611326.35145  24800168.175    24800168.3594   24800175.6984
        -0.000          -0.000
 -22498377.446 9 -17289553.05248  21671947.078    21671946.5944   21671952.0154
        -0.000          -0.000
 -13237174.509 9 -10300795.55347  22999445.351    22999444.5264   22999451.4544
        -0.000          -0.000
  -6321496.472 9  -4258775.09046  23818971.279    23818970.7314   23818977.1724
        -0.000          -0.000
 -24068262.531 9 -18731586.72448  21140073.493    21140072.6624   21140078.4454
        -0.000          -0.000
   -400120.820 8   -198741.28544  25610221.692    25610221.8414   25610228.7024
        -0.000          -0.000
 -26468810.481 9 -20591666.76049  20443829.312    20443829.2124   20443833.9194
        -0.000          -0.000
 -23746552.069 9 -17678077.20348  20956591.354    20956590.2654   20956595.8824
        -0.000          -0.000
 01  1 20  2 29  0.0000000  0  8 26  6 17 24  5 25 30 10            -0.000000028
  -2849935.646 8  -1669762.75545  24785897.772    24785897.8204   24785905.5514
        -0.000          -0.000
 -22553705.877 9 -17332666.07348  21661418.208    21661417.7534   21661423.1604
        -0.000          -0.000
 -13296488.908 9 -10347014.48947  22988158.081    22988157.2904   22988164.2054
        -0.000          -0.000
  -6243698.857 9  -4198153.54146  23833775.670    23833775.1314   23833781.4244
        -0.000          -0.000
 -23997926.201 9 -18676779.19548  21153458.007    21153457.2164   21153462.9764
        -0.000          -0.000
   -399878.086 8   -198552.12545  25610267.712    25610267.6324   25610275.2864
        -0.000          -0.000
 -26455014.541 9 -20580916.66849  20446454.590    20446454.5144   20446459.1994
        -0.000          -0.000
 -23717644.045 9 -17655551.45348  20962092.341    20962091.2864   20962096.8904
        -0.000          -0.000
 01  1 20  2 29 30.0000000  0  8 26  6 17 24  5 25 30 10            -0.000000027
  -2925058.696 8  -1728300.16945  24771602.161    24771602.0964   24771610.0754
        -0.000          -0.000
 -22608947.577 9 -17375711.52548  21650906.193    21650905.7404   21650911.1344
        -0.000          -0.000
 -13355571.275 9 -10393052.62447  22976914.999    22976914.2334   22976921.1094
        -0.000          -0.000
  -6165950.986 9  -4137570.76246  23848570.764    23848570.1584   23848576.2714
        -0.000          -0.000
 -23927181.935 9 -18621653.79348  21166920.211    21166919.3974   21166925.1434
        -0.000          -0.000
   -399247.896 8   -198061.06345  25610387.485    25610387.4784   25610395.1384
        -0.000          -0.000
 -26440635.887 9 -20569712.51449  20449190.748    20449190.6704   20449195.3504
        -0.000          -0.000
 -23688146.854 9 -17632566.60948  20967705.466    20967704.4104   20967709.9884
        -0.000          -0.000
 01  1 20  2 30  0.0000000  0  9 26  6 17 24  5 25 30 10 23         -0.000000028
  -3000308.138 8  -1786936.11645  24757282.528    24757282.5324   24757290.3814
        -0.000          -0.000
 -22664100.760 9 -17418687.98148  21640410.716    21640410.2764   21640415.7414
        -0.000          -0.000
 -13414421.094 9 -10438909.56447  22965716.272    22965715.4864   22965722.2534
        -0.000          -0.000
  -6088253.299 9  -4077027.10146  23863356.138    23863355.5134   23863361.6444
        -0.000          -0.000
 -23856031.268 9 -18566211.71648  21180459.703    21180458.9034   21180464.6644
        -0.000          -0.000
   -398230.628 8   -197268.35645  25610581.209    25610580.9844   25610588.7294
        -0.000          -0.000
 -26425673.984 9 -20558053.87849  20452037.877    20452037.8094   20452042.4764
        -0.000          -0.000
 -23658060.845 9 -17609122.94848  20973430.607    20973429.5474   20973435.1144
        -0.000          -0.000
  -1167967.80218   -556602.03452         0.000           0.0005          0.0005
        -0.000          -0.000
 01  1 20  2 30 30.0000000  0  9 26  6 17 24  5 25 30 10 23         -0.000000029
  -3075679.315 8  -1845666.80645  24742939.723    24742939.6994   24742947.3084
        -0.000          -0.000
 -22719162.347 9 -17461593.09348  21629932.958    21629932.4994   21629937.7894
        -0.000          -0.000
 -13473036.742 9 -10484584.01447  22954562.031    22954561.2684   22954567.9684
        -0.000          -0.000
  -6010605.040 9  -4016521.96846  23878132.003    23878131.4434   23878137.6974
        -0.000          -0.000
 -23784474.650 9 -18510453.31448  21194076.494    21194075.6674   21194081.4444
        -0.000          -0.000
   -396825.580 8   -196173.47945  25610848.597    25610848.4084   25610855.7664
        -0.000          -0.000
 -26410127.813 9 -20545939.97049  20454996.246    20454996.1814   20455000.8144
        -0.000          -0.000
 -23627385.762 9 -17585220.26048  20979267.888    20979266.8264   20979272.4074
        -0.000          -0.000
  -1275121.449 8   -640098.09342         0.000           0.0004          0.0004
        -0.000          -0.000
 01  1 20  2 31  0.0000000  0  8 26  6 17 24  5 25 30 10            -0.000000027
  -3151169.299 8  -1904490.19245  24728574.783    24728574.5154   24728581.9104
        -0.000          -0.000
 -22774130.848 9 -17504425.63148  21619472.650    21619472.2214   21619477.6764
        -0.000          -0.000
 -13531418.092 9 -10530075.89647  22943452.361    22943451.5794   22943458.2764
        -0.000          -0.000
  -5933007.230 9  -3956056.13746  23892898.445    23892897.9124   23892904.1794
        -0.000          -0.000
 -23712513.885 9 -18454379.98848  21207770.137    21207769.2974   21207775.1024
        -0.000          -0.000
   -395033.350 8   -194776.89245  25611189.619    25611189.5724   25611196.8234
        -0.000          -0.000
 -26393997.434 9 -20533370.83249  20458065.718    20458065.6464   20458070.3044
        -0.000          -0.000
 -23596122.776 9 -17560859.47048  20985217.004    20985215.9574   20985221.5254
        -0.000          -0.000
 01  1 20  2 31 30.0000000  0  9 26  6 17 24  5 25 30 10 23         -0.000000029
  -3226778.506 8  -1963406.23045  24714186.559    24714186.3654   24714194.1594
        -0.000          -0.000
 -22829008.018 9 -17547187.04548  21609030.003    21609029.5204   21609034.7534
        -0.000          -0.000
 -13589568.269 9 -10575387.65147  22932386.689    22932385.9104   22932392.6634
        -0.000          -0.000
  -5855463.605 9  -3895632.56146  23907654.406    23907653.8954   23907660.3024
        -0.000          -0.000
 -23640154.214 9 -18397995.83148  21221539.726    21221538.8744   21221544.6844
        -0.000          -0.000
   -392858.458 8   -193082.15845  25611603.419    25611603.1184   25611610.4804
        -0.000          -0.000
 -26377286.339 9 -20520349.19449  20461245.695    20461245.6344   20461250.3174
        -0.000          -0.000
 -23564276.067 9 -17536043.83348  20991277.216    20991276.1524   20991281.7364
        -0.000          -0.000
  -1489340.13018   -807021.29445         0.000           0.0005   24674489.0974
        -0.000          -0.000
 01  1 20  2 32  0.0000000  0  9 26  6 17 24  5 25 30 10 23         -0.000000028
  -3302501.899 8  -2022411.33045  24699777.024    24699776.6324   24699784.5474
        -0.000          -0.000
 -22883790.062 9 -17589874.29448  21598605.106    21598604.6574   21598610.0954
        -0.000          -0.000
 -13647485.077 9 -10620517.55647  22921365.397    22921364.6894   22921371.3814
        -0.000          -0.000
  -5777972.442 9  -3835249.80746  23922400.525    23922400.0474   23922406.3414
        -0.000          -0.000
 -23567395.440 9 -18341300.68248  21235385.272    21235384.4294   21235390.2424
        -0.000          -0.000
   -390299.455 8   -191088.10145  25612090.410    25612090.0104   25612097.8184
        -0.000          -0.000
 -26359992.652 9 -20506873.58849  20464536.565    20464536.5164   20464541.1794
        -0.000          -0.000
 -23531844.619 9 -17510772.55748  20997448.666    20997447.6394   20997453.2264
        -0.000          -0.000
  -1596401.034 8   -890444.97645  24654108.218    24654106.6574   24654115.0504
        -0.000          -0.000
 01  1 20  2 32 30.0000000  0  9 26  6 17 24  5 25 30 10 23         -0.000000028
  -3378337.731 9  -2081504.05645  24685345.686    24685345.3914   24685352.9994
        -0.000          -0.000
 -22938476.528 9 -17632487.09548  21588198.666    21588198.2124   21588203.5454
        -0.000          -0.000
 -13705169.731 9 -10665466.58247  22910388.401    22910387.6384   22910394.1944
        -0.000          -0.000
  -5700535.943 9  -3774909.64646  23937136.427    23937135.9154   23937141.8694
        -0.000          -0.000
 -23494240.801 9 -18284297.06748  21249306.140    21249305.3124   21249311.1254
        -0.000          -0.000
   -387358.602 8   -188796.49145  25612649.855    25612649.6414   25612657.2444
        -0.000          -0.000
 -26342117.942 9 -20492945.23649  20467938.011    20467937.9314   20467942.6024
        -0.000          -0.000
 -23498830.700 9 -17485047.40548  21003731.019    21003729.9904   21003735.5624
        -0.000          -0.000
  -1703426.364 9   -973840.97145  24633741.911    24633741.1264   24633750.7844
        -0.000          -0.000
 01  1 20  2 33  0.0000000  0  9 26  6 17 24  5 25 30 10 23         -0.000000028
  -3454282.630 8  -2140681.68645  24670894.016    24670893.4774   24670901.3234
        -0.000          -0.000
 -22993065.756 9 -17675024.11548  21577810.551    21577810.1434   21577815.4424
        -0.000          -0.000
 -13762621.955 9 -10710234.47647  22899455.507    22899454.7484   22899461.3294
        -0.000          -0.000
  -5623154.258 9  -3714612.18946  23951861.845    23951861.3114   23951866.9964
        -0.000          -0.000
 -23420692.181 9 -18226986.45448  21263302.035    21263301.1834   21263306.9794
        -0.000          -0.000
   -384036.260 8   -186207.61745  25613281.950    25613281.6954   25613289.7834
        -0.000          -0.000
 -26323662.181 9 -20478564.11449  20471450.025    20471449.9504   20471454.6134
        -0.000          -0.000
 -23465235.129 9 -17458869.01048  21010124.045    21010122.9954   21010128.5544
        -0.000          -0.000
  -1810413.089 8  -1057206.95445  24613382.932    24613381.4014   24613391.4994
        -0.000          -0.000
 01  1 20  2 33 30.0000000  0  9 26  6 17 24  5 25 30 10 23         -0.000000029
  -3530334.093 9  -2199942.37045  24656421.278    24656420.6754   24656428.4434
        -0.000          -0.000
 -23047556.192 9 -17717484.15348  21567441.437    21567440.9824   21567446.3194
        -0.000          -0.000
 -13819841.668 9 -10754821.20047  22888566.864    22888566.1354   22888572.7404
        -0.000          -0.000
  -5545828.540 9  -3654358.35946  23966576.343    23966575.8454   23966581.7174
        -0.000          -0.000
 -23346751.693 9 -18169370.48948  21277372.441    21277371.6124   21277377.3744
        -0.000          -0.000
   -380333.919 8   -183322.65545  25613986.368    25613986.1174   25613994.2614
        -0.000          -0.000
 -26304625.988 9 -20463730.71049  20475072.496    20475072.4224   20475077.0834
        -0.000          -0.000
 -23431059.701 9 -17432238.78848  21016627.350    21016626.3024   21016631.8974
        -0.000          -0.000
  -1917358.756 8  -1140540.88545  24593031.655    24593030.0694   24593040.2154
        -0.000          -0.000
 01  1 20  2 34  0.0000000  0  9 26  6 17 24  5 25 30 10 23         -0.000000029
  -3606488.821 8  -2259283.57545  24641929.895    24641929.2974   24641937.1354
        -0.000          -0.000
 -23101946.393 9 -17759866.09048  21557091.143    21557090.7664   21557096.0924
        -0.000          -0.000
 -13876828.888 9 -10799226.76147  22877722.518    22877721.7634   22877728.4214
        -0.000          -0.000
  -5468558.929 9  -3594148.33346  23981280.034    23981279.5564   23981285.8504
        -0.000          -0.000
 -23272421.389 9 -18111450.76948  21291517.047    21291516.2104   21291521.9474
        -0.000          -0.000
   -376252.571 8   -180142.39644  25614763.043    25614762.4404   25614770.4524
        -0.000          -0.000
 -26285009.652 9 -20448445.24749  20478805.352    20478805.2684   20478809.9294
        -0.000          -0.000
 -23396305.470 9 -17405157.54548  21023240.837    21023239.8144   21023245.3894
        -0.000          -0.000
  -2024260.827 8  -1223840.88045  24572688.811    24572687.3424   24572697.0674
        -0.000          -0.000
 01  1 20  2 34 30.0000000  0  9 26  6 17 24  5 25 30 10 23         -0.000000029
  -3682743.428 8  -2318702.39045  24627418.677    24627418.1444   24627426.2054
        -0.000          -0.000
 -23156234.082 9 -17802168.15148  21546760.675    21546760.2184   21546765.4804
        -0.000          -0.000
 -13933582.704 9 -10843450.44547  22866922.503    22866921.7804   22866928.5454
        -0.000          -0.000
  -5391345.771 9  -3533982.25246  23995973.192    23995972.8034   23995979.0844
        -0.000          -0.000
 -23197702.275 9 -18053228.08648  21305735.639    21305734.7874   21305740.4994
        -0.000          -0.000
   -371792.15017   -176666.64444  25615611.948    25615611.8085   25615619.2774
        -0.000          -0.000
 -26264812.828 9 -20432707.45749  20482648.672    20482648.5884   20482653.2824
        -0.000          -0.000
 -23360972.973 9 -17377625.71048  21029964.349    21029963.3294   21029968.9174
        -0.000          -0.000
  -2131115.967 9  -1307104.27945  24552354.660    24552353.4004   24552362.8564
        -0.000          -0.000
 01  1 20  2 35  0.0000000  0  9 26  6 17 24  5 25 30 10 23         -0.000000029
  -3759098.143 8  -2378199.48245  24612888.787    24612888.4924   24612896.2364
        -0.000          -0.000
 -23210421.005 9 -17844391.69048  21536449.172    21536448.7674   21536453.9194
        -0.000          -0.000
 -13990106.601 9 -10887494.97947  22856166.262    22856165.5264   22856172.2964
        -0.000          -0.000
  -5314192.821 9  -3473863.01846  24010655.126    24010654.6604   24010660.6834
        -0.000          -0.000
 -23122599.884 9 -17994706.74448  21320027.155    21320026.3134   21320032.0344
        -0.000          -0.000
   -366956.995 8   -172898.96644  25616532.013    25616532.0344   25616539.2594
        -0.000          -0.000
 -26244039.398 9 -20416520.36549  20486601.701    20486601.6314   20486606.3194
        -0.000          -0.000
 -23325066.707 9 -17349646.78248  21036797.141    21036796.0694   21036801.6174
        -0.000          -0.000
  -2237924.718 9  -1390331.57245  24532029.399    24532028.3114   24532037.5744
        -0.000          -0.000
 01  1 20  2 35 30.0000000  0  9 26  6 17 24  5 25 30 10 23         -0.000000029
  -3835547.574 8  -2437770.23745  24598340.966    24598340.5834   24598348.1714
        -0.000          -0.000
 -23264503.218 9 -17886533.63748  21526157.804    21526157.3124   21526162.4274
        -0.000          -0.000
 -14046398.106 9 -10931358.42347  22845454.246    22845453.5324   22845460.1884
        -0.000          -0.000
  -5237098.441 9  -3413789.48046  24025325.642    24025325.0844   24025331.1924
        -0.000          -0.000
 -23047113.945 9 -17935886.53148  21334391.611    21334390.7884   21334396.5224
        -0.000          -0.000
   -361746.509 7   -168838.89154  25617523.457    25617523.2094          0.0005
        -0.000          -0.000
 -26222687.341 9 -20399882.38949  20490664.853    20490664.7784   20490669.4874
        -0.000          -0.000
 -23288585.846 9 -17321220.11848  21043739.192    21043738.1534   21043743.6674
        -0.000          -0.000
  -2344681.936 8  -1473518.70445  24511713.857    24511712.9764   24511722.3634
        -0.000          -0.000
 01  1 20  2 36  0.0000000  0  9 26  6 17 24  5 25 30 10 23          0.000000010
  -3912099.328 8  -2497420.82945  24583773.523    24583773.1484   24583780.4684
        -0.000          -0.000
 -23318489.751 9 -17928601.03448  21515884.420    21515883.9834   21515889.0674
        -0.000          -0.000
 -14102467.802 9 -10975049.03147  22834784.588    22834783.8584   22834790.3964
        -0.000          -0.000
  -5160073.861 9  -3353770.33946  24039982.737    24039982.2864   24039988.4284
        -0.000          -0.000
 -22971257.043 9 -17876777.25748  21348826.731    21348825.8854   21348831.6174
        -0.000          -0.000
   -356170.802 8   -164494.39944  25618584.790    25618584.8234   25618592.6574
        -0.000          -0.000
 -26200767.835 9 -20382802.25049  20494835.980    20494835.9104   20494840.6074
        -0.000          -0.000
 -23251541.960 9 -17292354.73848  21050788.414    21050787.3434   21050792.8414
        -0.000          -0.000
  -2451395.510 8  -1556671.91445  24491406.808    24491406.0324   24491415.0654
        -0.000          -0.000
 01  1 20  2 36 30.0000000  0  9 26  6 17 24  5 25 30 10 23          0.000000005
  -3988738.828 8  -2557139.70245  24569189.295    24569189.0344   24569196.8394
        -0.000          -0.000
 -23372367.330 9 -17970583.52348  21505631.817    21505631.3514   21505636.4024
        -0.000          -0.000
 -14158304.015 9 -11018557.71147  22824159.298    22824158.5644   22824165.0424
        -0.000          -0.000
  -5083107.946 9  -3293796.84546  24054628.827    24054628.4484   24054634.4184
        -0.000          -0.000
 -22895019.741 9 -17817371.56348  21363334.160    21363333.3324   21363339.0814
        -0.000          -0.000
   -350220.507 8   -159857.66344  25619716.965    25619717.0404   25619724.1164
        -0.000          -0.000
 -26178269.462 9 -20365271.04349  20499117.250    20499117.2064   20499121.8924
        -0.000          -0.000
 -23213924.752 9 -17263042.60448  21057946.723    21057945.6574   21057951.1334
        -0.000          -0.000
  -2558051.232 8  -1639779.92545  24471110.598    24471109.7544   24471119.2114
        -0.000          -0.000
 01  1 20  2 37  0.0000000  0  9 26  6 17 24  5 25 30 10 23          0.000000002
  -4065461.626 8  -2616923.54945  24554589.369    24554589.1234   24554596.9544
        -0.000          -0.000
 -23426132.667 9 -18012478.55148  21495400.586    21495400.1344   21495405.2584
        -0.000          -0.000
 -14213905.316 9 -11061883.33647  22813578.685    22813577.9594   22813584.4114
        -0.000          -0.000
  -5006199.876 9  -3233868.47946  24069263.827    24069263.4764   24069269.4434
        -0.000          -0.000
 -22818402.748 9 -17757670.00948  21377913.874    21377913.0494   21377918.8214
        -0.000          -0.000
   -343894.948 8   -154928.63145  25620920.689    25620920.2754   25620927.6754
        -0.000          -0.000
 -26155191.519 9 -20347288.22549  20503508.850    20503508.7964   20503513.4864
        -0.000          -0.000
 -23175734.375 9 -17233283.85148  21065214.126    21065213.0364   21065218.4834
        -0.000          -0.000
  -2664644.738 8  -1722839.62745  24450826.325    24450825.5054   24450834.9474
        -0.000          -0.000
 01  1 20  2 37 30.0000000  0  9 26  6 17 24  5 25 30 10 23         -0.000000000
  -4142266.897 8  -2676771.74945  24539973.555    24539973.3804   24539980.8904
        -0.000          -0.000
 -23479786.630 9 -18054286.79248  21485190.503    21485190.0634   21485195.2434
        -0.000          -0.000
 -14269274.119 9 -11105027.78547  22803042.269    22803041.5634   22803047.9924
        -0.000          -0.000
  -4929352.603 9  -3173987.47546  24083887.459    24083887.0624   24083892.9774
        -0.000          -0.000
 -22741410.415 9 -17697675.98448  21392565.038    21392564.2064   21392569.9864
        -0.000          -0.000
   -337197.489 8   -149709.77945  25622194.808    25622194.5644   25622202.2434
        -0.000          -0.000
 -26131536.874 9 -20328856.02749  20508010.176    20508010.1204   20508014.7974
        -0.000          -0.000
 -23136974.530 9 -17203081.35948  21072589.838    21072588.7904   21072594.2024
        -0.000          -0.000
  -2771175.834 8  -1805850.60345  24430553.770    24430553.0204   24430562.3784
        -0.000          -0.000
